[[{"header":{"parameterUnit":"m.s-1","parameterCategory":1,"la1":30.6,"la2":28.766,"lo1":-90.7593,"lo2":-88.6598,"dx":0.0162,"dy":0.0183,"nx":116,"ny":114,"refTime":"2023-01-04T18:00:00:Z","depth":0,"parameterNumber":2,"parameterNumberName":"U-component_of_WINDS"},"data":[0.0,0.0,0.0,0.0,0.0,0.0,0.0,0.0,0.0,0.0,0.0,0.0,0.0,0.0,0.0,0.0,0.0,0.0,0.0,0.0,0.0,0.0,0.0,0.0,0.0,0.0,0.0,0.0,0.0,0.0,0.0,0.0,0.0,0.0,0.0,0.0,0.0,0.0,0.0,0.0,0.0,0.0,0.0,0.0,0.0,0.0,0.0,0.0,0.0,0.0,0.0,0.0,0.0,0.0,0.0,0.0,0.0,0.0,0.0,0.0,0.0,0.0,0.0,0.0,0.0,0.0,0.0,0.0,0.0,0.0,0.0,0.0,0.0,0.0,0.0,0.0,0.0,0.0,0.0,0.0,0.0,0.0,0.0,0.0,0.0,0.0,0.0,0.0,0.0,0.0,0.0,0.0,0.0,0.0,0.0,0.0,0.0,0.0,0.0,0.0,0.0,0.0,0.0,0.0,0.0,0.0,0.0,0.0,0.0,0.0,0.0,0.0,0.0,0.0,0.0,0.0,0.0,0.0,0.0,0.0,0.0,0.0,0.0,0.0,0.0,0.0,0.0,0.0,0.0,0.0,0.0,0.0,0.0,0.0,0.0,0.0,0.0,0.0,0.0,0.0,0.0,0.0,0.0,0.0,0.0,0.0,0.0,0.0,0.0,0.0,0.0,0.0,0.0,0.0,0.0,0.0,0.0,0.0,0.0,0.0,0.0,0.0,0.0,0.0,0.0,0.0,0.0,0.0,0.0,0.0,0.0,0.0,0.0,0.0,0.0,0.0,0.0,0.0,0.0,0.0,0.0,0.0,0.0,0.0,0.0,0.0,0.0,0.0,0.0,0.0,0.0,0.0,0.0,0.0,0.0,0.0,0.0,0.0,0.0,0.0,0.0,0.0,0.0,0.0,0.0,0.0,0.0,0.0,0.0,0.0,0.0,0.0,0.0,0.0,0.0,0.0,0.0,0.0,0.0,0.0,0.0,0.0,0.0,0.0,0.0,0.0,0.0,0.0,0.0,0.0,0.0,0.0,0.0,0.0,0.0,0.0,0.0,0.0,0.0,0.0,0.0,0.0,0.0,0.0,0.0,0.0,0.0,0.0,0.0,0.0,0.0,0.0,0.0,0.0,0.0,0.0,0.0,0.0,0.0,0.0,0.0,0.0,0.0,0.0,0.0,0.0,0.0,0.0,0.0,0.0,0.0,0.0,0.0,0.0,0.0,0.0,0.0,0.0,0.0,0.0,0.0,0.0,0.0,0.0,0.0,0.0,0.0,0.0,0.0,0.0,0.0,0.0,0.0,0.0,0.0,0.0,0.0,0.0,0.0,0.0,0.0,0.0,0.0,0.0,0.0,0.0,0.0,0.0,0.0,0.0,0.0,0.0,0.0,0.0,0.0,0.0,0.0,0.0,0.0,0.0,0.0,0.0,0.0,0.0,0.0,0.0,0.0,0.0,0.0,0.0,0.0,0.0,0.0,0.0,0.0,0.0,0.0,0.0,0.0,0.0,0.0,0.0,0.0,0.0,0.0,0.0,0.0,0.0,0.0,0.0,0.0,0.0,0.0,0.0,0.0,0.0,0.0,0.0,0.0,0.0,0.0,0.0,0.0,0.0,0.0,0.0,0.0,0.0,0.0,0.0,0.0,0.0,0.0,0.0,0.0,0.0,0.0,0.0,0.0,0.0,0.0,0.0,0.0,0.0,0.0,0.0,0.0,0.0,0.0,0.0,0.0,0.0,0.0,0.0,0.0,0.0,0.0,0.0,0.0,0.0,0.0,0.0,0.0,0.0,0.0,0.0,0.0,0.0,0.0,0.0,0.0,0.0,0.0,0.0,0.0,0.0,0.0,0.0,0.0,0.0,0.0,0.0,0.0,0.0,0.0,0.0,0.0,0.0,0.0,0.0,0.0,0.0,0.0,0.0,0.0,0.0,0.0,0.0,0.0,0.0,0.0,0.0,0.0,0.0,0.0,0.0,0.0,0.0,0.0,0.0,0.0,0.0,0.0,0.0,0.0,0.0,0.0,0.0,0.0,0.0,0.0,0.0,0.0,0.0,0.0,0.0,0.0,0.0,0.0,0.0,0.0,0.0,0.0,0.0,0.0,0.0,0.0,0.0,0.0,0.0,0.0,0.0,0.0,0.0,0.0,0.0,0.0,0.0,0.0,0.0,0.0,0.0,0.0,0.0,0.0,0.0,0.0,0.0,0.0,0.0,0.0,0.0,0.0,0.0,0.0,0.0,0.0,0.0,0.0,0.0,0.0,0.0,0.0,0.0,0.0,0.0,0.0,0.0,0.0,0.0,0.0,0.0,0.0,0.0,0.0,0.0,0.0,0.0,0.0,0.0,0.0,0.0,0.0,0.0,0.0,0.0,0.0,0.0,0.0,0.0,0.0,0.0,0.0,0.0,0.0,0.0,0.0,0.0,0.0,0.0,0.0,0.0,0.0,0.0,0.0,0.0,0.0,0.0,0.0,0.0,0.0,0.0,0.0,0.0,0.0,0.0,0.0,0.0,0.0,0.0,0.0,0.0,0.0,0.0,0.0,0.0,0.0,0.0,0.0,0.0,0.0,0.0,0.0,0.0,0.0,0.0,0.0,0.0,0.0,0.0,0.0,0.0,0.0,0.0,0.0,0.0,0.0,0.0,0.0,0.0,0.0,0.0,0.0,0.0,0.0,0.0,0.0,0.0,0.0,0.0,0.0,0.0,0.0,0.0,0.0,0.0,0.0,0.0,0.0,0.0,0.0,0.0,0.0,0.0,0.0,0.0,0.0,0.0,0.0,0.0,0.0,0.0,0.0,0.0,0.0,0.0,0.0,0.0,0.0,0.0,0.0,0.0,0.0,0.0,0.0,0.0,0.0,0.0,0.0,0.0,0.0,0.0,0.0,0.0,0.0,0.0,0.0,0.0,0.0,0.0,0.0,0.0,0.0,0.0,0.0,0.0,0.0,0.0,0.0,0.0,0.0,0.0,0.0,0.0,0.0,0.0,0.0,0.0,0.0,0.0,0.0,0.0,0.0,0.0,0.0,0.0,0.0,0.0,0.0,0.0,0.0,0.0,0.0,0.0,0.0,0.0,0.0,0.0,0.0,0.0,0.0,0.0,0.0,0.0,0.0,0.0,0.0,0.0,0.0,0.0,0.0,0.0,0.0,0.0,0.0,0.0,0.0,0.0,0.0,0.0,0.0,0.0,0.0,0.0,0.0,0.0,0.0,0.0,0.0,0.0,0.0,0.0,0.0,0.0,0.0,0.0,0.0,0.0,0.0,0.0,0.0,0.0,0.0,0.0,0.0,0.0,0.0,0.0,0.0,0.0,0.0,0.0,0.0,0.0,0.0,0.0,0.0,0.0,0.0,0.0,0.0,0.0,0.0,0.0,0.0,0.0,0.0,0.0,0.0,0.0,0.0,0.0,0.0,0.0,0.0,0.0,0.0,0.0,0.0,0.0,0.0,0.0,0.0,0.0,0.0,0.0,0.0,0.0,0.0,0.0,0.0,0.0,0.0,0.0,0.0,0.0,0.0,0.0,0.0,0.0,0.0,0.0,0.0,0.0,0.0,0.0,0.0,0.0,0.0,0.0,0.0,0.0,0.0,0.0,0.0,0.0,0.0,0.0,0.0,0.0,0.0,0.0,0.0,0.0,0.0,0.0,0.0,0.0,0.0,0.0,0.0,0.0,0.0,0.0,0.0,0.0,0.0,0.0,0.0,0.0,0.0,0.0,0.0,0.0,0.0,0.0,0.0,0.0,0.0,0.0,0.0,0.0,0.0,0.0,0.0,0.0,0.0,0.0,0.0,0.0,0.0,0.0,0.0,0.0,0.0,0.0,0.0,0.0,0.0,0.0,0.0,0.0,0.0,0.0,0.0,0.0,0.0,0.0,0.0,0.0,0.0,0.0,0.0,0.0,0.0,0.0,0.0,0.0,0.0,0.0,0.0,0.0,0.0,0.0,0.0,0.0,0.0,0.0,0.0,0.0,0.0,0.0,0.0,0.0,0.0,0.0,0.0,0.0,0.0,0.0,0.0,0.0,0.0,0.0,0.0,0.0,0.0,0.0,0.0,0.0,0.0,0.0,0.0,0.0,0.0,0.0,0.0,0.0,0.0,0.0,0.0,0.0,0.0,0.0,0.0,0.0,0.0,0.0,0.0,0.0,0.0,0.0,0.0,0.0,0.0,0.0,0.0,0.0,0.0,0.0,0.0,0.0,0.0,0.0,0.0,0.0,0.0,0.0,0.0,0.0,0.0,0.0,0.0,0.0,0.0,0.0,0.0,0.0,0.0,0.0,0.0,0.0,0.0,0.0,0.0,0.0,0.0,0.0,0.0,0.0,0.0,0.0,0.0,0.0,0.0,0.0,0.0,0.0,0.0,0.0,0.0,0.0,0.0,0.0,0.0,0.0,0.0,0.0,0.0,0.0,0.0,0.0,0.0,0.0,0.0,0.0,0.0,0.0,0.0,0.0,0.0,0.0,0.0,0.0,0.0,0.0,0.0,0.0,0.0,0.0,0.0,0.0,0.0,0.0,0.0,0.0,0.0,0.0,0.0,0.0,0.0,0.0,0.0,0.0,0.0,0.0,0.0,0.0,0.0,0.0,0.0,0.0,0.0,0.0,0.0,0.0,0.0,0.0,0.0,0.0,0.0,0.0,0.0,0.0,0.0,0.0,0.0,0.0,0.0,0.0,0.0,0.0,0.0,0.0,0.0,0.0,0.0,0.0,0.0,0.0,0.0,0.0,0.0,0.0,0.0,0.0,0.0,0.0,0.0,0.0,0.0,0.0,0.0,0.0,0.0,0.0,0.0,0.0,0.0,0.0,0.0,0.0,0.0,0.0,0.0,0.0,0.0,0.0,0.0,0.0,0.0,0.0,0.0,0.0,0.0,0.0,0.0,0.0,0.0,0.0,0.0,0.0,0.0,0.0,0.0,0.0,0.0,0.0,0.0,0.0,0.0,0.0,0.0,0.0,0.0,0.0,0.0,0.0,0.0,0.0,0.0,0.0,0.0,0.0,0.0,0.0,0.0,0.0,0.0,0.0,0.0,0.0,0.0,0.0,0.0,0.0,0.0,0.0,0.0,0.0,0.0,0.0,0.0,0.0,0.0,0.0,0.0,0.0,0.0,0.0,0.0,0.0,0.0,0.0,0.0,0.0,0.0,0.0,0.0,0.0,0.0,0.0,0.0,0.0,0.0,0.0,0.0,0.0,0.0,0.0,0.0,0.0,0.0,0.0,0.0,0.0,0.0,0.0,0.0,0.0,0.0,0.0,0.0,0.0,0.0,0.0,0.0,0.0,0.0,0.0,0.0,0.0,0.0,0.0,0.0,0.0,0.0,0.0,0.0,0.0,0.0,0.0,0.0,0.0,0.0,0.0,0.0,0.0,0.0,0.0,0.0,0.0,0.0,0.0,0.0,0.0,0.0,0.0,0.0,0.0,0.0,0.0,0.0,0.0,0.0,0.0,0.0,0.0,0.0,0.0,0.0,0.0,0.0,0.0,0.0,0.0,0.0,0.0,0.0,0.0,0.0,0.0,0.0,0.0,0.0,0.0,0.0,0.0,0.0,0.0,0.0,0.0,0.0,0.0,0.0,0.0,0.0,0.0,0.0,0.0,0.0,0.0,0.0,0.0,0.0,0.0,0.0,0.0,0.0,0.0,0.0,0.0,0.0,0.0,0.0,0.0,0.0,0.0,0.0,0.0,0.0,0.0,0.0,0.0,0.0,0.0,0.0,0.0,0.0,0.0,0.0,0.0,0.0,0.0,0.0,0.0,0.0,0.0,0.0,0.0,0.0,0.0,0.0,0.0,0.0,0.0,0.0,0.0,0.0,0.0,0.0,0.0,0.0,0.0,0.0,0.0,0.0,0.0,0.0,0.0,0.0,0.0,0.0,0.0,0.0,0.0,0.0,0.0,0.0,0.0,0.0,0.0,0.0,0.0,0.0,0.0,0.0,0.0,0.0,0.0,0.0,0.0,0.0,0.0,0.0,0.0,0.0,0.0,0.0,0.0,0.0,0.0,0.0,0.0,0.0,0.0,0.0,0.0,0.0,0.0,0.0,0.0,0.0,0.0,0.0,0.0,0.0,0.0,0.0,0.0,1.8949,1.801,0.0,0.0,0.0,0.0,0.0,0.0,0.0,0.0,0.0,0.0,0.0,0.0,0.0,0.0,0.0,0.0,0.0,0.0,0.0,0.0,0.0,0.0,0.0,0.7606,0.7746,0.783,0.7779,0.0,0.0,0.0,0.0,0.0,0.0,0.0,0.0,0.0,0.8903,0.9573,0.9907,1.0589,1.1589,1.1604,1.1079,1.015,0.0,0.0,0.0,0.0,0.0,0.0,0.0,0.0,0.0,0.0,0.0,0.0,0.0,0.0,0.0,0.0,0.0,0.0,0.0,0.0,0.0,0.0,0.0,0.0,0.0,0.0,0.0,0.0,0.0,0.0,0.0,0.0,0.0,0.0,0.0,0.0,0.0,0.0,0.0,0.0,0.0,0.0,0.0,0.0,0.0,0.0,0.0,0.0,0.0,0.0,0.0,0.0,0.0,0.0,0.0,0.0,0.0,0.0,0.0,0.0,0.0,0.0,0.0,0.0,0.0,0.0,0.0,0.0,0.0,0.0,2.0505,1.9381,0.0,0.0,0.0,0.0,0.0,0.0,0.0,0.0,0.0,0.0,0.0,0.0,0.0,0.0,0.0,0.0,0.0,0.0,0.0,0.0,0.0,0.7457,0.7522,0.7661,0.7827,0.8046,0.806,0.8128,0.8233,0.8252,0.0,0.0,0.0,0.0,0.9269,0.9392,0.9789,1.0466,1.1256,1.2292,1.3559,1.423,1.3338,1.1169,1.1433,0.0,0.0,0.0,0.0,0.0,0.0,0.0,0.0,0.0,0.0,0.0,0.0,0.0,0.0,0.0,0.0,0.0,0.0,0.0,0.0,0.0,0.0,0.0,0.0,0.0,0.0,0.0,0.0,0.0,0.0,0.0,0.0,0.0,0.0,0.0,0.0,0.0,0.0,0.0,0.0,0.0,0.0,0.0,0.0,0.0,0.0,0.0,0.0,0.0,0.0,0.0,0.0,0.0,0.0,0.0,0.0,0.0,0.0,0.0,0.0,0.0,0.0,0.0,2.3463,2.374,2.3692,2.4305,2.4546,2.4355,2.1915,2.0805,2.0692,2.0679,0.0,0.0,0.0,0.0,0.0,0.0,0.0,0.0,0.0,0.0,0.0,0.0,0.0,0.0,0.0,0.0,0.0,0.0,0.0,0.7605,0.7668,0.7837,0.815,0.8638,0.8738,0.9014,0.9593,0.9639,0.0,0.0,0.0,0.0,0.9969,1.0534,1.1184,1.1923,1.318,1.4184,1.4947,1.5617,1.574,1.5325,1.3671,1.2896,1.2731,0.0,0.0,0.0,0.0,0.0,0.0,0.0,0.0,0.0,0.0,0.0,0.0,0.0,0.0,0.0,0.0,0.0,0.0,0.0,0.0,0.0,0.0,0.0,0.0,0.0,0.0,0.0,0.0,0.0,0.0,0.0,0.0,0.0,0.0,0.0,0.0,0.0,0.0,0.0,0.0,0.0,1.5446,1.6353,0.0,0.0,0.0,0.0,0.0,0.0,0.0,0.0,0.0,0.0,0.0,0.0,0.0,2.3116,2.3013,2.3787,2.4226,2.4328,2.4367,2.4378,2.4371,2.4472,2.4498,2.4474,2.4092,0.0,2.3044,2.2996,0.0,0.0,0.0,0.0,0.0,0.0,0.0,0.0,0.0,0.0,0.0,0.0,0.0,0.0,0.0,0.0,0.0,0.0,0.0,0.0,0.0,0.8446,0.8767,0.9265,0.9435,0.9602,0.9839,0.991,0.0,0.0,0.0,1.103,1.182,1.2128,1.2984,1.4446,1.5408,1.6232,1.6886,1.7193,1.7316,1.7285,1.64,1.5382,1.4245,1.2927,0.0,0.0,0.0,0.0,0.0,0.0,0.0,0.0,0.0,0.0,0.0,0.0,0.0,0.0,0.0,0.0,0.0,0.0,0.0,0.0,0.0,0.0,0.0,0.0,0.0,0.0,0.0,0.0,0.0,0.0,0.0,0.0,0.0,0.0,0.0,0.0,0.0,0.0,0.0,1.6342,1.7188,1.8372,1.88,1.914,0.0,0.0,0.0,0.0,0.0,0.0,0.0,0.0,0.0,2.3208,2.3782,2.4311,2.472,2.5021,2.5378,2.5784,2.6166,2.6353,2.637,2.6818,2.7029,2.7029,2.7029,2.6615,2.5818,2.4549,2.3674,2.3155,0.0,0.0,0.0,0.0,2.2551,2.253,0.0,0.0,0.0,0.0,0.0,0.0,0.0,0.0,0.0,0.0,0.0,0.0,0.8684,0.9059,0.9462,0.9983,1.0321,1.0554,1.0646,1.0898,1.1306,1.1866,1.1887,1.2456,1.3682,1.4052,1.5046,1.6701,1.7208,1.7807,1.8476,1.8476,1.8568,1.8722,1.8561,1.7561,1.5894,1.4717,1.4134,1.3874,0.0,0.0,0.0,0.0,0.0,0.0,0.0,0.0,0.0,0.0,0.0,0.0,0.0,0.0,0.0,0.0,0.0,0.0,0.0,0.0,0.0,0.0,0.0,0.0,0.0,0.0,0.0,0.0,0.0,0.0,0.0,0.0,0.0,0.0,0.0,0.0,0.0,1.7965,1.8684,2.0106,2.0277,2.0354,0.0,0.0,0.0,0.0,0.0,0.0,2.3833,2.4496,2.4874,2.4859,2.5159,2.5609,2.6159,2.637,2.6742,2.7292,2.8035,2.8382,2.8415,2.9194,2.9568,2.9568,2.9568,2.9211,2.8509,2.6251,2.5268,2.513,2.513,2.513,2.513,2.513,2.5115,2.5066,0.0,0.0,0.0,0.0,0.0,0.0,0.0,0.0,0.0,0.0,0.0,0.8637,0.8861,0.952,1.0215,1.0873,1.1521,1.2192,1.2895,1.3533,1.3946,1.4046,1.4046,1.4375,1.5085,1.6355,1.7362,1.8107,1.8138,1.8538,1.924,1.924,1.9571,2.0172,1.9533,1.88,1.8,1.73,1.6667,1.6021,1.4603,0.0,0.0,0.0,0.0,0.0,0.0,0.0,0.0,0.0,0.0,0.0,0.0,0.0,0.0,0.0,0.0,0.0,0.0,0.0,0.0,0.0,0.0,0.0,0.0,0.0,0.0,0.0,0.0,0.0,0.0,0.0,0.0,0.0,0.0,0.0,0.0,0.0,0.0,2.0894,2.0988,0.0,0.0,0.0,0.0,2.3391,2.4166,2.4586,2.4463,2.5214,2.563,2.5558,2.6911,2.7655,2.7689,2.8459,2.884,2.8891,2.9634,2.998,3.0014,3.0751,3.1099,3.1099,3.1099,3.1065,3.0852,2.8568,2.7224,2.6581,2.6581,2.6581,2.6581,2.6581,2.6581,2.6581,0.0,0.0,0.0,0.7388,0.7514,0.7616,0.7608,0.7495,0.7615,0.8174,0.8449,0.8993,1.0006,1.04,1.1012,1.207,1.2422,1.2896,1.3627,1.4303,1.4912,1.5463,1.5894,1.644,1.7116,1.8061,1.867,1.8908,1.9339,1.9686,1.9934,1.9934,2.0064,2.0289,2.0058,1.9802,1.9478,1.8338,1.7723,1.7446,1.6459,1.5484,0.0,0.0,0.0,0.0,0.0,0.0,0.0,0.0,0.0,0.0,0.0,0.0,0.0,0.0,0.0,0.0,0.0,0.0,0.0,0.0,0.0,0.0,0.0,0.0,0.0,0.0,0.0,0.0,0.0,0.0,0.0,0.0,0.0,0.0,0.0,0.0,0.0,2.2341,2.2529,0.0,2.3674,2.3987,2.4335,2.4819,2.5563,2.6165,2.6598,2.7394,2.7809,2.7782,2.8763,2.9507,2.998,3.0743,3.1362,3.1833,3.2104,3.2212,3.2229,3.251,3.2628,3.2628,3.2628,3.2628,3.256,3.1739,3.07,2.9593,2.9593,2.9313,2.889,2.889,2.8586,2.8172,0.0,0.0,0.0,0.7399,0.7627,0.775,0.7623,0.7556,0.7786,0.8503,0.8797,0.9413,1.0663,1.1262,1.1905,1.2726,1.3301,1.3912,1.4636,1.5325,1.6051,1.684,1.7531,1.8123,1.8561,1.927,1.9641,1.9641,2.0311,2.0635,2.0635,2.0872,2.0965,2.0965,2.0965,2.085,2.0588,1.9646,1.8991,1.853,1.8038,1.7242,1.6262,0.0,0.0,0.0,0.0,0.0,0.0,0.0,0.0,0.0,0.0,0.0,0.0,0.0,0.0,0.0,0.0,0.0,0.0,0.0,0.0,0.0,0.0,0.0,0.0,0.0,0.0,0.0,0.0,0.0,0.0,0.0,0.0,0.0,0.0,2.1343,2.2046,2.3203,2.3568,2.4037,2.4804,2.51,2.5549,2.6294,2.7046,2.7799,2.8534,2.9313,2.9856,3.011,3.0835,3.1451,3.1935,3.2435,3.3044,3.3778,3.4021,3.4275,3.4556,3.4799,3.4917,3.4917,3.4917,3.4917,3.4917,3.4917,3.4343,3.3355,3.2341,3.1637,3.1214,3.1214,3.0903,3.049,0.0,0.0,0.7403,0.7399,0.7511,0.7616,0.7616,0.751,0.7733,0.8528,0.9217,0.995,1.0738,1.2075,1.2874,1.2837,1.4186,1.5317,1.5996,1.6739,1.7494,1.823,1.8947,1.9326,1.9326,1.9996,2.0335,2.0335,2.1004,2.1319,2.135,2.2003,2.2295,2.2295,2.2295,2.1951,2.1319,2.1319,2.0573,1.9364,1.9341,1.846,1.7174,0.0,0.0,0.0,0.0,0.0,0.0,0.0,0.0,0.0,0.0,0.0,0.0,0.0,0.0,0.0,0.0,0.0,0.0,0.0,0.0,0.0,0.0,0.0,0.0,0.0,0.0,0.0,0.0,0.0,0.0,0.0,0.0,0.0,2.1133,2.2101,2.3009,2.3457,2.4084,2.4801,2.5626,2.637,2.7114,2.7858,2.8662,2.9424,3.0166,3.0886,3.1606,3.231,3.3068,3.3463,3.3463,3.3514,3.3897,3.4607,3.5323,3.6079,3.6863,3.7567,3.7893,3.7893,3.7893,3.7893,3.7893,3.7893,3.7893,3.7606,3.4681,3.3541,3.3497,3.3497,3.348,3.3463,0.6883,0.7215,0.7511,0.7415,0.7638,0.7823,0.7823,0.8194,0.8738,0.945,1.0074,1.0748,1.145,1.2291,1.3046,1.3543,1.4858,1.5978,1.6754,1.7907,1.8903,1.9693,1.9926,2.0027,2.0027,2.0681,2.1035,2.1035,2.1704,2.2028,2.2028,2.2203,2.2295,2.2295,2.2295,2.2203,2.2028,2.2028,2.1535,2.0712,2.0219,1.9486,1.8683,0.0,0.0,0.0,0.0,0.0,0.0,0.0,0.0,0.0,0.0,0.0,0.0,0.0,0.0,0.0,0.0,0.0,0.0,0.0,0.0,0.0,0.0,0.0,0.0,0.0,0.0,0.0,0.0,0.0,0.0,0.0,2.2716,2.2858,2.2685,2.3406,2.4397,2.557,2.594,2.6598,2.7935,2.8738,2.9465,3.0209,3.0963,3.1708,3.2449,3.2669,3.2899,3.3085,3.4326,3.5002,3.5002,3.6101,3.6761,3.6975,3.7166,3.7369,3.7601,3.7821,3.7893,3.7893,3.7893,3.7893,3.7893,3.7893,3.7893,3.7809,3.698,3.6332,3.587,3.587,3.5504,3.5087,0.6998,0.729,0.7552,0.7422,0.7679,0.7899,0.7899,0.8233,0.8818,0.9775,1.0219,1.0763,1.17,1.2648,1.3404,1.386,1.5405,1.6696,1.7463,1.8826,1.9812,2.028,2.0296,2.0436,2.0749,2.1142,2.1509,2.1839,2.2521,2.2836,2.2852,2.3097,2.3217,2.3217,2.3152,2.2978,2.2726,2.2726,2.2326,2.1658,2.0989,2.032,1.971,1.9594,1.9082,1.8392,1.8184,1.7645,1.6946,1.6469,0.0,0.0,0.0,0.0,0.0,0.0,0.0,0.0,0.0,0.0,0.0,0.0,0.0,0.0,0.0,0.0,0.0,0.0,0.0,0.0,0.0,0.0,0.0,0.0,2.4165,2.4687,2.4671,2.5089,2.5805,2.6961,2.7714,2.8611,2.9796,3.0591,3.1326,3.207,3.252,3.322,3.4275,3.4326,3.4613,3.5256,3.6118,3.6558,3.6558,3.7194,3.7794,3.8362,3.8097,3.829,3.8819,3.8819,3.8819,3.8819,3.8819,3.8819,3.8819,3.8819,3.8819,3.8751,0.0,0.0,0.0,0.0,3.6958,3.6625,0.7171,0.7388,0.7589,0.7426,0.7679,0.7899,0.7899,0.7959,0.8465,0.973,0.9965,1.0458,1.167,1.2996,1.3826,1.3896,1.587,1.7456,1.8297,1.9567,2.0296,2.0296,2.0296,2.0639,2.1374,2.1452,2.1894,2.2696,2.3363,2.3706,2.3715,2.4254,2.4508,2.4488,2.438,2.3999,2.3445,2.3445,2.3054,2.2395,2.1793,2.1099,2.0421,2.0344,1.9842,1.9214,1.9517,1.9107,1.8354,1.784,0.0,0.0,0.0,0.0,0.0,0.0,0.0,0.0,0.0,0.0,0.0,0.0,0.0,0.0,0.0,0.0,0.0,0.0,0.0,0.0,0.0,0.0,0.0,0.0,2.5478,2.673,2.7051,2.7155,2.7452,2.8111,2.9388,3.0538,3.1369,3.2114,3.2841,3.3582,3.3734,3.4393,3.5797,3.5853,0.0,0.0,0.0,3.7988,3.7911,3.7544,3.7907,3.902,3.8554,3.8953,4.0096,4.0096,4.0096,4.0096,4.0096,4.0096,4.0096,4.0096,4.0096,3.9977,3.865,3.8147,3.8147,3.8147,3.8147,3.8147,0.7199,0.7495,0.7746,0.7449,0.7679,0.7899,0.7899,0.8357,0.9002,0.9789,1.0314,1.0927,1.1715,1.2996,1.3845,1.3967,1.6331,1.8395,1.9776,2.0133,2.0296,2.0296,2.0296,2.0628,2.13,2.1846,2.252,2.3338,2.4011,2.4342,2.4412,2.4532,2.4544,2.4498,2.4467,2.439,2.4266,2.4266,2.3914,2.334,2.3215,2.2369,2.1127,2.0598,2.0321,2.0224,2.0283,1.9855,1.9256,1.9202,1.8841,1.8377,1.8138,1.8151,0.0,0.0,0.0,0.0,0.0,0.0,0.0,0.0,0.0,0.0,0.0,0.0,0.0,0.0,0.0,0.0,0.0,0.0,0.0,2.572,2.677,2.8103,2.9902,3.0244,3.0378,3.0531,3.0801,3.1512,3.2848,3.3643,3.437,3.512,3.5774,3.653,3.7403,3.7454,3.7589,3.7877,3.8481,3.8554,3.8068,3.9026,3.9382,3.9166,3.9546,0.0,4.0096,4.0096,4.0096,4.0096,4.0096,4.0096,4.0096,4.0096,4.0096,4.0079,3.9779,3.966,3.966,3.966,3.966,3.966,0.7337,0.7608,0.7786,0.7457,0.7679,0.7899,0.7899,0.8188,0.8642,0.9308,0.9954,1.0583,1.1226,1.2796,1.3983,1.4408,1.6954,1.9022,2.0132,2.0261,2.0296,2.0296,2.0296,2.08,2.188,2.2235,2.2939,2.4041,2.4449,2.4671,2.4696,2.4696,2.4676,2.4651,2.4574,2.4539,2.4498,2.4498,2.4327,2.401,2.3693,2.3172,2.2486,2.1404,2.0796,2.051,2.0585,2.0383,2.011,2.0184,1.998,1.9641,1.9349,1.9307,1.925,0.0,0.0,0.0,0.0,0.0,0.0,0.0,0.0,0.0,0.0,0.0,0.0,0.0,0.0,2.3106,2.3731,0.0,2.5929,2.6946,2.8339,2.9705,3.0847,3.1722,3.2262,3.2307,3.2628,3.3288,3.4393,3.5199,3.596,3.671,3.7127,3.7669,3.8413,3.8447,3.8494,3.8543,3.8911,3.8963,3.8642,3.8725,3.8906,3.9206,3.9202,3.9362,3.967,3.9969,4.0096,4.0096,4.0096,4.0096,4.0096,4.0096,4.0096,4.0096,4.0096,4.0096,4.0096,4.0096,4.0096,4.0096,0.7465,0.7642,0.7746,0.7449,0.765,0.786,0.7892,0.7899,0.8143,0.8815,0.9372,0.998,1.0728,1.2424,1.4029,1.5275,1.7531,1.9259,2.0046,2.022,2.0296,2.0296,2.0296,2.0925,2.2236,2.239,2.3105,2.4407,2.4643,2.4792,2.4842,2.4842,2.4822,2.4802,2.4696,2.4605,2.4559,2.4529,2.4559,2.4553,2.3989,2.3698,2.35,2.2314,2.1384,2.0757,2.0724,2.0726,2.0727,2.0778,2.0802,2.0691,2.0098,1.9917,1.9751,1.8881,1.8687,0.0,0.0,0.0,0.0,0.0,0.0,0.0,0.0,2.1471,2.2044,2.2563,2.3488,2.4393,2.5058,2.6185,2.7324,2.8223,2.9925,3.1264,3.1614,3.2656,3.3497,3.3842,3.4373,3.5013,3.5763,3.6552,3.7325,3.8058,3.8113,3.8447,3.9169,3.9092,3.9092,3.9202,3.9082,3.8974,3.8851,3.7998,3.8069,3.9014,3.8657,3.8794,3.9391,3.9876,4.0096,4.0096,4.0096,4.0096,4.0096,4.0096,4.0096,4.0096,4.0096,4.0096,4.0096,4.0096,4.0096,4.01,0.7465,0.7522,0.7589,0.7426,0.7526,0.7694,0.7874,0.7899,0.8143,0.8815,0.8965,0.9473,1.0668,1.1805,1.3721,1.6855,1.7799,1.8755,2.0024,2.022,2.0296,2.0296,2.0296,2.0659,2.1423,2.2015,2.2771,2.3715,2.4323,2.4746,2.4976,2.4976,2.4906,2.4802,2.4782,2.4772,2.4762,2.4645,2.4736,2.4926,2.4718,2.3988,2.2975,2.2824,2.23,2.158,2.0999,2.0786,2.0786,2.0794,2.0802,2.0745,2.0434,2.0327,2.0311,2.0192,1.9916,1.9702,1.9924,1.9969,2.0225,2.1199,2.1455,2.1863,0.0,2.3423,2.3282,2.3298,2.4693,2.5827,2.5505,2.7539,2.9486,3.0248,3.128,3.2446,3.383,3.3801,3.4139,3.5458,3.5533,3.578,3.6581,3.733,3.8075,3.8819,3.8882,3.9203,3.9943,3.9458,3.9176,3.9206,3.8684,3.8139,3.7608,3.7996,3.828,3.8407,3.8879,3.9418,4.0007,4.0058,4.0096,4.0096,4.0096,4.0096,4.0096,4.0096,4.0096,4.0096,4.0096,4.0096,4.0096,4.0096,4.0096,4.007,0.729,0.7364,0.7465,0.7407,0.7507,0.7635,0.7713,0.783,0.8008,0.8282,0.8661,0.9257,1.0174,1.2357,1.441,1.6086,1.7344,1.8445,1.9404,1.9626,1.9888,2.028,2.0296,2.0604,2.1288,2.1565,2.2096,2.2836,2.3625,2.4062,2.4137,2.4654,2.4806,2.4696,2.4772,2.4732,2.463,2.4701,2.4511,2.42,2.42,2.3696,2.2866,2.2462,2.2009,2.15,2.0973,2.0802,0.0,2.0628,2.0562,2.0512,2.0246,2.0194,2.0204,2.0094,2.0209,2.054,2.1279,2.1538,2.182,2.2684,2.2582,2.251,2.345,2.3802,2.4094,2.4535,2.5737,2.6888,2.739,2.8837,3.0205,3.098,3.2165,3.3212,3.389,3.4258,3.4697,3.5288,3.6365,3.7181,3.7511,3.8158,3.8853,3.9576,3.9307,3.9261,3.9562,3.9014,3.8535,3.8169,3.7911,3.7666,3.7402,3.7297,3.7431,3.7781,3.8026,3.8463,3.9065,3.9418,3.976,4.0096,4.0096,4.0096,4.0096,4.0096,4.0096,4.0083,4.0011,4.0243,4.0568,4.0142,3.9986,3.9961,0.7239,0.7255,0.7318,0.7318,0.7442,0.7568,0.7672,0.7757,0.7841,0.7892,0.8266,0.8901,0.9834,1.2284,1.4245,1.519,1.6531,1.7718,1.8637,1.908,1.951,1.9945,2.0171,2.0527,2.1011,2.1205,2.1553,2.205,2.2888,2.3277,2.327,2.3889,2.4143,2.4058,2.4153,2.4104,2.4,2.4123,2.3891,2.3373,2.3373,2.307,2.2557,2.1979,2.15,2.1086,2.0817,2.067,2.0571,2.0434,2.0375,2.0316,2.0037,2.0112,2.0251,2.0056,2.0627,2.1469,2.2185,2.2652,2.305,2.3618,2.3558,2.3499,2.3983,2.4571,2.5145,2.5606,2.6581,2.7646,2.8629,2.961,3.0598,3.1624,3.2707,3.3561,3.4006,3.4484,3.4927,3.5316,3.6699,3.77,3.7883,3.8609,3.9282,3.9817,3.9282,3.8947,3.8947,3.8379,3.7854,3.7417,3.7238,3.7148,3.7148,3.6723,3.68,3.7402,3.7402,3.7796,3.8574,3.9176,3.9761,4.0303,4.0379,4.0498,4.0658,4.0658,4.0658,4.0632,4.0507,4.0777,4.1184,4.0607,4.0432,4.0428,0.7415,0.7239,0.7107,0.7107,0.7274,0.7511,0.7845,0.7728,0.7679,0.7874,0.7742,0.8238,0.9826,1.0896,1.2419,1.4723,1.5374,1.6323,1.783,1.8795,1.9253,1.9145,1.989,2.0311,2.0335,2.0974,2.1333,2.1439,2.217,2.2568,2.2627,2.2642,2.2667,2.2658,2.2667,2.2658,2.2658,2.2658,2.2732,2.2806,2.2468,2.2182,2.189,2.1555,2.1007,2.0441,2.0485,2.0349,2.0135,2.0254,2.0304,2.0237,1.9909,2.0255,2.0751,2.0532,2.1516,2.258,2.2367,2.3023,2.3774,2.3866,2.4617,2.5394,2.5753,2.6335,2.6693,2.6266,2.7137,2.8097,2.8521,2.9604,3.0918,3.2506,3.2841,3.3396,3.4768,3.4526,3.4717,3.6108,3.6371,3.6715,3.7366,3.8502,3.9199,3.9232,3.8671,3.8337,3.8337,3.7752,3.7432,3.7402,3.6831,3.6538,3.6538,3.6507,3.68,3.7402,3.7402,3.8012,3.9192,3.9799,4.0336,4.0789,4.1053,4.1497,4.2038,4.2038,4.2038,4.2024,4.1892,4.1854,4.1843,4.1691,4.1716,4.1826,0.7235,0.7147,0.7099,0.7099,0.7341,0.7564,0.7687,0.7646,0.7676,0.7874,0.8229,0.0,0.0,0.0,0.0,0.0,1.3464,1.4852,1.6211,1.6893,1.78,1.9045,1.9444,1.9833,2.0289,2.0527,2.0652,2.0663,2.1136,2.1361,2.1348,2.161,2.1679,2.1605,2.1699,2.1679,2.1625,2.1894,2.1713,2.1286,2.1389,2.1118,2.0624,2.0511,2.0184,1.9827,0.0,2.0021,2.0083,2.0004,1.9962,2.0,2.0152,2.0379,2.0869,2.2167,2.2915,2.3522,2.4595,2.4837,2.4968,2.5717,2.5905,2.5965,2.6069,2.6404,2.6737,2.6903,2.7849,2.8896,2.9651,3.0774,3.187,3.2732,3.2996,3.3388,3.4222,3.4379,3.4691,3.5487,3.6446,3.7148,3.7371,3.8141,3.8601,3.8601,3.8039,3.7694,3.7694,3.7133,3.68,3.68,3.6616,3.6507,3.6507,3.6507,3.66,3.6816,3.7664,3.8439,3.9153,3.9758,4.0121,4.0279,4.0277,4.0641,4.1248,4.1248,4.1535,4.1959,4.1824,4.2038,4.2408,4.2285,4.2572,4.2866,0.0,0.7111,0.7042,0.7091,0.7337,0.0,0.0,0.0,0.0,0.0,0.0,0.0,0.0,0.0,0.0,0.0,0.0,1.3224,1.4563,1.5442,1.6457,1.7692,1.8627,1.9312,1.974,1.9982,2.0096,2.0096,2.0158,2.0172,2.0121,2.0386,2.0474,2.039,2.0474,2.0465,2.04,2.0695,2.0806,2.0783,2.0477,2.049,2.0622,2.0047,1.9699,0.0,1.9648,1.9756,1.9842,1.9756,1.9732,1.9852,2.036,2.101,2.1868,2.3199,2.4103,2.4848,2.566,2.592,2.6079,2.6529,2.6603,2.6524,2.6378,2.6705,2.7103,2.7426,2.8289,2.9269,3.0165,3.1165,3.2037,3.2631,3.3027,3.3478,3.4087,3.4573,3.5061,3.56,3.649,3.7089,3.7089,3.7431,3.7752,3.7953,3.7416,3.7089,3.7089,3.6708,3.6507,3.6507,3.6507,3.6507,3.6507,3.6738,3.6937,3.712,3.8075,3.8686,3.8949,3.961,4.0015,4.0162,4.0439,4.0917,4.1553,4.1791,4.2189,4.2609,4.2439,4.2648,4.3016,4.2914,4.3184,4.3449,0.0,0.0,0.6944,0.0,0.0,0.0,0.0,0.0,0.0,0.0,0.0,0.0,0.0,0.0,0.0,0.0,0.0,0.0,1.2947,1.4421,1.5264,1.53,1.7437,1.8657,1.8717,1.9288,1.9576,1.9576,1.9205,1.9015,1.9029,1.903,1.9035,1.9035,1.9035,1.9035,1.9045,1.9119,1.9957,2.1123,1.9742,2.0196,2.1546,2.0016,1.9425,1.9458,1.9576,1.9539,1.9413,1.9547,1.9686,1.9917,2.0539,2.2099,2.3676,2.3695,2.5046,2.6381,2.5618,2.627,2.703,2.6416,2.6754,2.7111,2.6753,2.7252,2.7803,2.7803,2.8447,2.924,3.0007,3.0721,3.1464,3.223,3.2906,3.3614,3.4382,3.5044,3.5706,3.6399,3.6492,3.6507,3.6507,3.6507,3.6739,3.7313,3.6815,3.6507,3.6507,3.6507,3.6507,3.6507,3.6522,3.6538,3.6538,3.7215,3.7763,3.8226,3.8609,3.8755,3.867,3.9456,3.9992,4.0417,4.1362,4.212,4.2739,4.3447,4.3763,4.3807,4.3628,4.3583,4.3598,4.3598,4.3598,4.3598,0.0,0.0,0.0,0.0,0.0,0.0,0.0,0.0,0.0,0.0,0.0,0.0,0.0,0.0,0.0,0.0,0.0,0.0,1.2044,1.2774,1.3795,1.5234,1.5872,1.6661,1.7659,1.7834,1.7907,1.7907,1.7964,1.7973,1.7987,1.8143,1.8208,1.8208,1.8208,1.8208,1.8218,1.8382,1.875,1.9226,1.8989,1.8995,1.9095,1.8686,1.8533,1.8542,1.8569,1.8925,1.9404,1.9446,2.0298,2.1331,2.1312,2.2834,2.4707,2.5002,2.5438,2.6027,2.679,2.6886,2.6829,2.7173,2.7368,2.7504,2.7482,2.7657,2.7828,2.793,2.8599,2.9203,2.9409,3.0479,3.1417,3.1626,3.2227,3.3017,3.4129,3.4555,3.5138,3.6151,3.6414,3.6507,3.6507,3.6507,3.6569,3.6723,3.66,3.6507,3.6507,3.6507,3.6507,3.6507,3.6984,3.7246,3.7246,3.7763,3.8205,3.8568,3.8825,3.9118,3.9417,3.9627,3.9788,3.9886,3.9992,4.0447,4.111,4.1294,4.1997,4.2928,4.2881,4.3159,4.3598,4.3598,4.3598,4.3598,0.0,0.0,0.0,0.0,0.0,0.0,0.0,0.0,0.0,0.0,0.0,0.0,0.0,0.0,0.0,0.0,0.0,0.0,0.0,1.1349,1.2254,1.3565,1.4342,1.5215,1.6213,1.6506,1.6778,1.7035,1.6968,1.6941,1.6946,1.706,1.7109,1.7109,1.7109,1.7143,1.7206,1.7321,1.7855,0.0,0.0,1.8217,1.8526,1.7975,1.7757,1.7801,1.8091,1.8657,1.9284,1.9339,2.0388,2.1665,2.154,2.3009,2.4841,2.5087,2.5573,2.6198,2.6958,2.7106,2.7136,2.751,2.76,2.7638,2.7778,2.784,2.793,2.8066,2.8736,2.9283,2.9283,3.045,3.1395,3.1395,3.2211,3.3077,3.3759,3.4477,3.5184,3.5815,3.626,3.6507,3.6507,3.6507,3.6507,3.6507,3.6507,3.646,3.6367,3.6367,3.6505,3.6797,3.7116,3.7557,3.8138,3.8338,3.8667,3.9139,3.9171,3.9314,3.9571,3.9571,3.9571,3.9589,3.9788,4.0111,4.0547,4.1176,4.19,4.2632,4.2928,4.3265,4.3598,4.3598,4.3598,4.3598,0.0,0.0,0.0,0.0,0.0,0.0,0.0,0.0,0.0,0.0,0.7438,0.7518,0.7487,0.751,0.0,0.0,0.0,0.0,0.0,0.0,1.0726,1.1374,1.2789,1.3869,1.4568,1.5085,1.5623,1.6134,1.5865,1.5775,1.5865,1.5946,1.601,1.6041,1.6041,1.6091,1.6172,1.6226,1.7102,1.8361,1.732,1.7633,1.8584,0.0,1.7061,1.7162,1.7952,1.863,1.9148,1.9293,2.0278,2.1449,2.147,2.2848,2.4462,2.4672,2.5558,2.6509,2.6689,2.7165,2.76,2.76,2.76,2.7638,2.779,2.7918,2.8042,2.8201,2.8707,2.9169,2.9245,3.0212,3.1056,3.1241,3.2321,3.3198,3.3367,3.4536,3.5399,3.5491,3.6091,3.6507,3.6507,3.6507,3.6492,3.646,3.646,3.6383,3.6211,3.6287,3.6685,3.7449,3.7346,3.7852,3.9079,3.8925,3.9106,3.9661,3.9481,3.9406,3.9406,3.9406,3.9406,3.9442,4.0091,4.0339,4.0461,4.1787,4.2364,4.2506,4.3204,4.3507,4.3598,4.3598,4.3598,4.3598,0.0,0.0,0.0,0.0,0.0,0.0,0.0,0.0,0.0,0.0,0.8269,0.8141,0.0,0.0,0.0,0.0,0.0,0.0,0.0,0.0,0.0,1.0786,1.1059,1.1728,1.2894,1.3017,1.3119,1.3236,1.3658,1.4116,1.4626,1.5123,1.5497,1.5766,1.5766,1.5655,1.5496,1.5827,1.6236,1.6664,1.6828,1.682,1.6683,1.6451,1.6379,0.0,1.7959,1.8796,1.9293,1.9483,2.0483,2.1625,2.1465,2.2642,2.4258,2.5167,2.5588,2.6019,2.7136,2.751,2.76,2.76,2.76,2.7663,2.7918,2.798,2.8066,2.8311,2.8045,2.7919,2.8461,2.8765,2.9276,3.0399,3.1228,3.2121,3.3244,3.4136,3.489,3.5429,3.6091,3.6507,3.6507,3.6507,3.643,3.6258,3.6258,3.6242,3.6196,3.6731,3.7602,3.8808,3.8715,3.8938,3.9569,3.9533,3.9505,3.9445,3.9424,3.9406,3.9406,3.9406,3.9406,3.9406,3.9535,3.9589,3.9646,4.0512,4.1177,4.1754,4.2491,4.3096,4.3598,4.3598,4.3598,4.3598,0.0,0.0,0.0,0.0,0.0,0.0,0.0,0.8443,0.8612,0.8602,0.9026,0.9074,0.8388,0.8521,0.8522,0.0,0.0,0.0,0.0,0.0,0.0,0.9663,1.0014,1.0623,1.154,1.1872,1.2183,1.2494,0.0,1.3078,1.3362,1.3655,1.3821,1.3881,1.3881,1.3799,1.3654,1.3912,1.4122,1.4298,1.4564,1.4521,1.4357,1.4644,1.5127,0.0,1.7392,1.8177,1.8614,1.9282,2.0208,2.1108,2.1371,2.2505,2.3981,2.5237,2.5603,2.5899,2.724,2.76,2.76,2.76,2.76,2.7663,2.7943,2.7734,2.7564,2.7813,2.7349,2.6976,2.7288,2.7642,2.8211,2.9199,3.0199,3.1228,3.2213,3.3582,3.4628,3.4951,3.5876,3.6507,3.6507,3.6507,3.6414,3.6227,3.6132,3.6053,3.5943,3.6913,3.7864,3.8748,3.9173,3.9415,3.9553,3.9535,3.9499,3.9406,3.9406,3.9406,3.9406,3.9406,3.9406,3.9406,3.9406,3.9406,3.9481,4.0566,4.121,4.1607,4.2695,4.3327,4.3598,4.3598,4.3598,4.3598,0.0,0.0,0.0,0.0,0.0,0.0,0.0,0.8871,0.9166,0.8982,0.9695,0.9898,0.9052,0.9089,0.8858,0.0,0.0,0.0,0.0,0.0,0.0,0.0,0.0,0.0,1.0489,0.0,0.0,1.2102,1.2102,0.0,0.0,0.0,0.0,0.0,1.2102,1.2045,1.1911,1.2112,1.2276,0.0,0.0,1.2657,1.2656,0.0,0.0,0.0,0.0,1.7537,1.7996,1.9086,1.9938,2.0658,2.1332,2.2364,2.3602,2.4982,2.5483,2.5869,2.7048,2.748,2.76,2.76,2.76,2.7633,2.7748,2.7385,2.7032,2.7164,2.6637,2.6206,2.6376,2.6688,2.7272,2.823,2.9292,3.0307,3.1272,3.292,3.4166,3.4459,3.5552,3.6338,3.6492,3.646,3.6352,3.6179,3.5989,3.5951,3.6126,3.7101,3.7949,3.8657,3.9304,3.9553,3.9406,3.9406,3.9406,3.9406,3.9406,3.9406,3.9406,3.9406,3.9406,3.9406,3.9406,3.9481,3.9735,4.0976,4.1591,4.1852,4.3096,4.3598,4.3598,4.3598,4.3598,4.3598,0.0,0.0,0.0,0.0,0.0,0.0,0.0,0.9569,1.0026,1.0133,1.0238,1.0245,1.015,1.0108,0.9756,0.0,0.0,0.0,0.0,0.0,0.0,0.0,0.0,0.0,0.0,0.0,0.0,1.0875,1.0875,0.0,0.0,0.0,0.0,0.0,0.0,1.163,1.1313,1.1687,0.0,0.0,0.0,0.0,0.0,0.0,0.0,0.0,0.0,1.7395,1.8076,1.9271,2.0111,2.0808,2.1465,2.2188,2.3037,2.4306,2.5113,2.5752,2.6494,2.7151,2.76,2.76,2.76,2.7513,2.7173,2.704,2.691,2.6565,2.5918,2.5599,2.6283,2.5903,2.6138,2.8088,2.8492,2.9243,3.1133,3.2088,3.3074,3.4351,3.5137,3.583,3.6446,3.6336,3.6164,3.6037,3.5717,3.6128,3.7449,3.7462,3.809,3.9528,3.9487,3.9424,3.9406,3.9406,3.9406,3.9406,3.9406,3.9406,3.9406,3.9406,3.9406,3.9406,3.9406,3.9788,4.0461,4.1209,4.1884,4.257,4.331,4.3598,4.3598,4.3598,4.3598,4.3598,0.0,0.0,0.0,0.0,0.0,0.0,0.9092,0.9881,1.0416,1.0311,1.0443,1.0541,1.0541,1.0517,1.0037,0.886,0.0,0.0,0.0,0.0,0.0,0.0,0.0,0.0,0.0,0.0,1.0098,1.0693,1.0584,0.0,0.0,0.0,0.0,0.0,0.0,1.053,1.0413,1.0503,0.0,0.0,0.0,0.0,0.0,0.0,0.0,0.0,0.0,0.0,1.7322,1.9102,1.9878,2.0288,2.1365,2.1874,2.2438,2.4111,2.5068,2.5737,2.642,2.6794,2.6988,2.6988,2.7065,2.6998,2.6512,2.5804,2.5223,2.5152,2.4256,2.3579,2.3881,2.401,2.4502,2.5722,2.698,2.8365,2.9966,3.1474,3.292,3.4335,3.5091,3.5722,3.6275,3.6258,3.6085,3.5847,3.562,3.6091,3.7462,3.7454,3.8053,3.9472,3.9427,3.9406,3.9406,3.9406,3.9406,3.9406,3.9406,3.9406,3.9406,3.9406,3.9406,3.9406,3.9406,3.9571,3.9932,4.1026,4.1673,4.2045,4.3157,4.3598,4.3598,4.3598,4.3598,4.3598,0.0,0.0,0.0,0.0,0.0,0.9332,0.9125,1.0082,1.0687,1.0349,1.0461,1.0584,1.0584,1.0584,1.0057,0.8712,0.8599,0.0,0.0,0.0,0.0,0.0,0.0,0.0,0.0,0.0,1.001,1.0615,1.0405,1.0274,0.0,0.0,1.004,0.9912,0.0,0.0,0.0,0.0,0.0,0.0,0.0,0.0,0.0,0.0,0.0,0.0,0.0,0.0,0.0,0.0,0.0,1.9902,2.1036,2.169,2.2303,2.3853,2.4769,2.5408,2.5884,2.6153,2.6303,2.6303,2.6414,2.6307,2.5584,2.4737,2.4034,2.3764,2.2963,2.2295,2.2295,2.285,2.3517,2.4184,2.5861,2.7626,2.9184,3.0784,3.2488,3.4289,3.4921,3.5477,3.6135,3.6101,3.5942,3.5654,3.5539,3.6073,3.7345,3.7387,3.8,3.9361,3.9406,3.9406,3.9406,3.9406,3.9406,3.9406,3.9406,3.9406,3.9406,3.9406,3.9406,3.9406,3.9406,3.9628,4.0093,4.1093,4.1754,4.2221,4.3219,4.3598,4.3598,4.3598,4.3598,4.3598,0.0,0.0,0.0,0.0,0.0,0.0,0.9187,1.0241,1.0897,1.0368,1.0293,1.0293,1.0293,1.0293,0.9843,0.8704,0.8599,0.0,0.0,0.0,0.0,0.0,0.0,0.0,0.0,0.0,0.98,1.0399,1.0198,1.0002,0.9809,1.0008,0.9893,0.9517,0.0,0.0,0.0,0.0,0.0,0.0,0.0,0.0,0.0,0.0,0.0,0.0,0.0,0.0,0.0,0.0,0.0,0.0,0.0,2.162,2.2808,2.343,2.4092,2.4608,2.4623,2.5109,2.5603,2.5603,2.5711,2.5496,2.4293,2.4061,2.3759,2.2569,2.2311,2.2295,2.2295,2.285,2.3517,2.4184,2.543,2.7034,2.9107,2.9999,3.143,3.4181,3.4505,3.4969,3.6089,3.5895,3.5638,3.5504,3.5504,3.6073,3.7345,3.7387,3.8,3.9361,3.9406,3.9406,3.9406,3.9406,3.9406,3.9406,3.9406,3.9406,3.9406,3.9406,3.9406,3.9406,3.9406,4.0198,4.1476,4.1492,4.2317,4.3583,4.3598,4.3598,4.3598,4.3598,4.3598,4.3598,0.0,0.0,0.0,0.0,0.0,0.0,0.0,1.0015,1.0693,1.0349,1.0293,1.0293,1.0293,1.0293,0.9837,0.8704,0.8599,0.0,0.0,0.0,0.0,0.0,0.0,0.0,0.0,0.9245,0.9972,1.0952,1.0613,1.0596,1.0891,1.0811,1.0795,1.0802,1.0714,1.06,0.0,0.0,0.0,0.0,0.0,0.0,1.0822,0.0,0.0,0.0,0.0,0.0,0.0,0.0,0.0,0.0,0.0,0.0,0.0,2.2705,2.3853,2.4766,2.4851,2.5036,2.5187,2.5187,2.5265,2.4978,2.3671,2.3116,2.2632,2.1787,2.1242,2.0934,2.0934,2.1858,2.2696,2.2911,2.483,2.6865,2.8492,2.9692,3.1374,3.3975,3.4912,3.5456,3.5818,3.5686,3.5554,3.5504,3.5504,3.6073,3.7345,3.7387,3.8,3.9361,3.9406,3.9406,3.9406,3.9406,3.9406,3.9406,3.9406,3.9406,3.9406,3.9406,3.9406,3.9406,3.9406,3.9646,4.0146,4.1093,4.1754,4.2269,4.3219,4.3598,4.3598,4.3598,4.3598,4.3598,0.0,0.0,0.0,0.0,0.0,0.0,0.0,0.9769,1.0352,1.0311,1.0293,1.0293,1.0293,1.0129,0.962,0.8683,0.8391,0.0,0.0,0.0,0.0,0.0,0.0,0.0,0.8876,0.9636,1.0347,1.0969,1.0848,1.0959,1.1275,1.1156,1.1164,1.1275,1.1156,1.1038,0.0,0.0,0.0,0.0,0.0,0.0,1.0834,0.0,0.0,0.0,0.0,0.0,0.0,0.0,0.0,0.0,0.0,0.0,0.0,0.0,2.2837,2.3807,2.4446,2.4594,2.4557,2.4615,2.4687,2.4472,2.3346,2.2685,2.2111,2.1442,2.0773,2.0381,2.0635,2.1565,2.2465,2.2963,2.4902,2.6907,2.8538,2.9669,3.1265,3.3814,3.5061,3.5704,3.5704,3.5588,3.5504,3.5504,3.5504,3.6073,3.7345,3.7387,3.8,3.9361,3.9406,3.9406,3.9406,3.9406,3.9406,3.9406,3.9406,3.9406,3.9406,3.9406,3.9406,3.9406,3.9406,3.9571,0.0,4.0668,4.1293,4.1819,4.2741,4.3159,4.3235,4.3355,4.3342,4.3235,0.0,0.0,0.0,0.0,0.0,0.0,0.0,0.9424,0.9853,1.0135,1.0182,1.0182,1.0182,0.9736,0.9199,0.8592,0.0,0.0,0.0,0.0,0.0,0.0,0.0,0.0,0.925,1.034,1.0843,1.0712,1.1049,1.1231,1.1275,1.1275,1.1275,1.1275,1.1227,1.1221,1.1204,0.0,0.0,0.0,1.0285,1.0466,0.0,0.0,0.0,0.0,0.0,0.0,0.0,0.0,0.0,0.0,0.0,0.0,0.0,0.0,0.0,0.0,0.0,2.3823,2.38,2.3978,2.4114,2.4029,2.3279,2.2726,0.0,2.1504,2.0881,2.0635,2.1257,2.191,2.2794,2.4087,2.5472,2.7103,2.9095,3.0009,3.1345,3.3772,3.5028,3.5688,3.5688,3.5572,3.5504,3.5504,3.5533,3.6118,3.7345,3.7464,3.806,3.9361,3.9406,3.9406,3.9406,3.9406,3.9406,3.9406,3.9406,3.9406,3.9406,3.9406,3.9388,3.9388,3.9388,3.977,4.0391,4.0235,4.0888,4.1981,4.219,4.238,4.2585,4.2928,4.2866,4.2648,0.0,0.0,0.0,0.0,0.0,0.0,0.0,0.0,0.0,0.0,0.9003,0.9003,0.9003,0.8884,0.8571,0.0,0.0,0.0,0.0,0.0,0.0,0.0,0.0,0.0,0.986,1.0551,1.1195,1.1817,1.2162,1.2532,1.2938,1.2938,1.2938,1.2926,1.2508,1.2025,1.1475,1.086,0.0,0.0,1.0367,1.0466,0.0,0.0,0.0,0.0,1.4883,1.6017,0.0,0.0,0.0,0.0,0.0,0.0,0.0,0.0,2.0954,2.1278,2.234,0.0,2.3478,2.4076,2.4255,2.4092,0.0,2.3159,2.2871,2.2203,2.1951,2.1889,2.2043,2.2619,2.3332,2.4179,2.5472,2.7065,2.898,3.1341,3.329,3.4407,3.5124,3.5554,3.5554,3.5521,3.5504,3.5504,3.5968,3.6596,3.736,3.7883,3.8542,3.9376,3.9406,3.9406,3.9406,3.9406,3.9406,3.9406,3.9406,3.9406,3.9406,3.9406,3.9319,3.9159,3.9159,3.9268,3.9469,3.9831,4.0237,4.0735,4.1575,4.1949,4.2045,4.2539,4.2664,4.2617,0.0,0.0,0.0,0.0,0.0,0.0,0.0,0.0,0.0,0.0,0.0,0.8599,0.8599,0.8352,0.0,0.0,0.0,0.0,0.0,0.0,0.0,0.0,0.0,0.9513,1.0317,1.1339,1.2046,1.2424,1.3092,1.3577,1.3877,1.3877,1.3877,1.3843,1.3312,1.2438,1.1349,1.1045,1.0703,1.0361,1.0192,0.0,0.0,0.0,0.0,0.0,1.4519,1.5691,0.0,1.7249,1.8023,1.8822,0.0,0.0,0.0,0.0,2.0354,2.0493,2.1435,2.2173,2.2881,2.3641,2.384,2.3825,2.3779,2.3517,2.3194,2.2825,2.2511,2.2388,2.2696,2.3262,2.401,2.505,2.6309,2.789,3.0037,3.2335,3.4,3.4538,3.5133,3.5504,3.5504,3.5504,3.5504,3.5504,3.6118,3.6746,3.7375,3.8033,3.8706,3.9376,3.9406,3.9406,3.9406,3.9406,3.9406,3.9406,3.9301,3.9301,3.9388,3.921,3.9123,3.9086,3.8998,3.8962,3.898,3.9184,3.9475,3.99,4.0552,4.0859,4.0977,4.1426,4.1672,4.1802,0.0,0.0,0.0,0.0,0.0,0.0,0.0,0.0,0.0,0.0,0.0,0.0,0.0,0.0,0.0,0.0,0.0,0.0,0.0,0.0,0.0,0.0,0.9495,1.0254,1.0762,1.2283,1.2996,1.2821,1.3949,1.447,1.441,1.441,1.4325,1.4154,1.3698,1.2661,1.1238,1.1285,1.0872,1.0155,0.9976,0.0,0.0,0.0,0.0,0.0,0.0,0.0,0.0,1.7089,1.784,1.8679,1.9459,0.0,0.0,0.0,0.0,0.0,2.0704,2.1417,2.2133,2.2929,2.3205,2.3436,2.4005,2.3784,2.3456,2.3456,2.3086,2.2932,2.3472,2.4055,2.4912,2.637,2.7728,2.9366,3.1544,3.3094,3.4166,3.4594,3.5145,3.5504,3.5504,3.5504,3.5504,3.5504,3.6207,3.6851,3.7357,3.8138,3.8811,3.9376,3.9355,3.9337,3.9337,3.9388,3.9355,3.9301,3.9159,3.9159,3.9301,3.8962,3.8889,3.8995,3.8833,3.8745,3.8741,3.8553,3.876,3.9274,3.9445,3.9624,3.9816,4.0189,4.048,4.0698,0.0,0.0,0.0,0.0,0.0,0.0,0.0,0.0,0.0,0.0,0.0,0.0,0.0,0.0,0.0,0.0,0.0,0.0,0.0,0.0,0.0,0.8826,0.9637,1.0544,1.1506,1.2768,1.3411,1.3385,1.4745,1.5233,1.4891,1.4891,1.4443,1.3614,1.3541,1.2893,1.1838,1.1463,1.1008,1.0483,1.0074,0.0,0.0,0.0,0.0,0.0,0.0,0.0,0.0,1.7183,1.7732,1.8072,1.931,0.0,0.0,0.0,0.0,0.0,2.0094,2.067,2.1367,2.2168,2.2794,2.3238,2.3345,2.3764,2.4138,2.4138,2.4522,2.4844,2.484,2.5492,2.6458,2.7711,2.9855,3.1652,3.2432,3.3622,3.464,3.5265,3.5444,3.5504,3.5504,3.5504,3.5504,3.5504,3.658,3.73,3.7387,3.8569,3.9287,3.9406,3.9228,3.9141,3.9141,3.9301,3.9228,3.8889,3.9017,3.9017,3.8889,3.8819,3.8723,3.859,3.8553,3.8553,3.8534,3.8329,3.8389,3.8682,3.9035,3.9199,3.9289,3.9799,3.9995,4.0045,0.0,0.0,0.0,0.0,0.0,0.0,0.0,0.0,0.0,0.0,0.0,0.0,0.0,0.0,0.0,0.0,0.0,0.0,0.0,0.0,0.8762,0.9049,1.0315,1.1447,1.2382,1.3552,1.4312,1.4627,1.5363,1.5616,1.5432,1.5432,1.5023,1.4299,1.4077,1.3407,1.2386,1.1821,1.1187,1.0586,0.0,0.0,0.0,0.0,0.0,0.0,0.0,0.0,0.0,0.0,1.7705,1.7929,1.928,0.0,0.0,0.0,0.0,0.0,1.9993,2.0431,2.0952,2.1424,2.2325,2.3285,2.4001,2.4429,2.4782,2.5142,2.5463,2.5761,2.6028,2.6667,2.7786,2.9679,3.1123,3.2381,3.3502,3.4207,3.4836,3.5429,3.5504,3.5504,3.5504,3.5504,3.5504,3.5504,3.6686,3.7353,3.7248,3.8499,3.9177,3.9086,3.898,3.8889,3.8775,3.8977,3.898,3.88,3.8778,3.8778,3.8782,3.856,3.8482,3.8478,3.8385,3.8348,3.8329,3.824,3.824,3.8366,3.8538,3.8612,3.8686,3.9256,3.9639,3.9957,0.0,0.0,0.0,0.0,0.0,0.0,0.0,0.0,0.0,0.0,0.0,0.0,0.0,0.0,0.0,0.0,0.0,0.0,0.0,0.8258,0.8878,0.9525,1.1099,1.2171,1.2623,1.4065,1.496,1.5292,1.5704,1.588,1.5803,1.5803,1.5538,1.5029,1.4689,1.3965,1.3022,1.2416,1.1761,1.1145,0.0,0.0,0.0,0.0,0.0,0.0,0.0,0.0,0.0,0.0,0.0,0.0,0.0,0.0,0.0,1.978,1.9753,1.9792,2.0193,2.0618,2.106,2.1528,2.2313,2.3253,2.4446,2.4863,2.5238,2.6039,2.6357,2.6649,2.7225,2.8097,2.9409,3.1448,3.2251,3.3064,3.4325,3.4716,3.5032,3.5444,3.5504,3.5504,3.5504,3.5504,3.5564,3.5729,3.6725,3.7324,3.7332,3.8412,3.8962,3.88,3.8745,3.8649,3.8497,3.8612,3.8653,3.8668,3.8538,3.8571,3.8649,3.8333,3.8277,3.8422,3.8258,3.8202,3.8202,3.8202,3.8202,3.8202,3.8202,3.8296,3.8482,3.9071,3.9439,3.9712,0.0,0.0,0.0,0.0,0.0,0.0,0.0,0.0,0.0,0.0,0.0,0.0,0.0,0.0,0.0,0.0,0.0,0.0,0.0,0.8496,0.9379,1.0542,1.1791,1.2157,1.153,1.3903,1.4916,1.4399,1.5657,1.6109,1.5803,1.5803,1.558,1.5184,1.495,1.4488,1.3787,1.3369,1.3018,1.2724,1.2541,0.0,0.0,0.0,0.0,0.0,0.0,0.0,0.0,0.0,0.0,0.0,0.0,0.0,1.9717,1.978,1.9753,1.9888,2.0712,2.1274,2.1949,2.3274,2.3204,2.2993,2.3713,2.4448,2.5359,2.6576,2.7376,2.8003,2.8473,3.0175,3.1754,3.2493,3.3683,3.4494,3.4504,3.5042,3.5459,3.5504,3.5504,3.5504,3.5504,3.5504,3.5759,3.6389,3.6858,3.7391,3.7985,3.8523,3.88,3.88,3.8612,3.8516,3.8497,3.8329,3.824,3.824,3.8422,3.8404,3.824,3.8221,3.8202,3.8221,3.8202,3.8202,3.8202,3.8202,3.8202,3.8202,3.8202,3.8538,3.909,3.9639,3.9473,3.8905,0.0,0.0,0.0,0.0,0.0,0.0,0.0,0.0,0.0,0.0,0.0,0.0,0.0,0.0,0.0,0.0,0.0,0.0,0.0,0.8466,0.9238,1.0996,1.1744,1.2073,1.1958,1.4051,1.5125,1.511,1.57,1.5924,1.5803,1.5891,1.5847,1.5671,1.5047,1.4751,1.4628,1.3485,1.3067,1.3181,1.2898,1.3157,0.0,0.0,0.0,0.0,0.0,0.0,0.0,0.0,1.716,1.7818,1.8484,1.9151,1.9708,1.9735,1.9726,1.9861,2.0656,2.1283,2.2039,2.3453,2.4172,2.4713,2.5385,2.6092,2.688,2.776,2.851,2.9294,3.0249,3.1776,3.3066,3.3711,3.4236,3.4701,3.5071,3.534,3.5504,3.5504,3.5504,3.5504,3.5504,3.5878,3.6189,3.6296,3.7191,3.773,3.7731,3.8293,3.8557,3.8445,3.8352,3.8296,3.8296,3.824,3.8202,3.8202,3.8277,3.8258,3.8202,3.8202,3.8202,3.8202,3.8202,3.8202,3.8202,3.8202,3.8427,3.873,3.8303,3.8502,3.8933,3.8005,3.7743,3.7863,0.0,0.0,0.0,0.0,0.0,0.0,0.0,0.0,0.0,0.0,0.0,0.0,0.0,0.0,0.0,0.0,0.0,0.0,0.8713,0.8558,0.9391,1.1575,1.1856,1.2193,1.2666,1.4026,1.4867,1.519,1.5608,1.5803,1.5803,1.5946,1.6022,1.6028,1.5324,1.5057,1.504,1.4022,1.3632,1.3683,1.3663,1.3956,0.0,0.0,0.0,0.0,0.0,0.0,0.0,0.0,1.6854,1.7496,1.8177,1.8843,1.9429,1.9648,1.9708,1.9921,2.0865,2.1564,2.2399,2.4029,2.5175,2.6153,2.7021,2.7587,2.8156,2.9026,2.9894,3.0911,3.2213,3.32,3.4039,3.4712,3.4817,3.4982,3.5444,3.5504,3.5504,3.5504,3.5504,3.5504,3.5504,3.6038,3.6417,3.6476,3.7375,3.7888,3.7821,3.8189,3.8348,3.8202,3.8202,3.8202,3.8202,3.8202,3.8202,3.8202,3.8202,3.8202,3.8202,3.8202,3.8202,3.8202,3.8202,3.8202,3.8202,3.8202,3.8328,3.8509,3.8219,3.824,3.8293,3.724,3.6961,3.7171,0.0,0.0,0.0,0.0,0.0,0.0,0.0,0.0,0.7325,0.7123,0.7099,0.0,0.0,0.0,0.0,0.0,0.0,0.0,0.8718,0.886,0.9973,1.2379,1.2239,1.2542,1.3471,1.3763,1.4037,1.4311,1.5309,1.5803,1.5803,1.5946,1.6066,1.6182,1.5841,1.5401,1.4914,1.5162,1.4909,1.4365,1.5025,1.5343,1.5404,0.0,0.0,0.0,0.0,0.0,0.0,0.0,1.6204,1.6823,1.7496,1.8162,1.8828,1.9504,1.9708,2.001,2.1422,2.2239,2.3199,2.5285,2.6219,2.6973,2.8308,2.8607,2.8981,3.0268,3.1585,3.2916,3.4248,3.4518,3.4727,3.5385,3.5504,3.5504,3.5504,3.5504,3.5504,3.5504,3.5504,3.5504,3.5519,3.5922,3.6459,3.7062,3.736,3.7788,3.8468,3.8296,3.8202,3.8202,3.8202,3.8202,3.8202,3.8202,3.8202,3.8202,3.8202,3.8202,3.8202,3.8202,3.8202,3.8202,3.8202,3.8202,3.8202,3.8202,3.7839,3.7343,3.7866,3.7729,3.7248,3.7782,3.7556,3.6895,0.0,0.0,0.0,0.0,0.0,0.0,0.0,0.0,0.7135,0.6973,0.6952,0.0,0.0,0.0,0.0,0.0,0.0,0.0,0.8784,0.8752,0.9576,1.1569,1.1985,1.2324,1.2654,1.3284,1.3997,1.4794,1.5563,1.5946,1.5946,1.6175,1.6075,1.569,1.5306,1.4972,1.4662,1.4324,1.4361,1.4675,1.4871,1.5133,1.5404,0.0,0.0,0.0,0.0,0.0,0.0,0.0,0.0,0.0,1.7496,1.8162,1.8828,1.9504,1.9708,1.9992,2.136,2.2204,2.3178,2.5167,2.6851,2.8233,2.9114,2.9624,3.0447,3.2243,3.329,3.4024,3.4444,3.4892,3.5265,3.5474,3.5504,3.5504,3.5504,3.5504,3.5504,3.5504,3.5504,3.5684,3.6148,3.659,3.7042,3.7538,3.7967,3.8237,3.8296,3.8221,3.8202,3.8202,3.8202,3.8202,3.8202,3.8202,3.8202,3.8202,3.8202,3.8202,3.8202,3.8202,3.8202,3.8202,3.8202,3.8202,3.8211,3.8153,3.7771,3.7201,3.6887,3.666,3.6403,3.5725,3.5343,3.5198,0.0,0.0,0.0,0.0,0.0,0.0,0.7399,0.7183,0.6989,0.6916,0.6908,0.6912,0.0,0.0,0.0,0.7004,0.7024,0.7565,0.8814,0.8716,0.9444,1.1342,1.1515,1.1753,1.2131,1.2848,1.3621,1.4448,1.5288,1.5826,1.6077,1.6052,1.5854,1.5486,1.4999,1.4705,1.4563,1.4137,1.4265,1.48,1.4833,1.508,1.5441,0.0,0.0,0.0,0.0,0.0,0.0,0.0,0.0,0.0,1.7407,1.7983,1.8484,1.9429,1.9708,1.9983,2.1345,2.2363,2.3471,2.5181,2.7111,2.8981,3.0417,3.1031,3.1794,3.3545,3.4218,3.4578,3.4847,3.522,3.5504,3.5504,3.5504,3.5504,3.5504,3.5504,3.5504,3.5504,3.5744,3.601,3.6348,3.6993,3.7464,3.7665,3.8131,3.8329,3.8202,3.8202,3.8202,3.8202,3.8202,3.8202,3.8202,3.8202,3.8202,3.8202,3.8202,3.8202,3.8202,3.8202,3.8202,3.8188,3.7955,3.7839,3.7814,3.7509,3.7022,3.6436,3.604,3.5714,3.5415,3.4663,3.4397,3.4448,0.0,0.0,0.0,0.0,0.0,0.0,0.7376,0.7103,0.6908,0.6908,0.6908,0.6937,0.0,0.0,0.0,0.7011,0.7061,0.7591,0.8738,0.8646,0.9409,1.131,1.0912,1.1023,1.185,1.2454,1.3024,1.3551,1.4632,1.5465,1.6051,1.5641,1.5444,1.5386,1.4813,1.4566,1.4589,1.4433,1.4554,1.4847,1.4975,1.523,1.5529,1.558,0.0,0.0,0.0,0.0,0.0,0.0,0.0,0.0,1.7228,1.7646,1.7953,1.9226,1.9648,1.9983,2.1345,2.2622,2.3924,2.5259,2.7171,2.9385,3.1989,3.2587,3.2976,3.4308,3.4578,3.4772,3.5385,3.5504,3.5504,3.5504,3.5504,3.5504,3.5504,3.5504,3.5534,3.5594,3.6101,3.6438,3.6374,3.7216,3.7727,3.7602,3.7976,3.8202,3.8202,3.8202,3.8202,3.8202,3.8202,3.8202,3.8202,3.8202,3.8202,3.8202,3.8202,3.8202,3.8202,3.8202,3.8173,3.8086,3.7549,3.7244,3.7085,3.6475,3.5868,3.5319,3.5319,3.4939,3.4397,3.4397,3.4397,3.4397,0.0,0.0,0.0,0.0,0.0,0.0,0.7191,0.7009,0.6908,0.6908,0.6946,0.6979,0.6997,0.7046,0.0,0.7078,0.7097,0.7406,0.8154,0.8157,0.8677,0.9902,1.0515,1.1098,1.1651,1.215,1.2663,1.321,1.4276,1.4878,1.5022,1.5037,1.4939,1.4784,1.4381,1.4344,1.4624,1.4887,1.5052,1.5169,1.5818,1.5887,1.558,1.5595,1.5675,0.0,0.0,0.0,0.0,0.0,0.0,0.0,1.6689,1.7279,1.7855,1.8687,1.9295,1.9983,2.1345,2.2622,2.3924,2.5259,2.7515,3.0072,3.2691,3.3275,3.3664,3.5011,3.528,3.5325,3.5458,3.5504,3.5504,3.5504,3.5504,3.5504,3.5504,3.5504,3.5699,3.6207,3.627,3.6646,3.7602,3.7605,3.7755,3.8263,3.8223,3.8202,3.8202,3.8202,3.8202,3.8202,3.8202,3.8202,3.8202,3.8202,3.8202,3.8202,3.8202,3.8202,3.8202,3.8202,3.7941,3.7491,3.736,3.6722,3.5813,3.5636,3.5215,3.4617,3.4617,3.453,3.4397,3.4397,3.4397,3.4397,0.0,0.0,0.0,0.0,0.0,0.0,0.0,0.0,0.6912,0.6941,0.6975,0.7013,0.7046,0.7083,0.0,0.0,0.7104,0.736,0.7955,0.7905,0.8186,0.8948,0.9418,1.0014,1.0766,1.099,1.1631,1.2718,1.3307,1.4019,1.479,1.4601,1.4455,1.4351,1.4176,1.4293,1.4646,1.5194,1.5618,1.5978,1.6512,1.6459,1.6077,1.6107,1.5995,1.5799,1.5799,0.0,0.0,0.0,0.0,0.0,0.0,0.0,1.7825,1.8499,1.9166,1.9983,2.1345,2.2423,2.3785,2.6393,2.8323,3.0282,3.2901,3.3499,3.3873,3.5219,3.5504,3.5504,3.5504,3.5504,3.5504,3.5504,3.5504,3.5504,3.5504,3.5504,3.5711,3.6302,3.6527,3.6936,3.7732,3.7916,3.8076,3.8337,3.8258,3.8202,3.8202,3.8202,3.8202,3.8202,3.8202,3.8202,3.8202,3.8202,3.8202,3.8202,3.8202,3.8057,3.7781,3.7781,3.7607,3.7273,3.6667,3.5999,3.5378,3.5041,3.4719,3.4397,3.4397,3.4397,3.4397,3.4397,3.4397,3.4397,0.0,0.0,0.0,0.0,0.0,0.0,0.0,0.0,0.0,0.6997,0.7005,0.7021,0.7096,0.7095,0.7097,0.0,0.0,0.0,0.7842,0.7801,0.7902,0.8226,0.8309,0.8743,0.9592,0.9767,1.0514,1.1896,1.2146,1.3019,1.4456,1.411,1.3982,1.4036,1.4083,1.4348,1.4793,1.5504,1.6191,1.68,1.7102,1.7052,1.6798,1.6845,1.6562,1.6136,1.6136,1.6136,1.6106,1.5994,0.0,0.0,0.0,0.0,1.781,1.8365,1.9076,1.9968,2.1186,2.2258,2.3905,2.7515,2.9024,3.0222,3.2602,3.3335,3.3844,3.507,3.5429,3.5504,3.5504,3.5504,3.5504,3.5504,3.5504,3.5504,3.5504,3.5561,3.5809,3.6299,3.685,3.7293,3.7649,3.8153,3.8385,3.8202,3.8202,3.8202,3.8202,3.8202,3.8202,3.8202,3.8202,3.8202,3.8202,3.8202,3.8202,3.8202,3.8101,3.7781,3.7302,3.707,3.6968,3.691,3.5872,3.5334,3.5171,3.4632,3.4397,3.4397,3.4397,3.4397,3.4397,3.4397,3.4397,3.4397,0.0,0.0,0.0,0.0,0.0,0.0,0.0,0.0,0.0,0.0,0.6999,0.7032,0.71,0.7101,0.7095,0.7099,0.7099,0.718,0.7378,0.0,0.0,0.7625,0.8221,0.8515,0.843,0.9495,1.0116,1.0219,1.1224,1.206,1.2734,1.314,1.348,1.3761,1.4005,1.454,1.5345,1.6019,1.659,1.7093,1.7526,1.7638,1.7555,1.7563,1.7519,1.7444,1.7444,1.7444,1.7355,1.6771,1.6577,0.0,0.0,0.0,1.7728,1.781,1.8724,1.9863,2.0632,2.2542,2.4889,2.718,2.8665,2.9982,3.145,3.2662,3.3709,3.4473,3.51,3.5504,3.5504,3.5504,3.5504,3.5504,3.5504,3.5504,3.5504,3.5851,3.6314,3.6916,3.7252,3.7682,3.8322,3.829,3.8221,3.8202,3.8202,3.8202,3.8202,3.8202,3.8202,3.8202,3.8202,3.8202,3.8202,3.8202,3.8202,3.8188,3.768,3.7389,3.7259,3.6159,3.5654,3.5639,3.5465,3.507,3.453,3.4426,3.4397,3.4397,3.4397,3.4397,3.4397,3.4397,3.4397,3.4397,0.0,0.0,0.0,0.0,0.0,0.0,0.0,0.0,0.0,0.0,0.0,0.795,0.764,0.7599,0.7472,0.7126,0.7099,0.7119,0.719,0.7243,0.7266,0.7271,0.7365,0.7576,0.7914,0.8693,0.9363,0.9905,1.0702,1.1387,1.1964,1.25,1.299,1.3455,1.4206,1.4762,1.5223,1.6727,1.7342,1.7411,1.8448,1.8434,1.784,1.8151,1.8003,1.765,1.7697,1.7705,1.7646,1.7354,1.7264,1.7145,1.6503,0.0,0.0,0.0,1.8649,1.9923,2.0976,2.2885,2.4993,2.6629,2.8334,2.9937,3.1212,3.2542,3.3694,3.4353,3.5026,3.5504,3.5504,3.5504,3.5504,3.5504,3.5504,3.5455,3.5343,3.5499,3.5931,3.6728,3.6919,3.7346,3.8246,3.824,3.8202,3.8202,3.8202,3.8202,3.8202,3.8202,3.8202,3.8202,3.8202,3.8202,3.8202,3.8202,3.792,3.7353,3.7326,3.6692,3.556,3.5217,3.5201,3.5378,3.4997,3.4541,3.4059,3.4059,3.3942,3.3788,3.3788,3.3788,3.3788,3.3788,3.3788,3.3805,0.0,0.0,0.0,0.0,0.0,0.0,0.0,0.0,0.0,0.0,0.0,0.873,0.8271,0.0,0.0,0.0,0.7449,0.7316,0.7166,0.6932,0.6883,0.7038,0.6698,0.6791,0.7406,0.8001,0.8695,0.9485,1.0175,1.0802,1.1374,1.1781,1.2337,1.3044,1.4192,1.4768,1.5014,1.6784,1.7575,1.7744,1.8845,1.891,1.8379,1.8732,1.8546,1.8072,1.8148,1.8188,1.8167,1.8004,1.7953,1.7848,1.7174,1.7765,0.0,0.0,0.0,1.9962,2.1136,2.2746,2.4436,2.5764,2.7602,2.9428,3.0717,3.2033,3.323,3.4069,3.4739,3.523,3.5378,3.5423,3.5423,3.5359,3.5343,3.5294,3.5148,3.5215,3.5556,3.6251,3.6605,3.7084,3.7883,3.8115,3.8202,3.8202,3.8202,3.8202,3.8202,3.8202,3.8202,3.8202,3.8202,3.8202,3.8202,3.7949,3.7448,3.6713,3.6574,3.5696,3.4201,3.4349,3.4574,3.4839,3.4329,3.3942,3.3667,3.3667,3.3531,3.3304,3.3304,3.3304,3.3304,3.3304,3.3304,3.3339,0.0,0.0,0.0,0.0,0.0,0.0,0.0,0.0,0.0,0.0,0.0,0.8887,0.886,0.8846,0.8846,0.8806,0.8396,0.7905,0.7325,0.7153,0.7026,0.692,0.6642,0.0,0.665,0.7728,0.8331,0.8381,0.9428,1.0219,1.0751,1.0776,1.1377,1.2488,1.3632,1.4425,1.4953,1.5708,1.6807,1.8076,1.8155,1.8717,1.9497,1.9396,1.9339,1.9319,1.9452,1.9503,1.9417,1.8841,1.8649,1.8529,1.7855,1.8132,1.8687,0.0,0.0,0.0,2.0563,2.1754,2.3112,2.438,2.6213,2.8049,2.9383,3.0687,3.1974,3.3275,3.3928,3.4472,3.5094,3.5213,3.5148,3.4968,3.4935,3.4935,3.4918,3.5299,3.5592,3.5648,3.6597,3.7288,3.7346,3.7868,3.8202,3.8202,3.8202,3.8202,3.8202,3.8202,3.8202,3.8202,3.8202,3.8202,3.8202,3.7244,3.6742,3.6681,3.5117,3.4307,3.4187,3.3628,3.3382,3.3399,3.3371,3.3339,3.3322,3.3322,3.3322,3.3304,3.3304,3.3304,3.3304,3.3304,3.3304,3.3304,0.0,0.0,0.0,0.0,0.0,0.0,0.0,0.0,0.0,0.0,0.0,0.0,0.0,0.9479,0.9362,0.9049,0.86,0.8234,0.8014,0.7358,0.6964,0.696,0.6664,0.6535,0.6599,0.7333,0.7914,0.8293,0.9026,0.9661,1.0193,1.0538,1.1114,1.1927,1.3031,1.406,1.5028,1.6003,1.6973,1.7894,1.84,1.8803,1.912,1.9413,1.9455,1.9367,1.9587,1.9647,1.9572,1.9403,1.9339,1.9211,1.8544,1.8807,1.9339,1.9339,1.9504,1.9848,2.0518,2.169,2.2897,2.3744,2.5791,2.772,2.8214,2.9983,3.1601,3.2005,3.2913,3.3739,3.4165,3.4655,3.4984,3.4918,3.4902,3.4868,3.4783,3.4921,3.5132,3.5438,3.5816,3.6231,3.662,3.6849,3.7172,3.7593,3.7622,3.7796,3.8188,3.8202,3.8202,3.8202,3.8202,3.8014,3.7636,3.6618,3.578,3.5099,3.4498,3.3752,3.2922,3.2921,3.2807,3.2588,3.2588,3.2717,3.2917,3.2917,3.2789,3.2588,3.2588,3.2588,3.2588,3.2588,3.2588,3.2624,0.0,0.0,0.0,0.0,0.0,0.0,0.0,0.0,1.1232,1.1232,0.0,0.0,0.0,0.0,1.0111,0.9401,0.9063,0.8721,0.8298,0.7583,0.7109,0.6974,0.6689,0.6561,0.6599,0.7123,0.7691,0.8293,0.8843,0.9371,0.9905,1.0269,1.0853,1.1633,1.2574,1.3739,1.5053,1.586,1.6777,1.7774,1.8632,1.9055,1.9243,1.9888,2.0219,2.0333,2.0293,2.0371,2.0487,2.0306,2.0096,1.9862,1.9439,1.9483,1.9708,1.9708,1.9708,1.9803,2.0243,2.1186,2.2228,2.3082,2.4788,2.6492,2.739,2.8949,3.0391,3.1143,3.1961,3.2713,3.3299,3.3779,3.4237,3.4662,3.4735,3.4685,3.4599,3.4597,3.4709,3.5029,3.5261,3.5566,3.597,3.6185,3.6472,3.6939,3.695,3.7143,3.7549,3.7564,3.7564,3.7564,3.7564,3.7375,3.6983,3.583,3.4909,3.4183,3.3734,3.3064,3.2218,3.2426,3.2408,3.22,3.22,3.2332,3.2538,3.2538,3.2408,3.22,3.22,3.22,3.22,3.22,3.22,3.225,0.0,0.0,0.0,0.0,0.0,0.0,1.1607,0.0,1.2494,1.2494,0.0,0.0,0.0,0.0,0.0,0.9969,0.9908,0.94,0.813,0.7851,0.7479,0.6943,0.6727,0.6611,0.6599,0.7111,0.7678,0.8293,0.8825,0.9365,0.9905,0.9905,1.0508,1.1635,1.2302,1.3493,1.5018,1.5175,1.6202,1.7808,1.8728,1.9429,2.0003,2.0882,2.1695,2.2279,2.1634,2.1761,2.2174,2.151,2.0911,2.0444,2.0497,2.0135,1.9708,1.9708,1.9708,1.9708,0.0,0.0,0.0,2.2328,2.3127,2.4279,2.6881,2.754,2.8267,3.0682,3.1057,3.1308,3.252,3.258,3.2859,3.4136,3.4353,3.4368,3.4397,3.4397,3.4397,3.4397,3.4968,3.5378,3.5378,3.5894,3.6239,3.6272,3.6272,3.6286,3.6301,3.6301,3.6301,3.6301,3.6286,3.6272,3.6272,3.4875,3.4172,3.4155,3.2841,3.22,3.22,3.22,3.22,3.22,3.22,3.22,3.22,3.22,3.22,3.22,3.22,3.22,3.22,3.22,3.22,3.2309,0.0,0.0,0.0,0.0,0.0,1.173,1.2177,1.2386,1.2494,0.0,0.0,0.0,1.2494,1.252,1.2213,1.1395,1.0982,1.0325,0.9295,0.8635,0.8041,0.7506,0.729,0.7003,0.6611,0.6745,0.73,0.8293,0.8449,0.8989,0.9905,0.9905,1.0508,1.1628,1.2205,1.3467,1.5175,1.5695,1.6886,1.8472,1.9017,1.9703,2.0474,2.1117,2.1364,2.1374,2.1336,2.1395,2.1486,2.1342,2.1256,2.1124,2.0761,2.0215,1.9708,1.9708,1.9708,1.9708,1.9708,0.0,0.0,0.0,0.0,0.0,2.4534,2.6207,2.7733,2.8175,2.898,2.9955,3.1008,3.1165,3.154,3.2816,3.3427,3.3908,3.4339,3.4397,3.4397,3.4397,3.4559,3.4675,3.4675,3.4835,3.5125,3.5607,3.5636,3.5839,3.6286,3.6301,3.6301,3.6301,3.5883,3.5636,3.5636,3.4253,3.354,3.354,3.2635,3.22,3.22,3.22,3.22,3.22,3.22,3.22,3.22,3.22,3.22,3.22,3.22,3.22,3.22,3.22,3.2472,3.287,0.0,0.0,1.1417,1.1771,1.2129,1.2469,1.2827,1.3091,1.3254,0.0,0.0,0.0,1.2786,1.2949,1.2745,1.1932,1.1615,1.0983,0.9859,0.9336,0.8737,0.7983,0.7605,0.7261,0.694,0.6707,0.7155,0.8293,0.8293,0.8851,0.9905,1.0137,1.0721,1.1653,1.2753,1.3973,1.528,1.6482,1.7566,1.8519,1.9317,2.027,2.1316,2.2185,2.2787,2.313,2.2922,2.3021,2.3241,2.2919,2.2562,2.2046,2.0926,2.0363,2.0064,1.9774,1.9708,1.9708,1.9708,1.9998,2.0348,2.0628,0.0,0.0,2.3415,2.4784,2.6122,2.6933,2.7706,2.855,2.961,2.9813,3.022,3.1496,3.2035,3.2704,3.3864,3.4008,3.4124,3.4368,3.4397,3.4397,3.4397,3.4397,3.4559,3.4954,3.4983,3.5142,3.5503,3.5517,3.5517,3.5517,3.5154,3.4897,3.4727,3.3768,3.3217,3.3041,3.2462,3.22,3.22,3.22,3.22,3.22,3.22,3.22,3.22,3.22,3.22,3.22,3.22,3.22,3.2227,3.2472,3.2803,3.3169,0.0,0.0,1.1634,1.1783,1.2692,1.3417,1.3492,1.3937,1.4303,0.0,1.4474,1.4222,1.3472,1.3505,1.3172,1.2195,1.2167,1.1619,1.0264,1.0119,0.9604,0.8519,0.7959,0.7623,0.7498,0.7033,0.731,0.8386,0.8386,0.8914,0.9905,1.045,1.1035,1.1693,1.3535,1.4686,1.535,1.7248,1.8107,1.8288,1.9666,2.1007,2.2318,2.3605,2.4909,2.5957,2.5148,2.5384,2.593,2.5165,2.4233,2.3065,2.128,2.0803,2.0734,2.0019,1.9794,1.9779,1.9714,1.9708,1.9833,2.0443,2.0643,0.0,2.2881,2.3396,2.4119,2.6255,2.6757,2.715,2.8212,2.8475,2.8911,3.0104,3.0365,3.1121,3.3111,3.3402,3.3618,3.424,3.4312,3.4324,3.4382,3.4397,3.4397,3.4397,3.4397,3.4397,3.4397,3.4397,3.4397,3.4397,3.4397,3.4213,3.3805,3.3462,3.3094,3.2704,3.2354,3.22,3.22,3.22,3.22,3.22,3.22,3.22,3.22,3.22,3.22,3.22,3.22,3.22,3.2268,3.2884,3.3142,3.3341,1.1342,1.1525,1.1905,1.2882,1.3248,1.356,1.4056,1.4046,1.4296,1.5147,1.5548,1.5613,1.5234,1.522,1.4911,1.4115,1.3629,1.2945,1.198,1.1512,1.0766,0.9642,0.9472,0.9008,0.8137,0.8024,0.8286,0.8944,0.8944,0.9277,0.9905,1.045,1.1057,1.1749,1.3424,1.4604,1.5472,1.7089,1.809,1.8719,2.0331,2.165,2.2769,2.3738,2.4546,2.5062,2.4353,2.4533,2.507,2.5002,2.4481,2.3732,2.3039,2.2439,2.1794,2.0805,2.0437,2.0247,1.9821,1.9708,1.9729,1.9863,2.0303,0.0,2.1191,2.2467,2.3683,2.4052,2.4961,2.5901,2.6573,2.708,2.763,2.8324,2.8879,3.0046,3.2383,3.2685,3.2933,3.3589,3.3676,3.3879,3.4339,3.4397,3.4397,3.4397,3.4397,3.4397,3.4397,3.4397,3.4397,3.4397,3.4397,3.4213,3.3805,3.3462,3.3094,3.2704,3.2354,3.22,3.22,3.22,3.22,3.22,3.22,3.22,3.22,3.22,3.22,3.22,3.22,3.22,3.2268,3.2884,3.3363,3.3859,1.1539,1.2075,1.2692,1.3295,1.3655,1.3947,1.4246,1.4354,1.4657,1.5404,1.5856,1.5918,1.5455,1.5398,1.5225,1.4793,1.447,1.3994,1.3283,1.2718,1.2011,1.1179,1.0357,0.9654,0.9115,0.8569,0.8562,0.91,0.91,0.9516,1.0306,1.0878,1.1608,1.2507,1.3959,1.5015,1.5808,1.7525,1.8639,1.9363,2.0602,2.1929,2.3284,2.4535,2.5319,2.5792,2.5765,2.5932,2.6184,2.6036,2.5802,2.5338,2.4091,2.333,2.2723,2.1852,2.1084,2.0456,2.0251,1.9953,1.9708,1.9708,1.9953,0.0,0.0,2.1396,2.2215,2.2825,2.37,2.4527,2.5103,2.5717,2.6329,2.6859,2.7489,2.8311,2.9493,3.0937,3.2143,3.2789,3.3347,3.3838,3.4211,3.4484,3.4682,3.4774,3.4551,3.4397,3.4397,3.4397,3.4312,3.4111,3.4094,3.3822,3.3252,3.3076,3.281,3.2462,3.2277,3.22,3.22,3.22,3.22,3.22,3.22,3.22,3.22,3.22,3.22,3.22,3.22,3.2377,3.2716,3.3281,3.3859,3.4436,1.1953,1.2733,1.3438,1.3546,1.3927,1.4268,1.4359,1.4578,1.4928,1.5555,1.6197,1.636,1.5765,1.5574,1.5473,1.5394,1.5183,1.4868,1.4447,1.386,1.329,1.2755,1.1317,1.0489,1.0376,0.9441,0.9169,0.9604,0.9622,1.0051,1.0926,1.1527,1.2342,1.3343,1.4549,1.5487,1.6314,1.8035,1.9177,1.9912,2.0801,2.22,2.3861,2.5356,2.6244,2.6745,2.7232,2.734,2.7217,2.7149,2.7181,2.6951,2.5126,2.4382,2.3982,2.2977,2.1889,2.102,2.0928,2.0498,2.0043,1.9923,1.9893,1.9998,0.0,0.0,0.0,2.1936,2.2604,2.3142,2.3629,2.4356,2.4941,2.5101,2.5996,2.6555,2.6221,2.8714,3.0839,3.156,3.2751,3.3593,3.3821,3.4496,3.492,3.498,3.4714,3.4501,3.4414,3.4397,3.4213,3.3805,3.3805,3.3444,3.2721,3.2704,3.2538,3.22,3.22,3.22,3.22,3.22,3.22,3.22,3.22,3.22,3.22,3.22,3.22,3.22,3.2322,3.268,3.3183,3.3832,3.4382,3.4883,1.3194,1.3316,1.3573,1.4097,1.4065,1.4118,1.4576,1.4282,1.4522,1.5942,1.7401,1.8201,1.7873,1.7321,1.6999,1.711,1.6193,1.5578,1.5527,1.5009,1.4466,1.393,1.3207,1.2605,1.2132,1.1592,1.1338,1.1401,1.1454,1.1567,1.1688,1.2296,1.296,1.368,1.4601,1.5714,1.6955,1.8121,1.9145,2.008,2.1308,2.2844,2.45,2.5585,2.6247,2.6618,2.6686,2.6363,2.6087,2.7173,2.7668,2.7655,2.6823,2.6592,2.6165,2.3959,2.3149,2.2787,2.1844,2.153,2.1321,2.0728,2.0593,2.0443,1.9938,0.0,2.0714,2.0863,0.0,2.1894,2.1968,0.0,0.0,2.2206,2.416,2.5405,2.4142,2.6244,2.8351,2.9477,3.1099,3.2337,3.2899,3.4122,3.4708,3.426,3.4777,3.4903,3.4431,3.4397,3.4213,3.3805,3.3805,3.3444,3.2721,3.2704,3.2538,3.22,3.22,3.22,3.22,3.22,3.22,3.22,3.22,3.22,3.22,3.22,3.22,3.2241,3.2789,3.3047,3.3237,3.4293,3.4734,3.4883,1.3478,1.3682,1.4002,1.4259,1.4336,1.4475,1.4774,1.5451,1.6389,1.766,1.8651,1.9203,1.9145,1.8883,1.8608,1.8355,1.7891,1.7477,1.7174,1.6321,1.5728,1.5502,1.4368,1.3489,1.2994,1.2445,1.2033,1.1762,1.1792,1.1981,1.2337,1.2897,1.3638,1.4503,1.5533,1.6471,1.7385,1.8818,2.0067,2.1226,2.2735,2.4137,2.5343,2.5751,2.6593,2.7633,2.7944,2.788,2.7704,2.7972,2.8426,2.8699,2.7641,2.74,2.7262,2.5948,2.5003,2.4168,2.3086,2.2491,2.2028,2.1436,2.1217,2.1113,2.0907,2.0782,2.0703,2.0703,0.0,0.0,0.0,0.0,0.0,0.0,2.2885,2.3599,2.2576,2.4664,2.6772,2.8106,2.9825,3.1492,3.2951,3.3459,3.3774,3.3967,3.4629,3.4701,3.3912,3.4497,3.4438,3.3545,3.3496,3.316,3.2426,3.2408,3.2336,3.22,3.22,3.22,3.22,3.22,3.22,3.22,3.22,3.22,3.22,3.22,3.2404,3.277,3.3349,3.3561,3.3656,3.4496,3.5025,3.5364,1.3527,1.3843,1.4211,1.4289,1.4402,1.4641,1.5131,1.6819,1.8311,1.9095,1.9864,2.0386,2.0478,2.0311,2.0047,1.9658,1.9233,1.882,1.8383,1.7492,1.69,1.6749,1.5475,1.455,1.4103,1.3526,1.3093,1.2785,1.2801,1.3039,1.3477,1.3865,1.4534,1.5427,1.6357,1.7153,1.787,1.9407,2.0728,2.1925,2.3509,2.4912,2.6075,2.6174,2.7067,2.8303,2.8681,2.8836,2.8795,2.865,2.9141,2.9642,2.8456,2.8383,2.851,2.7596,2.6537,2.5467,2.455,2.3789,2.3077,2.236,2.2096,2.1951,2.1749,2.1311,2.0922,2.0742,2.0703,0.0,0.0,0.0,2.1296,2.0884,0.0,2.2299,2.1447,2.3276,2.5196,2.6523,2.8583,3.0559,3.2282,3.2755,3.3107,3.3494,3.4212,3.4329,3.3647,3.4317,3.4276,3.3262,3.3258,3.2949,3.2218,3.22,3.22,3.22,3.22,3.22,3.22,3.22,3.22,3.22,3.22,3.22,3.22,3.22,3.2572,3.3156,3.3696,3.4002,3.4219,3.4816,3.5323,3.569,1.3551,1.3728,1.3987,1.4255,1.4081,1.4391,1.576,1.8042,1.9644,1.9668,2.105,2.2077,2.2219,2.1642,2.1247,2.1235,1.9858,1.8946,1.8796,1.8371,1.7915,1.7387,1.676,1.6237,1.5828,1.5357,1.5177,1.5279,1.5345,1.5395,1.5408,1.5434,1.5765,1.6379,1.6796,1.7534,1.8535,1.9696,2.0702,2.1636,2.29,2.4653,2.6541,2.7057,2.7605,2.8121,2.8133,2.8128,2.8243,2.8855,2.9699,3.0335,2.9585,2.9967,3.0324,2.8426,2.7389,2.674,2.6247,2.5624,2.4826,2.3641,2.3337,2.3043,2.1949,2.168,2.1485,2.0823,2.0703,2.0503,1.9848,2.0288,2.0365,0.0,2.0898,0.0,0.0,2.1984,2.3375,2.4477,2.7285,2.9442,3.0208,3.2098,3.3085,3.258,3.3415,3.3925,3.3895,3.3684,3.339,3.302,3.3208,3.2949,3.2218,3.22,3.22,3.22,3.22,3.22,3.22,3.22,3.22,3.22,3.22,3.22,3.22,3.22,3.2572,3.3156,3.3696,3.426,3.4829,3.5445,3.5676,3.569,1.3403,1.3631,1.4042,1.426,1.4673,1.5719,1.797,1.9068,2.004,2.1134,2.2064,2.2742,2.3068,2.3164,2.2933,2.2221,2.1811,2.1247,2.0433,2.0046,1.9598,1.9007,1.8456,1.761,1.6443,1.6272,1.5913,1.533,1.5358,1.5415,1.5509,1.5915,1.6163,1.6328,1.7575,1.8435,1.9063,2.055,2.1951,2.3329,2.5212,2.6604,2.7607,2.8141,2.8467,2.8681,2.9076,2.9227,2.9202,2.9023,2.983,3.0796,3.0193,3.088,3.1646,3.0221,2.9666,2.9183,2.7837,2.6944,2.6216,2.5442,2.4849,2.4293,2.3648,2.3102,2.2596,2.2011,2.153,2.1005,2.0303,2.0448,2.0497,0.0,0.0,0.0,0.0,2.1566,2.2488,2.334,2.5174,2.6857,2.8031,2.9584,3.0521,3.0505,3.2357,3.3104,3.2153,3.3457,3.3932,3.3301,3.3171,3.3012,3.2854,3.2426,3.22,3.22,3.22,3.22,3.22,3.22,3.22,3.22,3.22,3.22,3.2227,3.264,3.3137,3.3683,3.426,3.4856,3.5418,3.5622,3.569,3.569,1.3789,1.3951,1.4241,1.4315,1.563,1.7322,1.9266,2.0259,2.1155,2.225,2.3145,2.3785,2.4034,2.4345,2.421,2.3448,2.32,2.2864,2.233,2.1585,2.1024,2.0701,1.9986,1.8969,1.7622,1.7405,1.6933,1.6144,1.5961,1.5918,1.6006,1.6406,1.6534,1.6514,1.8001,1.8863,1.9306,2.0993,2.2465,2.3888,2.6314,2.7751,2.8442,2.9007,2.922,2.927,2.9654,2.9792,2.9729,2.9346,3.0034,3.0967,3.069,3.1422,3.2292,3.1615,3.1242,3.0746,2.9358,2.8468,2.7741,2.698,2.6239,2.5567,2.5136,2.4489,2.3809,2.3219,2.259,2.1922,2.1211,2.1074,2.0969,0.0,0.0,0.0,0.0,2.1165,2.1623,2.2099,2.361,0.0,0.0,0.0,2.8652,2.9304,3.1189,3.2064,3.1516,3.3076,3.3834,3.3485,3.3417,3.3327,3.3196,3.2761,3.2444,3.22,3.22,3.22,3.22,3.22,3.22,3.22,3.22,3.22,3.2241,3.2857,3.3417,3.3962,3.4558,3.5174,3.569,3.569,3.569,3.569,1.4617,1.4637,1.4678,1.4665,1.6982,1.9057,1.9718,2.1581,2.2918,2.2953,2.4197,2.5082,2.5065,2.5131,2.5059,2.4835,2.4055,2.3789,2.4284,2.297,2.223,2.2368,2.1369,2.0354,1.9344,1.876,1.8235,1.7737,1.7196,1.6925,1.6897,1.6897,1.691,1.6999,1.8093,1.8842,1.9382,2.1044,2.2338,2.3509,2.6239,2.7971,2.8969,2.9566,2.9817,2.9829,2.9804,2.9792,2.9792,2.9792,3.0298,3.0921,3.1088,3.1705,3.2365,3.2504,3.2105,3.1482,3.0858,3.0205,2.9421,2.8311,2.7522,2.689,2.6396,2.5761,2.5087,2.4423,2.3816,2.3172,2.2459,2.2101,2.1784,0.0,0.0,0.0,2.092,2.081,2.0802,0.0,0.0,0.0,0.0,0.0,0.0,2.8846,2.9902,0.0,0.0,3.2511,3.3091,3.3562,3.3868,3.378,3.3262,3.3217,3.2871,3.2241,3.2241,3.2223,3.22,3.22,3.22,3.22,3.22,3.2214,3.2282,3.2898,3.3457,3.4002,3.4612,3.5201,3.569,3.569,3.569,3.569,1.4609,1.5247,1.6459,1.8111,1.892,1.981,2.1256,2.2211,2.3034,2.3836,2.4483,2.4815,2.4667,2.5503,2.5819,2.5214,2.5591,2.5522,2.4725,2.4534,2.4107,2.3362,2.2785,2.1997,2.0932,1.9938,1.9043,1.8222,1.7626,1.7186,1.6897,1.6897,1.7117,1.7531,1.8272,1.9264,2.0471,2.1751,2.3589,2.5753,2.7281,2.8292,2.8969,2.9566,3.0043,3.0337,2.9942,2.9792,2.9792,2.9792,3.0298,3.1018,3.1644,3.2361,3.3014,3.3186,3.3109,3.2848,3.2193,3.1525,3.0828,3.0089,2.9406,2.865,2.7679,2.6907,2.6225,2.5668,2.5023,2.4186,2.296,2.3036,2.3005,2.2121,2.1976,2.1877,0.0,0.0,0.0,2.0802,0.0,0.0,0.0,0.0,0.0,0.0,0.0,0.0,3.0711,3.1828,3.2666,3.3136,3.3091,3.3384,3.409,3.3491,3.3122,3.2942,3.2942,3.2686,3.22,3.22,3.22,3.22,3.22,3.2445,3.2911,3.3471,3.403,3.4626,3.5228,3.5554,3.569,3.569,3.569,3.569,1.606,1.7009,1.8445,2.0238,2.0788,2.1322,2.2298,2.3102,2.3949,2.489,2.5215,2.5453,2.5665,2.6233,2.6438,2.6045,2.6493,2.6615,2.6226,2.6023,2.5684,2.5178,2.4532,2.3574,2.2219,2.1341,2.0277,1.9005,1.8437,1.7916,1.7476,1.7476,1.763,1.7949,1.876,1.9725,2.0885,2.2965,2.5014,2.6952,2.8021,2.8712,0.0,2.9749,3.0102,3.0296,3.0221,3.0336,3.0495,3.0495,3.062,3.097,3.2098,3.2568,3.2876,3.3648,3.3894,3.3763,3.3108,3.2658,3.2222,3.1584,3.093,3.019,2.9289,2.8533,2.7866,2.7292,2.6433,2.5535,2.4747,2.469,2.4476,2.3571,2.2927,2.2368,2.1909,0.0,0.0,0.0,2.1133,0.0,0.0,0.0,0.0,0.0,0.0,0.0,2.9998,3.1111,3.2177,3.3138,3.3426,3.3832,3.4396,3.3926,3.3526,3.3196,3.2889,3.2574,3.22,3.22,3.22,3.22,3.2472,3.2789,3.3169,3.3967,3.449,3.4856,3.5459,3.569,3.569,3.569,3.569,3.569,1.8239,1.9208,2.0336,2.145,2.2431,2.3083,2.3142,2.4096,2.5086,2.5853,2.6033,2.6371,2.7075,2.7096,2.7031,2.7006,2.7122,2.741,2.7919,2.7299,2.696,2.7061,2.616,2.5001,2.3572,2.2872,2.1744,2.0125,1.9597,1.8982,1.8292,1.8292,1.833,1.8455,1.9371,2.0339,2.1433,2.4415,2.6368,2.7546,2.8456,2.908,2.9521,2.9973,3.0137,3.0172,3.0638,3.103,3.1304,3.1304,3.0996,3.0867,3.2317,3.2502,3.2468,3.3829,3.4309,3.4247,3.3694,3.3504,3.3343,3.2771,3.216,3.1536,3.0974,3.0335,2.9682,2.9072,2.7998,2.7112,2.6952,2.6436,2.5882,2.5413,2.416,2.3056,2.2431,0.0,0.0,0.0,0.0,0.0,0.0,0.0,0.0,0.0,0.0,0.0,0.0,3.0441,3.1605,3.3227,3.3999,3.4408,3.4418,3.4231,3.3888,3.3335,3.265,3.2277,3.22,3.22,3.2241,3.235,3.287,3.3183,3.3414,3.4388,3.4843,3.4984,3.55,3.569,3.569,3.569,3.569,3.569,1.9715,2.0468,2.1331,2.2248,2.3271,2.4079,2.4417,2.4667,2.5156,2.6177,2.6191,2.631,2.6882,2.7448,2.7733,2.7565,2.8273,2.8448,2.7799,2.7919,2.784,2.7434,2.6505,2.5976,2.5904,2.4472,2.31,2.1856,2.1317,2.0313,1.8857,1.8857,1.9095,1.9535,1.9723,2.1391,2.4177,2.5461,2.6927,2.8375,2.8398,2.8968,2.9827,2.9913,3.0495,3.1239,3.1338,3.1143,3.0823,3.0823,3.0762,3.084,3.1775,3.2378,3.2861,3.3279,3.3808,3.4161,3.3836,3.3562,3.3337,3.3324,3.2996,3.2573,3.2244,3.1655,3.0988,3.0394,2.9653,2.8797,2.7739,2.6837,2.6438,2.6974,2.5429,2.4316,2.4741,0.0,0.0,0.0,0.0,2.2534,0.0,0.0,0.0,0.0,0.0,0.0,0.0,3.0,3.0916,3.2519,3.2781,3.3393,3.4466,3.3765,3.363,3.4109,3.3367,3.2739,3.22,3.22,3.2458,3.2952,3.3047,3.3639,3.4523,3.4727,3.5093,3.5554,3.5662,3.569,3.569,3.569,3.569,3.569,2.1756,2.2345,2.2984,2.385,2.4587,2.521,2.5575,2.5779,2.6106,2.673,2.6879,2.7158,2.7816,2.8106,2.8212,2.8126,2.8524,2.8627,2.8282,2.8446,2.8357,2.7925,2.757,2.7152,2.6623,2.574,2.47,2.3449,2.3017,2.2083,2.0714,2.0714,2.0701,2.0715,2.1483,2.3171,2.5535,2.6438,2.7459,2.8471,2.8934,2.9375,2.9809,3.0362,3.0836,3.1226,3.1505,3.1445,3.1269,3.1495,3.1362,3.1263,3.2056,3.236,3.2561,3.3406,3.3898,3.4127,3.4033,3.3882,3.3709,3.3468,3.338,3.3242,3.2809,3.263,3.2369,3.1714,3.1046,3.0264,2.9181,2.825,2.7838,2.8441,2.7288,2.6312,2.628,0.0,2.4501,0.0,0.0,0.0,0.0,0.0,0.0,0.0,0.0,0.0,0.0,2.9802,3.0624,3.235,3.3152,3.3668,3.394,3.3822,3.3768,3.3734,3.3013,3.2503,3.22,3.2531,3.283,3.3129,3.3734,3.4279,3.4816,3.5147,3.5445,3.569,3.569,3.569,3.569,3.569,3.569,3.569,2.3457,2.4038,2.4601,2.5196,2.5782,2.6247,2.6481,2.6829,2.7141,2.7287,2.7548,2.796,2.8664,2.8578,2.849,2.849,2.855,2.8618,2.8724,2.8784,2.8668,2.842,2.8445,2.8014,2.706,2.6827,2.6138,2.4958,2.4621,2.3626,2.2074,2.2468,2.2468,2.2201,2.3598,2.5016,2.645,2.7256,2.7986,2.864,2.9458,2.9801,2.997,3.0822,3.1102,3.1117,3.156,3.1705,3.1761,3.2125,3.1941,3.1648,3.2281,3.2293,3.2301,3.3487,3.3927,3.4074,3.4224,3.4203,3.4045,3.3599,3.3638,3.3643,3.3189,3.3343,3.3403,3.283,3.2177,3.1533,3.0954,3.0057,2.9531,2.9935,2.9117,2.8282,2.7893,0.0,0.0,0.0,0.0,0.0,2.4559,0.0,0.0,0.0,0.0,0.0,2.9367,2.9659,3.0599,3.2391,3.3665,3.4104,3.3668,3.3937,3.3854,3.3422,3.261,3.2268,3.2404,3.2884,3.3237,3.3504,3.4401,3.4856,3.5039,3.55,3.569,3.569,3.569,3.569,3.569,3.569,3.569,3.569,2.401,2.4916,2.5632,2.5339,2.6281,2.7021,2.6888,2.7289,2.7625,2.7645,2.7673,2.7902,2.847,2.851,2.849,2.849,2.8677,2.8705,2.855,2.8705,2.8799,2.8738,2.8314,2.8098,2.8165,2.7662,2.7114,2.6488,2.6109,2.4326,2.1336,2.3035,2.3985,2.4272,2.538,2.6427,2.7379,2.7799,2.8531,2.948,2.9399,2.9932,3.0778,3.0886,3.1223,3.1633,3.1693,3.1705,3.1717,3.1749,3.1725,3.1699,3.1765,3.2187,3.2664,3.2864,3.3356,3.3927,3.4358,3.4207,3.3962,3.4078,3.3874,3.3638,3.3706,3.3736,3.3702,3.345,3.2861,3.2525,3.2847,3.1916,3.1211,3.1607,3.0435,2.9642,3.0211,2.8897,2.811,2.8656,0.0,0.0,0.0,2.5626,0.0,0.0,0.0,0.0,0.0,2.9546,3.0782,3.2516,3.3299,3.3984,3.4576,3.3725,3.3596,3.4177,3.2846,3.2485,3.302,3.3074,3.3666,3.4659,3.4748,3.512,3.5622,3.5676,3.569,3.569,3.569,3.569,3.569,3.569,3.569,3.569,2.5879,2.6431,2.6778,2.6493,2.7118,2.7609,2.7404,2.8106,2.8667,2.8667,2.8667,2.8751,2.8967,2.9268,2.9328,2.9015,2.906,2.8976,2.8689,2.8637,2.8677,2.8803,2.8585,2.8468,2.8421,2.813,2.7826,2.7481,2.7249,2.6285,2.4698,2.5456,2.5811,2.5844,2.6478,2.7152,2.7841,2.8511,2.9016,2.9463,3.0019,3.0516,3.0937,3.125,3.1502,3.1705,3.1705,3.1705,3.1705,3.1705,3.1705,3.1705,3.1705,3.2167,3.2769,3.3199,3.3804,3.4384,3.4605,3.4553,3.4378,3.4103,3.3799,3.3605,3.3677,3.3589,3.3544,3.3661,3.338,3.3174,3.3339,3.3106,3.2914,3.3076,3.2367,3.1898,3.2058,3.0869,0.0,3.0221,0.0,2.8632,0.0,0.0,0.0,0.0,0.0,0.0,0.0,3.0116,3.0956,3.1971,3.3377,3.3864,3.3272,3.3659,3.3578,3.3044,3.2885,3.2909,3.3134,3.389,3.464,3.5337,3.5337,3.5486,3.569,3.569,3.569,3.569,3.569,3.569,3.573,3.6117,3.6252,3.6286,2.7144,2.7445,2.7573,2.7366,2.7917,2.8319,2.8186,2.8955,2.9532,2.9532,2.9665,2.9701,2.9544,2.9869,2.9962,2.9569,2.9532,2.9365,2.8983,2.8819,2.8727,2.8717,2.8705,2.8657,2.849,2.8412,2.8295,2.8147,2.7949,2.7342,2.6313,2.6217,2.651,2.7091,2.7333,2.7786,2.8406,2.904,2.9484,2.9854,3.06,3.0985,3.1178,3.1573,3.1705,3.1705,3.1705,3.1705,3.1705,3.1705,3.1705,3.1705,3.1705,3.2167,3.284,3.3513,3.4176,3.4747,3.4995,3.5066,3.491,3.4328,3.4069,3.3889,3.3647,3.3487,3.3441,3.3608,3.3548,3.3516,3.3767,3.3921,3.4107,3.4378,3.4137,3.3792,3.3453,3.2452,3.1631,3.1325,3.0945,0.0,3.0268,2.9618,0.0,0.0,0.0,0.0,2.9868,3.0701,3.1488,3.2199,3.3927,3.4258,3.299,3.386,3.3799,3.281,3.3314,3.3577,3.3678,3.473,3.5385,3.569,3.569,3.569,3.569,3.569,3.569,3.5717,3.5893,3.5947,3.6049,3.6646,3.6877,3.6944,2.7236,2.7624,2.7943,2.7724,2.8582,2.928,2.928,2.9737,3.0095,3.0095,3.0552,3.0672,3.0155,3.0107,3.0107,3.0095,3.0095,2.9845,2.9328,2.9292,2.9051,2.8534,2.849,2.849,2.849,2.851,2.8498,2.8498,2.8159,2.687,2.4725,2.44,2.5577,2.7977,2.7989,2.8479,2.928,2.9292,2.9914,3.0877,3.0889,3.1214,3.1705,3.1705,3.1705,3.1705,3.1705,3.1705,3.1705,3.1705,3.1705,3.1705,3.1705,3.2167,3.284,3.3513,3.4176,3.484,3.5507,3.569,3.554,3.4944,3.4795,3.458,3.3785,3.3601,3.3549,3.3343,3.329,3.3555,3.4445,3.4431,3.4602,3.552,3.5505,3.5068,3.4221,3.3489,3.2814,3.2063,3.082,0.0,3.0738,3.0306,0.0,0.0,0.0,3.0457,2.9744,3.1148,3.25,3.3651,3.4973,3.5323,3.4586,3.4392,3.4295,3.4279,3.4285,3.4528,3.4976,3.5476,3.5676,3.569,3.569,3.569,3.569,3.569,3.569,3.5757,3.6361,3.6592,3.6659,3.7276,3.7485,3.7485,2.7221,2.8104,2.8867,2.8799,2.9376,2.9854,2.9854,3.0311,3.0648,3.0648,3.1105,3.137,3.1202,3.1178,3.1033,3.0672,3.0648,3.0419,2.9869,2.9854,2.9605,2.9076,2.9051,2.8883,2.8522,2.849,2.849,2.849,2.8535,2.8176,2.7489,2.7387,2.7902,2.8887,2.8887,2.9233,2.9878,3.0239,3.0588,3.0903,3.0892,3.0996,3.1128,3.0802,3.0889,3.1146,3.1146,3.1398,3.1693,3.1693,3.1715,3.1771,3.2232,3.2828,3.3428,3.3641,3.4509,3.5426,3.5629,3.569,3.5649,3.5459,3.5106,3.4733,3.4475,3.3984,3.3472,3.2989,3.3517,3.4136,3.4423,3.5075,3.5687,3.5999,3.5869,3.5606,3.5242,3.4691,3.4204,3.3888,3.3536,3.3378,3.3445,3.2934,0.0,0.0,3.2285,3.1859,3.1171,3.1947,3.278,3.3612,3.4886,3.5217,3.4475,3.4846,3.5017,3.4968,3.4943,3.5174,3.5624,3.5681,3.569,3.569,3.569,3.569,3.569,3.569,3.5934,3.6334,3.6537,3.6863,3.729,3.7886,3.8117,3.8171,2.6931,2.7779,2.8587,2.8966,2.9475,2.9958,3.0332,3.0853,3.119,3.119,3.1478,3.1705,3.1705,3.1705,3.1573,3.1226,3.119,3.0973,3.0443,3.0407,3.0167,2.9617,2.9593,2.9436,2.9112,2.8907,2.8811,2.8811,2.8714,2.8794,2.8987,2.8987,2.9217,2.9593,2.9593,2.9893,3.0419,3.0756,3.0901,3.0886,3.0909,3.0909,3.0868,3.0571,3.0778,3.119,3.119,3.1426,3.169,3.169,3.1689,3.1815,3.2494,3.315,3.3755,3.4008,3.484,3.569,3.569,3.569,3.569,3.569,3.5418,3.5025,3.4572,3.3932,3.3308,3.2957,3.3451,3.4138,3.4743,3.5464,3.6086,3.643,3.6398,3.616,3.5762,3.5417,3.5089,3.4754,3.4765,3.4794,3.4708,3.4362,3.4054,0.0,3.3573,3.3372,3.3201,3.3287,3.3647,3.4299,3.5321,3.5522,3.4786,3.5429,3.5738,3.5717,3.584,3.603,3.6259,3.5893,3.569,3.569,3.569,3.5825,3.6049,3.6049,3.6381,3.6951,3.7202,3.7507,3.7913,3.851,3.8727,3.8759,2.6455,2.6824,2.7459,2.8388,2.9038,2.9746,3.0612,3.1304,3.1661,3.1617,3.1661,3.1705,3.1705,3.1705,3.1705,3.1705,3.1705,3.1478,3.0985,3.0949,3.072,3.0191,3.0167,3.0143,3.0107,2.9605,2.9352,2.9352,2.8859,2.8871,2.9352,2.9352,2.9641,3.0167,3.0167,3.0456,3.0949,3.0906,3.091,3.0904,3.0849,3.0858,3.0845,3.0856,3.1176,3.1634,3.1599,3.1621,3.1645,3.161,3.1598,3.1727,3.2472,3.3129,3.3776,3.4488,3.5168,3.569,3.569,3.569,3.569,3.569,3.569,3.5378,3.4179,3.355,3.3229,3.3209,3.3283,3.3805,3.5306,3.5627,3.596,3.6816,3.6969,3.6674,3.5871,3.5763,3.5515,3.4911,3.4833,3.4833,3.4833,3.4833,3.4774,3.4641,3.4627,3.492,3.552,3.5025,3.4979,3.5552,3.6168,3.6194,3.554,3.6155,3.6499,3.6553,3.7028,3.7126,3.6878,3.6117,3.575,3.569,3.573,3.609,3.6605,3.6646,3.7005,3.7629,3.8185,3.8429,3.8524,3.9102,3.9225,3.9069,2.5979,2.6921,2.7796,2.802,2.915,2.9828,2.9296,3.063,3.1427,3.0655,3.1215,3.1705,3.1705,3.1705,3.1705,3.1705,3.1705,3.1657,3.1524,3.1524,3.1262,3.0732,3.0708,3.0516,3.0119,2.9986,2.9914,2.9914,2.9773,2.9785,2.9914,2.9914,3.0203,3.0708,3.0708,3.1009,3.1468,3.1071,3.0898,3.086,3.0502,3.0358,3.0364,3.0374,3.0661,3.105,3.0672,3.0776,3.1027,3.0689,3.0571,3.0791,3.2193,3.2735,3.3088,3.435,3.5168,3.569,3.569,3.569,3.569,3.569,3.569,3.5378,3.4179,3.4228,3.4283,3.3381,3.4109,3.5009,3.5368,3.5896,3.6367,3.6585,3.6616,3.6554,3.6338,3.6307,3.6245,3.6091,3.606,3.606,3.606,3.606,3.6026,3.588,3.5963,3.6058,3.6099,3.6056,3.6122,3.6261,3.643,3.6659,3.6991,3.7159,3.7446,3.7866,3.8481,3.8119,3.6897,3.6702,3.6282,3.573,3.6198,3.6469,3.6632,3.71,3.7642,3.8198,3.8334,3.8673,3.9102,3.9251,3.8684,3.7805,2.5486,2.6225,2.7038,2.7515,2.8446,2.9124,2.8996,3.0084,3.0813,3.0514,3.0948,3.1398,3.1663,3.1705,3.1705,3.1705,3.1705,3.1705,3.1705,3.1705,3.1563,3.1274,3.1262,3.1129,3.0841,3.0588,3.0359,3.0107,3.0107,3.0112,3.0138,3.0361,3.0616,3.09,3.1174,3.1287,3.1328,3.1016,3.0785,3.0572,3.0311,3.0338,3.052,3.0526,3.0679,3.0865,3.0614,3.0559,3.0547,3.0302,3.0491,3.1048,3.2224,3.2929,3.3496,3.4571,3.5216,3.5562,3.5562,3.5642,3.569,3.569,3.5486,3.5131,3.4538,3.4497,3.4524,3.426,3.483,3.5497,3.5847,3.6227,3.6507,3.6507,3.6507,3.6507,3.6507,3.6507,3.6507,3.6507,3.6507,3.6507,3.6507,3.6507,3.6461,3.6407,3.6461,3.6477,3.6391,3.6461,3.6507,3.6507,3.6799,3.7138,3.7507,3.8123,3.8524,3.8763,3.8765,3.8096,3.6897,3.652,3.6254,3.6144,3.6456,3.6917,3.746,3.7778,3.8266,3.8795,3.8671,3.883,3.9056,3.8468,3.7805,3.7101,2.519,2.5527,2.6064,2.6931,2.7586,2.8251,2.9077,2.9785,3.038,3.0786,3.095,3.1227,3.1654,3.1705,3.1705,3.1705,3.1705,3.1705,3.1705,3.1705,3.1705,3.1705,3.1705,3.1705,3.1705,3.1238,3.0792,3.0347,3.0347,3.0331,3.0314,3.0717,3.0856,3.0802,3.1284,3.1217,3.0792,3.0724,3.0491,3.0189,3.0196,3.0431,3.0799,3.0865,3.0854,3.0777,3.0701,3.0423,3.0083,3.0005,3.0617,3.1502,3.2224,3.3122,3.4063,3.4784,3.5134,3.5318,3.5358,3.5501,3.5649,3.569,3.5322,3.4963,3.4994,3.4699,3.463,3.5258,3.548,3.5753,3.6383,3.6507,3.6507,3.6507,3.6507,3.6507,3.6507,3.6507,3.6507,3.6507,3.6507,3.6507,3.6507,3.6507,3.6507,3.6507,3.6507,3.6538,3.6645,3.6645,3.6692,3.6799,3.7261,3.76,3.78,3.903,3.9581,3.9463,3.8672,3.7852,3.7,3.6319,3.6219,3.6564,3.6774,3.7439,3.8358,3.8439,3.8756,3.9172,3.8944,3.8841,3.8706,3.7471,3.6879,3.6492,2.561,2.5986,2.6329,2.6502,2.7575,2.8483,2.8686,3.0211,3.1264,3.1008,3.1702,3.2094,3.1743,3.1705,3.1705,3.1705,3.1705,3.1705,3.1705,3.1705,3.1705,3.1705,3.1705,3.1705,3.1705,3.1633,3.1548,3.1442,3.1442,3.1214,3.0787,3.0876,3.0687,3.0306,3.0397,3.0397,3.0284,2.9897,2.9916,3.0199,3.0191,3.0236,3.0362,3.0745,3.0657,3.0264,2.9849,2.9681,2.9542,2.9149,2.9645,3.0576,3.1466,3.242,3.3348,3.4238,3.4701,3.4921,3.5106,3.5297,3.5501,3.5649,3.5723,3.5589,3.5106,3.5506,3.5861,3.5485,3.5895,3.6352,3.6476,3.6507,3.6507,3.6507,3.6507,3.6507,3.6507,3.6507,3.6507,3.6507,3.6507,3.6507,3.6507,3.6507,3.6507,3.6507,3.6507,3.6738,3.7307,3.7338,3.76,3.8168,3.7738,3.803,3.9184,3.9968,4.033,4.0301,3.9499,3.8602,3.7663,3.7521,3.7056,3.641,3.7605,3.8139,3.8181,3.8652,3.8774,3.8701,3.867,3.8647,3.8508,3.7415,3.6315,3.5233,2.6084,2.6299,2.6558,2.6699,2.7374,2.7953,2.8095,2.9577,3.0734,3.0884,3.156,3.2028,3.2121,3.1863,3.1705,3.1705,3.1705,3.1705,3.1705,3.1705,3.1705,3.1705,3.1705,3.1705,3.1705,3.1705,3.1361,3.0689,3.0689,3.0068,2.8923,2.9612,2.9669,2.9199,2.9886,3.0057,2.9806,2.96,2.9614,2.9833,2.9825,2.998,3.0207,3.045,3.0231,2.9784,2.9589,2.9338,2.9086,2.8869,2.9749,3.1034,3.1466,3.2593,3.3848,3.4259,3.4577,3.4839,3.5044,3.5256,3.544,3.5607,3.5523,3.546,3.5671,3.576,3.584,3.5972,3.6273,3.6507,3.6507,3.6507,3.6507,3.6507,3.6507,3.6507,3.6507,3.6507,3.6507,3.6507,3.6507,3.6507,3.6507,3.683,3.703,3.703,3.7369,3.7707,3.8031,3.8046,3.8338,3.9014,3.8738,3.9012,3.9925,4.0247,4.0331,4.0224,3.9273,3.8581,3.8102,3.7521,3.718,3.7088,3.7745,3.8139,3.8394,3.8626,3.8679,3.858,3.843,3.8372,3.819,3.6447,3.5438,3.4727,2.6514,2.6715,2.692,2.7129,2.7422,2.7744,2.814,2.9087,2.9962,3.0556,3.0908,3.1247,3.1572,3.1262,3.1003,3.1003,3.1003,3.1003,3.1003,3.0936,3.1082,3.1506,3.1417,3.1395,3.1506,3.1417,3.088,2.9886,2.9715,2.89,2.7474,2.8272,2.847,2.819,2.9153,2.9497,2.9324,2.9324,2.9404,2.9512,2.9512,2.9707,3.0046,3.0046,2.974,2.9338,2.9338,2.925,2.9129,2.9129,3.0362,3.1928,3.1928,3.3045,3.4397,3.4397,3.4464,3.4598,3.4943,3.5183,3.5344,3.5482,3.5372,3.5361,3.6037,3.5863,3.5753,3.632,3.6476,3.6507,3.6507,3.6507,3.6507,3.6507,3.6507,3.6507,3.6507,3.6507,3.6476,3.643,3.6583,3.6644,3.6628,3.7386,3.7836,3.7675,3.833,3.8718,3.8739,3.8689,3.8946,3.9603,3.9687,3.9931,4.0296,4.0312,4.0162,3.9887,3.8884,3.8337,3.8206,3.7385,3.7253,3.7626,3.7838,3.8144,3.8512,3.8512,3.8489,3.8434,3.8203,3.7985,3.7523,3.5547,3.4629,3.4165,2.6894,2.7305,2.7614,2.7643,2.7985,2.8568,2.9593,2.9498,2.9541,3.0082,2.9856,2.9481,2.9022,2.8934,2.8935,2.8935,2.8935,2.8935,2.8935,2.8691,2.928,3.0892,3.0532,3.051,3.0949,3.0532,3.0261,3.017,2.9486,2.8818,2.8202,2.7615,2.746,2.766,2.7754,2.8188,2.885,2.885,2.91,2.9512,2.9512,2.9523,2.9556,2.9556,2.9261,2.8858,2.8858,2.9382,3.0102,3.0102,3.1334,3.2895,3.2895,3.3581,3.4397,3.4397,3.4065,3.3839,3.4624,3.4922,3.5077,3.5275,3.5532,3.5749,3.5825,3.5992,3.6148,3.6211,3.6367,3.6507,3.6507,3.6507,3.6507,3.6507,3.6507,3.6507,3.6507,3.6507,3.643,3.6242,3.6777,3.711,3.6977,3.8243,3.8823,3.8203,3.8949,3.9422,3.9417,3.9247,3.9398,3.9957,4.0255,4.0389,4.0312,4.0312,4.0075,3.9622,3.8784,3.8165,3.7749,3.7668,3.7564,3.7466,3.8219,3.8413,3.8236,3.8236,3.8112,3.7946,3.7923,3.7307,3.632,3.521,3.4165,3.3151,2.7393,2.779,2.8083,2.8083,2.7891,2.7904,2.8438,2.8727,2.9163,2.9984,3.0279,3.0452,3.056,3.0547,3.043,3.0091,3.0068,3.0068,3.0068,2.9715,2.9566,2.9783,3.0318,3.0578,3.0465,3.0284,2.96,2.8342,2.8062,2.7189,2.5761,2.6446,2.6829,2.6948,2.7917,2.8513,2.8803,2.8803,2.8902,2.9077,2.9077,2.9077,2.9077,2.9077,2.8967,2.8803,2.8803,2.9394,3.0192,3.0192,3.1444,3.3002,3.3002,3.3645,3.4397,3.4397,3.4328,3.4353,3.4647,3.4608,3.4533,3.465,3.5246,3.5809,3.5908,3.5996,3.6084,3.6084,3.6132,3.621,3.6305,3.6305,3.6352,3.6476,3.6507,3.6507,3.6507,3.7219,3.7561,3.706,3.8263,3.8764,3.783,3.8939,3.9425,3.8752,3.939,3.9811,3.981,3.9741,3.9792,3.9996,4.053,4.0728,4.0549,4.0549,4.0597,4.0702,3.9653,3.9038,3.8852,3.8153,3.7778,3.7723,3.8024,3.8116,3.8011,3.8011,3.7956,3.7831,3.7168,3.6662,3.6107,3.4422,3.3549,3.3062,2.7858,2.8015,2.8122,2.8122,2.7646,2.7324,2.7467,2.7732,2.8171,2.8852,2.9093,2.9335,2.9664,2.9608,2.9521,2.9406,2.9383,2.935,2.9216,2.8966,2.8907,2.9096,2.9383,2.9429,2.9268,2.9107,2.8353,2.6986,2.6737,2.6037,2.4947,2.5756,2.6374,2.6877,2.7964,2.856,2.8803,2.8803,2.8803,2.8803,2.8803,2.8803,2.8803,2.8803,2.8803,2.885,2.9129,2.984,3.0677,3.099,3.2125,3.3441,3.3441,3.389,3.446,3.4737,3.4768,3.4787,3.5067,3.4849,3.4556,3.4565,3.5157,3.5731,3.5822,3.5878,3.591,3.591,3.5957,3.6037,3.6116,3.6148,3.6179,3.632,3.6538,3.677,3.7002,3.7854,3.8415,3.8294,3.9407,3.9787,3.8703,3.9983,4.0505,3.961,4.0213,4.0422,3.9943,3.9907,3.9962,4.0121,4.0574,4.0957,4.122,4.1079,4.11,4.1265,4.0452,3.9851,3.9455,3.8675,3.8171,3.79,3.79,3.79,3.7877,3.7528,3.7413,3.7284,3.6225,3.5618,3.515,3.3735,3.2976,3.2586,2.8203,2.7976,2.7682,2.7682,2.7295,2.6986,2.6986,2.665,2.6387,2.6412,2.5775,2.5308,2.5333,2.5113,2.525,2.6052,2.6125,2.5936,2.5533,2.5678,2.6775,2.8981,2.7413,2.6733,2.7189,2.6733,2.6504,2.648,2.5674,2.5708,2.6456,2.5674,2.6133,2.7589,2.7589,2.8047,2.8803,2.8803,2.8803,2.8803,2.8803,2.8803,2.8803,2.8803,2.8803,2.8908,2.9852,3.0811,3.1731,3.2679,3.3624,3.4397,3.4397,3.4384,3.4571,3.5447,3.5275,3.4989,3.5857,3.5718,3.5305,3.523,3.5356,3.5504,3.5504,3.5605,3.5704,3.5704,3.5863,3.6005,3.6005,3.6005,3.6005,3.6005,3.6631,3.7367,3.8087,3.8337,3.8819,3.9867,4.0008,3.9895,3.9545,4.1502,4.2205,4.0789,4.1494,4.1312,3.9788,3.9696,3.9908,4.04,4.0412,4.1059,4.2396,4.1938,4.1483,4.1007,4.1007,4.037,3.921,3.921,3.8715,3.79,3.79,3.79,3.7831,3.6745,3.6296,3.6202,3.5186,3.4141,3.3201,3.3176,3.251,3.1593,2.7858,2.737,2.6914,2.6914,2.6413,2.6034,2.6034,2.5645,2.58,2.7078,2.7041,2.7234,2.8141,2.8481,2.8353,2.7696,2.7649,2.7296,2.653,2.5302,2.5242,2.6643,2.6882,2.689,2.671,2.6566,2.6215,2.5659,2.5416,2.5157,2.4898,2.5182,2.5843,2.6863,2.7376,2.8047,2.8803,2.8803,2.8803,2.8803,2.8803,2.8803,2.8803,2.8803,2.8803,2.8908,2.9852,3.0811,3.1731,3.2679,3.3624,3.4332,3.3953,3.3835,3.4006,3.484,3.5307,3.5753,3.6633,3.6824,3.6527,3.5525,3.5392,3.5504,3.5504,3.5522,3.557,3.557,3.5619,3.5668,3.5767,3.618,3.6677,3.7297,3.7976,3.8501,3.8733,4.0046,4.0738,4.0087,4.1167,4.1741,4.1176,4.1579,4.1509,4.0633,4.0307,3.997,3.9517,3.9949,4.0276,4.0397,4.1313,4.2006,4.2396,4.2274,4.2343,4.2614,4.2,4.1173,4.0159,3.9505,3.8715,3.79,3.79,3.79,3.7831,3.6745,3.6296,3.6131,3.4349,3.3474,3.3101,3.2359,3.1863,3.1593,2.7299,2.6779,2.6327,2.6216,2.5796,2.5444,2.5345,2.5176,2.5411,2.6408,2.6446,2.6662,2.7437,2.7709,2.7628,2.7166,2.6977,2.6581,2.5836,2.4431,2.3836,2.4322,2.524,2.569,2.5586,2.5586,2.5353,2.4864,2.4864,2.4799,2.4627,2.5099,2.5868,2.6948,2.74,2.8047,2.8803,2.8803,2.8803,2.8803,2.8803,2.8803,2.8803,2.8803,2.9024,2.9486,3.0407,3.1356,3.2299,3.325,3.379,3.4041,3.3754,3.3847,3.43,3.5435,3.624,3.6986,3.7832,3.7934,3.7585,3.6738,3.6219,3.5893,3.5893,3.5684,3.5504,3.5504,3.5504,3.5603,3.5911,3.6552,3.7282,3.8074,3.903,3.9777,4.0068,4.1225,4.1919,4.1578,4.231,4.2647,4.2158,4.2013,4.1542,4.0581,4.0076,3.9823,3.9798,4.0187,4.0636,4.1179,4.1991,4.2515,4.2765,4.2416,4.2415,4.2795,4.2237,4.1317,4.0029,3.9461,3.8715,3.79,3.79,3.79,3.7805,3.6491,3.5723,3.5214,3.3307,3.2459,3.2218,3.1551,3.1429,3.1593,2.6621,2.6208,2.5794,2.5585,2.5345,2.5113,2.4858,2.5039,2.5137,2.4956,2.4726,2.4603,2.4677,2.4514,2.4652,2.5246,2.4862,2.4449,2.4106,2.3303,2.2698,2.2405,2.307,2.366,2.4137,2.4183,2.4202,2.4202,2.4202,2.4529,2.5197,2.527,2.6085,2.7494,2.7565,2.8047,2.8803,2.8803,2.8803,2.8803,2.8803,2.8803,2.8803,2.8885,2.9463,3.0317,3.1356,3.2277,3.313,3.404,3.3989,3.3567,3.3692,3.4217,3.5121,3.6673,3.7636,3.8371,3.9174,3.896,3.8482,3.8482,3.7569,3.6675,3.6682,3.6107,3.561,3.566,3.5632,3.5764,3.6382,3.7141,3.7919,3.8663,3.996,4.11,4.1772,4.2037,4.2555,4.3651,4.3237,4.2821,4.2695,4.2632,4.2045,4.0686,4.0576,4.0532,4.0404,4.0502,4.1149,4.2366,4.2455,4.2711,4.319,4.2395,4.199,4.199,4.1908,4.0944,3.921,3.921,3.8715,3.79,3.7808,3.7723,3.7563,3.5854,3.4604,3.3636,3.2084,3.1211,3.0843,3.0876,3.1181,3.1538,2.6423,2.5567,2.4867,2.5024,2.4702,2.4424,2.435,2.4399,2.4612,2.5157,2.5148,2.5367,2.5998,2.6022,2.5805,2.5343,2.4365,2.3841,2.4017,2.3024,2.2649,2.3148,2.307,2.3224,2.3642,2.4012,2.4202,2.4202,2.4202,2.4276,2.444,2.5035,2.5795,2.6757,2.7352,2.8047,2.8803,2.8803,2.8803,2.8803,2.8803,2.8803,2.8896,2.9623,3.0011,3.0407,3.2103,3.283,3.308,3.3599,3.3483,3.3144,3.3146,3.4022,3.5237,3.6209,3.7306,3.8371,3.9174,3.9287,3.9167,3.9167,3.8571,3.8011,3.804,3.7134,3.6434,3.696,3.661,3.6427,3.7139,3.821,3.941,4.0718,4.1583,4.218,4.24,4.2897,4.3161,4.2911,4.2758,4.2851,4.3342,4.2912,4.2237,4.1343,4.1236,4.097,4.0419,4.1403,4.2111,4.2396,4.2865,4.2842,4.2293,4.2093,4.199,4.199,4.1254,4.031,3.921,3.921,3.8715,3.7854,3.7015,3.6445,3.5945,3.3958,3.2779,3.2168,3.0974,3.0435,3.0406,3.0766,3.0963,3.1105,2.5669,2.5034,2.4514,2.4563,2.444,2.4325,2.4202,2.4276,2.444,2.475,2.4775,2.4947,2.5353,2.5401,2.5231,2.4815,2.4196,2.3719,2.3486,2.2926,2.2585,2.2603,2.2589,2.2794,2.3206,2.3633,2.3984,2.4202,2.4202,2.4202,2.4226,2.4962,2.5732,2.6528,2.7258,2.8047,2.8803,2.8803,2.8803,2.8803,2.8803,2.871,2.871,2.9658,3.0294,3.0866,3.2333,3.3034,3.3291,3.3311,3.3171,3.3067,3.3499,3.4553,3.5812,3.6594,3.7747,3.8867,3.9283,3.9406,3.9406,3.9406,3.9392,3.9325,3.9043,3.8199,3.7629,3.8324,3.8154,3.8091,3.8808,3.9767,4.0791,4.1856,4.258,4.3048,4.3063,4.3387,4.3462,4.3128,4.3066,4.3098,4.3128,4.2491,4.1771,4.1092,4.0955,4.091,4.0883,4.1837,4.2526,4.2821,4.3145,4.309,4.2618,4.1769,4.1338,4.1317,4.0375,3.9467,3.8571,3.8571,3.805,3.7095,3.6313,3.5533,3.4721,3.3136,3.2054,3.1341,3.0526,3.0072,2.9925,3.0395,3.0854,3.128,2.4932,2.4661,2.4415,2.4276,2.4365,2.439,2.4226,2.4341,2.439,2.4226,2.4202,2.4202,2.4202,2.4202,2.4202,2.4202,2.4202,2.3856,2.3023,2.2931,2.2547,2.1733,2.2094,2.2497,2.2895,2.3288,2.3691,2.4053,2.4152,2.4152,2.4078,2.506,2.5868,2.6528,2.74,2.8175,2.8803,2.8803,2.8803,2.8803,2.8803,2.8746,2.8816,2.9749,3.0665,3.1565,3.2485,3.3066,3.333,3.3022,3.2998,3.3266,3.4043,3.5264,3.6573,3.7215,3.8344,3.9406,3.9406,3.9499,3.9589,3.9589,4.0128,4.0563,4.0124,3.9423,3.904,3.9723,3.9767,3.9873,4.0549,4.1279,4.196,4.2596,4.3201,4.3598,4.3598,4.3598,4.3598,4.3598,4.3598,4.3342,4.2663,4.2045,4.136,4.0564,4.0539,4.0815,4.1358,4.2051,4.269,4.3275,4.315,4.2996,4.284,4.1197,4.0281,4.013,3.9343,3.8594,3.79,3.79,3.7348,3.6391,3.5633,3.4729,3.3656,3.248,3.1458,3.057,3.0137,2.9721,2.9434,2.9821,3.0475,3.1172,2.4907,2.4538,2.4301,2.443,2.4341,2.4226,2.4202,2.4226,2.4226,2.4202,2.4202,2.4202,2.4202,2.4202,2.4202,2.4202,2.4202,2.3929,2.3303,2.3032,2.2547,2.1733,2.2094,2.2497,2.2895,2.3288,2.3462,2.3404,2.3945,2.392,2.3454,2.5431,2.6408,2.6552,2.8011,2.8699,2.8803,2.8803,2.8803,2.8803,2.8803,2.9256,3.0056,3.1,3.1831,3.2556,3.3049,3.2953,3.2552,3.2494,3.3024,3.3741,3.4048,3.5483,3.7124,3.7351,3.8344,3.9406,3.9406,3.9877,4.0339,4.0339,4.0856,4.151,4.2061,4.1167,4.0436,4.1156,4.0809,4.0581,4.1318,4.195,4.26,4.3319,4.3532,4.3598,4.3598,4.3598,4.3598,4.3598,4.3598,4.3342,4.2663,4.2522,4.19,4.0598,4.0973,4.1304,4.1396,4.2051,4.269,4.3275,4.2557,4.179,4.0972,3.9921,3.9015,3.8262,3.8139,3.8001,3.79,3.79,3.7544,3.681,3.5005,3.365,3.2553,3.0681,2.9592,2.9089,2.9023,2.8952,2.8907,2.9026,2.9222,2.9434,2.4686,2.4424,2.4226,2.4316,2.4251,2.4202,2.4202,2.4202,2.4202,2.4202,2.4202,2.4202,2.4202,2.4202,2.4202,2.4202,2.3966,2.3587,2.3105,2.2748,2.2323,2.1723,2.1883,2.2254,2.2895,2.3078,2.3196,2.3304,2.3895,2.4044,2.3836,2.5197,2.6071,2.6552,2.7647,2.8303,2.8581,2.8581,2.8501,2.842,2.9106,2.9452,2.9784,3.1545,3.2105,3.2013,3.2333,3.2507,3.2576,3.2704,3.3201,3.3917,3.4522,3.5853,3.7228,3.7368,3.8644,4.0005,4.0005,4.0529,4.1058,4.1058,4.1591,4.2206,4.2538,4.2404,4.2315,4.2636,4.2451,4.2319,4.2664,4.2922,4.3218,4.3549,4.3598,4.3598,4.3598,4.3598,4.3598,4.3598,4.3598,4.3477,4.3189,4.2443,4.1722,4.1126,4.0918,4.084,4.0834,4.1478,4.173,4.1533,4.1137,4.0524,3.9661,3.8721,3.806,3.7664,3.7161,3.7077,3.7403,3.7403,3.6476,3.4809,3.3663,3.2274,3.0742,2.9572,2.9,2.8803,2.8803,2.9108,2.9537,2.9074,2.9298,2.977]},{"header":{"parameterUnit":"m.s-1","parameterCategory":1,"la1":30.6,"la2":28.766,"lo1":-90.7593,"lo2":-88.6598,"dx":0.0162,"dy":0.0183,"nx":116,"ny":114,"refTime":"2023-01-04T18:00:00:Z","depth":0,"parameterNumber":3,"parameterNumberName":"V-component_of_WINDS"},"data":[0.0,0.0,0.0,0.0,0.0,0.0,0.0,0.0,0.0,0.0,0.0,0.0,0.0,0.0,0.0,0.0,0.0,0.0,0.0,0.0,0.0,0.0,0.0,0.0,0.0,0.0,0.0,0.0,0.0,0.0,0.0,0.0,0.0,0.0,0.0,0.0,0.0,0.0,0.0,0.0,0.0,0.0,0.0,0.0,0.0,0.0,0.0,0.0,0.0,0.0,0.0,0.0,0.0,0.0,0.0,0.0,0.0,0.0,0.0,0.0,0.0,0.0,0.0,0.0,0.0,0.0,0.0,0.0,0.0,0.0,0.0,0.0,0.0,0.0,0.0,0.0,0.0,0.0,0.0,0.0,0.0,0.0,0.0,0.0,0.0,0.0,0.0,0.0,0.0,0.0,0.0,0.0,0.0,0.0,0.0,0.0,0.0,0.0,0.0,0.0,0.0,0.0,0.0,0.0,0.0,0.0,0.0,0.0,0.0,0.0,0.0,0.0,0.0,0.0,0.0,0.0,0.0,0.0,0.0,0.0,0.0,0.0,0.0,0.0,0.0,0.0,0.0,0.0,0.0,0.0,0.0,0.0,0.0,0.0,0.0,0.0,0.0,0.0,0.0,0.0,0.0,0.0,0.0,0.0,0.0,0.0,0.0,0.0,0.0,0.0,0.0,0.0,0.0,0.0,0.0,0.0,0.0,0.0,0.0,0.0,0.0,0.0,0.0,0.0,0.0,0.0,0.0,0.0,0.0,0.0,0.0,0.0,0.0,0.0,0.0,0.0,0.0,0.0,0.0,0.0,0.0,0.0,0.0,0.0,0.0,0.0,0.0,0.0,0.0,0.0,0.0,0.0,0.0,0.0,0.0,0.0,0.0,0.0,0.0,0.0,0.0,0.0,0.0,0.0,0.0,0.0,0.0,0.0,0.0,0.0,0.0,0.0,0.0,0.0,0.0,0.0,0.0,0.0,0.0,0.0,0.0,0.0,0.0,0.0,0.0,0.0,0.0,0.0,0.0,0.0,0.0,0.0,0.0,0.0,0.0,0.0,0.0,0.0,0.0,0.0,0.0,0.0,0.0,0.0,0.0,0.0,0.0,0.0,0.0,0.0,0.0,0.0,0.0,0.0,0.0,0.0,0.0,0.0,0.0,0.0,0.0,0.0,0.0,0.0,0.0,0.0,0.0,0.0,0.0,0.0,0.0,0.0,0.0,0.0,0.0,0.0,0.0,0.0,0.0,0.0,0.0,0.0,0.0,0.0,0.0,0.0,0.0,0.0,0.0,0.0,0.0,0.0,0.0,0.0,0.0,0.0,0.0,0.0,0.0,0.0,0.0,0.0,0.0,0.0,0.0,0.0,0.0,0.0,0.0,0.0,0.0,0.0,0.0,0.0,0.0,0.0,0.0,0.0,0.0,0.0,0.0,0.0,0.0,0.0,0.0,0.0,0.0,0.0,0.0,0.0,0.0,0.0,0.0,0.0,0.0,0.0,0.0,0.0,0.0,0.0,0.0,0.0,0.0,0.0,0.0,0.0,0.0,0.0,0.0,0.0,0.0,0.0,0.0,0.0,0.0,0.0,0.0,0.0,0.0,0.0,0.0,0.0,0.0,0.0,0.0,0.0,0.0,0.0,0.0,0.0,0.0,0.0,0.0,0.0,0.0,0.0,0.0,0.0,0.0,0.0,0.0,0.0,0.0,0.0,0.0,0.0,0.0,0.0,0.0,0.0,0.0,0.0,0.0,0.0,0.0,0.0,0.0,0.0,0.0,0.0,0.0,0.0,0.0,0.0,0.0,0.0,0.0,0.0,0.0,0.0,0.0,0.0,0.0,0.0,0.0,0.0,0.0,0.0,0.0,0.0,0.0,0.0,0.0,0.0,0.0,0.0,0.0,0.0,0.0,0.0,0.0,0.0,0.0,0.0,0.0,0.0,0.0,0.0,0.0,0.0,0.0,0.0,0.0,0.0,0.0,0.0,0.0,0.0,0.0,0.0,0.0,0.0,0.0,0.0,0.0,0.0,0.0,0.0,0.0,0.0,0.0,0.0,0.0,0.0,0.0,0.0,0.0,0.0,0.0,0.0,0.0,0.0,0.0,0.0,0.0,0.0,0.0,0.0,0.0,0.0,0.0,0.0,0.0,0.0,0.0,0.0,0.0,0.0,0.0,0.0,0.0,0.0,0.0,0.0,0.0,0.0,0.0,0.0,0.0,0.0,0.0,0.0,0.0,0.0,0.0,0.0,0.0,0.0,0.0,0.0,0.0,0.0,0.0,0.0,0.0,0.0,0.0,0.0,0.0,0.0,0.0,0.0,0.0,0.0,0.0,0.0,0.0,0.0,0.0,0.0,0.0,0.0,0.0,0.0,0.0,0.0,0.0,0.0,0.0,0.0,0.0,0.0,0.0,0.0,0.0,0.0,0.0,0.0,0.0,0.0,0.0,0.0,0.0,0.0,0.0,0.0,0.0,0.0,0.0,0.0,0.0,0.0,0.0,0.0,0.0,0.0,0.0,0.0,0.0,0.0,0.0,0.0,0.0,0.0,0.0,0.0,0.0,0.0,0.0,0.0,0.0,0.0,0.0,0.0,0.0,0.0,0.0,0.0,0.0,0.0,0.0,0.0,0.0,0.0,0.0,0.0,0.0,0.0,0.0,0.0,0.0,0.0,0.0,0.0,0.0,0.0,0.0,0.0,0.0,0.0,0.0,0.0,0.0,0.0,0.0,0.0,0.0,0.0,0.0,0.0,0.0,0.0,0.0,0.0,0.0,0.0,0.0,0.0,0.0,0.0,0.0,0.0,0.0,0.0,0.0,0.0,0.0,0.0,0.0,0.0,0.0,0.0,0.0,0.0,0.0,0.0,0.0,0.0,0.0,0.0,0.0,0.0,0.0,0.0,0.0,0.0,0.0,0.0,0.0,0.0,0.0,0.0,0.0,0.0,0.0,0.0,0.0,0.0,0.0,0.0,0.0,0.0,0.0,0.0,0.0,0.0,0.0,0.0,0.0,0.0,0.0,0.0,0.0,0.0,0.0,0.0,0.0,0.0,0.0,0.0,0.0,0.0,0.0,0.0,0.0,0.0,0.0,0.0,0.0,0.0,0.0,0.0,0.0,0.0,0.0,0.0,0.0,0.0,0.0,0.0,0.0,0.0,0.0,0.0,0.0,0.0,0.0,0.0,0.0,0.0,0.0,0.0,0.0,0.0,0.0,0.0,0.0,0.0,0.0,0.0,0.0,0.0,0.0,0.0,0.0,0.0,0.0,0.0,0.0,0.0,0.0,0.0,0.0,0.0,0.0,0.0,0.0,0.0,0.0,0.0,0.0,0.0,0.0,0.0,0.0,0.0,0.0,0.0,0.0,0.0,0.0,0.0,0.0,0.0,0.0,0.0,0.0,0.0,0.0,0.0,0.0,0.0,0.0,0.0,0.0,0.0,0.0,0.0,0.0,0.0,0.0,0.0,0.0,0.0,0.0,0.0,0.0,0.0,0.0,0.0,0.0,0.0,0.0,0.0,0.0,0.0,0.0,0.0,0.0,0.0,0.0,0.0,0.0,0.0,0.0,0.0,0.0,0.0,0.0,0.0,0.0,0.0,0.0,0.0,0.0,0.0,0.0,0.0,0.0,0.0,0.0,0.0,0.0,0.0,0.0,0.0,0.0,0.0,0.0,0.0,0.0,0.0,0.0,0.0,0.0,0.0,0.0,0.0,0.0,0.0,0.0,0.0,0.0,0.0,0.0,0.0,0.0,0.0,0.0,0.0,0.0,0.0,0.0,0.0,0.0,0.0,0.0,0.0,0.0,0.0,0.0,0.0,0.0,0.0,0.0,0.0,0.0,0.0,0.0,0.0,0.0,0.0,0.0,0.0,0.0,0.0,0.0,0.0,0.0,0.0,0.0,0.0,0.0,0.0,0.0,0.0,0.0,0.0,0.0,0.0,0.0,0.0,0.0,0.0,0.0,0.0,0.0,0.0,0.0,0.0,0.0,0.0,0.0,0.0,0.0,0.0,0.0,0.0,0.0,0.0,0.0,0.0,0.0,0.0,0.0,0.0,0.0,0.0,0.0,0.0,0.0,0.0,0.0,0.0,0.0,0.0,0.0,0.0,0.0,0.0,0.0,0.0,0.0,0.0,0.0,0.0,0.0,0.0,0.0,0.0,0.0,0.0,0.0,0.0,0.0,0.0,0.0,0.0,0.0,0.0,0.0,0.0,0.0,0.0,0.0,0.0,0.0,0.0,0.0,0.0,0.0,0.0,0.0,0.0,0.0,0.0,0.0,0.0,0.0,0.0,0.0,0.0,0.0,0.0,0.0,0.0,0.0,0.0,0.0,0.0,0.0,0.0,0.0,0.0,0.0,0.0,0.0,0.0,0.0,0.0,0.0,0.0,0.0,0.0,0.0,0.0,0.0,0.0,0.0,0.0,0.0,0.0,0.0,0.0,0.0,0.0,0.0,0.0,0.0,0.0,0.0,0.0,0.0,0.0,0.0,0.0,0.0,0.0,0.0,0.0,0.0,0.0,0.0,0.0,0.0,0.0,0.0,0.0,0.0,0.0,0.0,0.0,0.0,0.0,0.0,0.0,0.0,0.0,0.0,0.0,0.0,0.0,0.0,0.0,0.0,0.0,0.0,0.0,0.0,0.0,0.0,0.0,0.0,0.0,0.0,0.0,0.0,0.0,0.0,0.0,0.0,0.0,0.0,0.0,0.0,0.0,0.0,0.0,0.0,0.0,0.0,0.0,0.0,0.0,0.0,0.0,0.0,0.0,0.0,0.0,0.0,0.0,0.0,0.0,0.0,0.0,0.0,0.0,0.0,0.0,0.0,0.0,0.0,0.0,0.0,0.0,0.0,0.0,0.0,0.0,0.0,0.0,0.0,0.0,0.0,0.0,0.0,0.0,0.0,0.0,0.0,0.0,0.0,0.0,0.0,0.0,0.0,0.0,0.0,0.0,0.0,0.0,0.0,0.0,0.0,0.0,0.0,0.0,0.0,0.0,0.0,0.0,0.0,0.0,0.0,0.0,0.0,0.0,0.0,0.0,0.0,0.0,0.0,0.0,0.0,0.0,0.0,0.0,0.0,0.0,0.0,0.0,0.0,0.0,0.0,0.0,0.0,0.0,0.0,0.0,0.0,0.0,0.0,0.0,0.0,0.0,0.0,0.0,0.0,0.0,0.0,0.0,0.0,0.0,0.0,0.0,0.0,0.0,0.0,0.0,0.0,0.0,0.0,0.0,0.0,0.0,0.0,0.0,0.0,0.0,0.0,0.0,0.0,0.0,0.0,0.0,0.0,0.0,0.0,0.0,0.0,0.0,0.0,0.0,0.0,0.0,0.0,0.0,0.0,0.0,0.0,0.0,0.0,0.0,0.0,0.0,0.0,0.0,0.0,0.0,0.0,0.0,0.0,0.0,0.0,0.0,0.0,0.0,0.0,0.0,0.0,0.0,0.0,0.0,0.0,0.0,0.0,0.0,0.0,0.0,0.0,0.0,0.0,0.0,0.0,0.0,0.0,0.0,0.0,0.0,0.0,0.0,0.0,0.0,0.0,0.0,0.0,0.0,0.0,0.0,0.0,0.0,0.0,0.0,0.0,0.0,0.0,0.0,0.0,0.0,0.0,0.0,0.0,0.0,0.0,0.0,0.0,0.0,0.0,0.0,0.0,0.0,0.0,0.0,0.0,0.0,0.0,0.0,0.0,0.0,0.0,0.0,0.0,0.0,0.0,0.0,0.0,0.0,0.0,0.0,0.0,0.0,0.0,0.0,0.0,0.0,0.0,0.0,0.0,0.0,0.0,0.0,0.0,0.0,0.0,0.0,0.0,0.0,0.0,0.0,0.0,0.0,0.0,0.0,0.0,0.0,0.0,0.0,0.0,0.0,0.0,0.0,0.0,0.0,0.0,0.0,0.0,0.0,0.0,0.0,0.0,0.0,0.0,0.0,0.0,0.0,0.0,0.0,0.0,0.0,0.0,0.0,0.0,0.0,0.0,0.0,0.0,0.0,0.0,0.0,0.0,0.0,0.0,0.0,0.0,0.0,0.0,0.0,0.0,0.0,0.0,0.0,0.0,0.0,0.0,0.0,0.0,0.0,0.0,0.0,1.0653,0.997,0.0,0.0,0.0,0.0,0.0,0.0,0.0,0.0,0.0,0.0,0.0,0.0,0.0,0.0,0.0,0.0,0.0,0.0,0.0,0.0,0.0,0.0,0.0,0.6848,0.6689,0.6651,0.671,0.0,0.0,0.0,0.0,0.0,0.0,0.0,0.0,0.0,0.6941,0.7479,0.7749,0.8273,0.9055,0.9036,0.8597,0.785,0.0,0.0,0.0,0.0,0.0,0.0,0.0,0.0,0.0,0.0,0.0,0.0,0.0,0.0,0.0,0.0,0.0,0.0,0.0,0.0,0.0,0.0,0.0,0.0,0.0,0.0,0.0,0.0,0.0,0.0,0.0,0.0,0.0,0.0,0.0,0.0,0.0,0.0,0.0,0.0,0.0,0.0,0.0,0.0,0.0,0.0,0.0,0.0,0.0,0.0,0.0,0.0,0.0,0.0,0.0,0.0,0.0,0.0,0.0,0.0,0.0,0.0,0.0,0.0,0.0,0.0,0.0,0.0,0.0,0.0,1.1631,1.0881,0.0,0.0,0.0,0.0,0.0,0.0,0.0,0.0,0.0,0.0,0.0,0.0,0.0,0.0,0.0,0.0,0.0,0.0,0.0,0.0,0.0,0.7038,0.6969,0.6786,0.6685,0.6759,0.6741,0.6782,0.687,0.6878,0.0,0.0,0.0,0.0,0.7234,0.733,0.7648,0.8177,0.8814,0.9614,1.0594,1.1131,1.0433,0.8736,0.8842,0.0,0.0,0.0,0.0,0.0,0.0,0.0,0.0,0.0,0.0,0.0,0.0,0.0,0.0,0.0,0.0,0.0,0.0,0.0,0.0,0.0,0.0,0.0,0.0,0.0,0.0,0.0,0.0,0.0,0.0,0.0,0.0,0.0,0.0,0.0,0.0,0.0,0.0,0.0,0.0,0.0,0.0,0.0,0.0,0.0,0.0,0.0,0.0,0.0,0.0,0.0,0.0,0.0,0.0,0.0,0.0,0.0,0.0,0.0,0.0,0.0,0.0,0.0,1.3106,1.3329,1.3455,1.3839,1.4047,1.4026,1.251,1.1816,1.1737,1.1759,0.0,0.0,0.0,0.0,0.0,0.0,0.0,0.0,0.0,0.0,0.0,0.0,0.0,0.0,0.0,0.0,0.0,0.0,0.0,0.6908,0.6837,0.6642,0.6756,0.7329,0.7332,0.7488,0.7952,0.799,0.0,0.0,0.0,0.0,0.7797,0.8248,0.8748,0.9294,1.0286,1.1094,1.1704,1.2243,1.2339,1.2014,1.0609,0.9951,0.9813,0.0,0.0,0.0,0.0,0.0,0.0,0.0,0.0,0.0,0.0,0.0,0.0,0.0,0.0,0.0,0.0,0.0,0.0,0.0,0.0,0.0,0.0,0.0,0.0,0.0,0.0,0.0,0.0,0.0,0.0,0.0,0.0,0.0,0.0,0.0,0.0,0.0,0.0,0.0,0.0,0.0,0.9258,0.9681,0.0,0.0,0.0,0.0,0.0,0.0,0.0,0.0,0.0,0.0,0.0,0.0,0.0,1.2846,1.2789,1.3407,1.3741,1.3799,1.3927,1.3986,1.4,1.4058,1.4091,1.4094,1.3857,0.0,1.3054,1.3177,0.0,0.0,0.0,0.0,0.0,0.0,0.0,0.0,0.0,0.0,0.0,0.0,0.0,0.0,0.0,0.0,0.0,0.0,0.0,0.0,0.0,0.7071,0.7235,0.7948,0.7838,0.788,0.8238,0.8151,0.0,0.0,0.0,0.8628,0.9235,0.9475,1.0156,1.1299,1.2065,1.2725,1.3252,1.3493,1.359,1.3565,1.2827,1.2004,1.108,0.9975,0.0,0.0,0.0,0.0,0.0,0.0,0.0,0.0,0.0,0.0,0.0,0.0,0.0,0.0,0.0,0.0,0.0,0.0,0.0,0.0,0.0,0.0,0.0,0.0,0.0,0.0,0.0,0.0,0.0,0.0,0.0,0.0,0.0,0.0,0.0,0.0,0.0,0.0,0.0,0.9662,1.015,1.0795,1.0991,1.1106,0.0,0.0,0.0,0.0,0.0,0.0,0.0,0.0,0.0,1.308,1.3455,1.3789,1.4057,1.4319,1.456,1.4793,1.5069,1.5215,1.5225,1.5464,1.5566,1.5566,1.5566,1.5308,1.4812,1.412,1.3565,1.3134,0.0,0.0,0.0,0.0,1.2971,1.3008,0.0,0.0,0.0,0.0,0.0,0.0,0.0,0.0,0.0,0.0,0.0,0.0,0.7515,0.7526,0.7774,0.8461,0.8451,0.8537,0.8825,0.8825,0.8973,0.9302,0.9308,0.9754,1.069,1.0978,1.1768,1.3107,1.3505,1.3975,1.4484,1.4484,1.4556,1.4677,1.4534,1.3751,1.2459,1.1459,1.0968,1.073,0.0,0.0,0.0,0.0,0.0,0.0,0.0,0.0,0.0,0.0,0.0,0.0,0.0,0.0,0.0,0.0,0.0,0.0,0.0,0.0,0.0,0.0,0.0,0.0,0.0,0.0,0.0,0.0,0.0,0.0,0.0,0.0,0.0,0.0,0.0,0.0,0.0,1.0754,1.1226,1.1814,1.187,1.1855,0.0,0.0,0.0,0.0,0.0,0.0,1.3364,1.3859,1.4181,1.4208,1.4471,1.4785,1.5122,1.5225,1.5439,1.5737,1.6207,1.6427,1.6447,1.6855,1.7028,1.7028,1.7028,1.6865,1.648,1.5156,1.4515,1.4363,1.4363,1.4363,1.4363,1.4363,1.4391,1.4436,0.0,0.0,0.0,0.0,0.0,0.0,0.0,0.0,0.0,0.0,0.0,0.7599,0.7427,0.7796,0.8272,0.8825,0.9267,0.9741,1.0269,1.0753,1.1019,1.0986,1.0986,1.1231,1.1813,1.2821,1.3626,1.4226,1.4251,1.45,1.4965,1.4965,1.5239,1.5707,1.5193,1.4672,1.4142,1.3577,1.2992,1.2391,1.132,0.0,0.0,0.0,0.0,0.0,0.0,0.0,0.0,0.0,0.0,0.0,0.0,0.0,0.0,0.0,0.0,0.0,0.0,0.0,0.0,0.0,0.0,0.0,0.0,0.0,0.0,0.0,0.0,0.0,0.0,0.0,0.0,0.0,0.0,0.0,0.0,0.0,0.0,1.24,1.2471,0.0,0.0,0.0,0.0,1.3234,1.3568,1.3857,1.4035,1.4374,1.463,1.4756,1.5576,1.6007,1.6026,1.641,1.6609,1.6638,1.7109,1.7331,1.735,1.7754,1.7932,1.7932,1.7932,1.7913,1.7812,1.6535,1.5737,1.5327,1.5327,1.5327,1.5327,1.5327,1.5327,1.5327,0.0,0.0,0.0,0.7111,0.6977,0.6895,0.6903,0.6997,0.7155,0.7384,0.7575,0.7904,0.8433,0.8602,0.9057,0.9983,1.0171,1.0455,1.0949,1.1479,1.1875,1.2122,1.2459,1.2902,1.3433,1.4127,1.4553,1.4756,1.5092,1.5346,1.5504,1.5504,1.5623,1.578,1.56,1.5419,1.5201,1.4375,1.3893,1.3645,1.3004,1.2317,0.0,0.0,0.0,0.0,0.0,0.0,0.0,0.0,0.0,0.0,0.0,0.0,0.0,0.0,0.0,0.0,0.0,0.0,0.0,0.0,0.0,0.0,0.0,0.0,0.0,0.0,0.0,0.0,0.0,0.0,0.0,0.0,0.0,0.0,0.0,0.0,0.0,1.3176,1.3204,0.0,1.3565,1.3727,1.3944,1.4239,1.4629,1.4993,1.5376,1.5756,1.5974,1.602,1.6627,1.7057,1.7331,1.7727,1.8061,1.8379,1.8535,1.8621,1.8631,1.8769,1.8838,1.8838,1.8838,1.8838,1.8799,1.8347,1.7725,1.7064,1.7064,1.6924,1.668,1.668,1.6504,1.6244,0.0,0.0,0.0,0.7099,0.6883,0.6744,0.6887,0.6932,0.7143,0.7631,0.786,0.8255,0.9017,0.9367,0.9846,1.0631,1.0977,1.1341,1.1813,1.2327,1.2796,1.3216,1.3727,1.4175,1.4534,1.5022,1.5277,1.5277,1.5815,1.6067,1.6067,1.6271,1.6343,1.6343,1.6343,1.6235,1.6031,1.5366,1.4871,1.451,1.4252,1.3746,1.3095,0.0,0.0,0.0,0.0,0.0,0.0,0.0,0.0,0.0,0.0,0.0,0.0,0.0,0.0,0.0,0.0,0.0,0.0,0.0,0.0,0.0,0.0,0.0,0.0,0.0,0.0,0.0,0.0,0.0,0.0,0.0,0.0,0.0,0.0,1.2792,1.3214,1.3599,1.371,1.3913,1.4303,1.4455,1.4732,1.52,1.5615,1.603,1.6515,1.6924,1.7194,1.734,1.7803,1.8181,1.8437,1.8703,1.9054,1.9502,1.9667,1.9814,1.9951,2.0117,2.0185,2.0185,2.0185,2.0185,2.0185,2.0185,1.9853,1.9258,1.8672,1.8289,1.8044,1.8044,1.7842,1.7581,0.0,0.0,0.7095,0.7099,0.6981,0.6895,0.6895,0.7011,0.7258,0.7662,0.8181,0.8678,0.908,1.0009,1.0636,1.0712,1.1655,1.2431,1.2896,1.3374,1.3869,1.4323,1.477,1.5014,1.5014,1.5552,1.5816,1.5816,1.6355,1.6619,1.6643,1.7171,1.7399,1.7399,1.7399,1.7111,1.6619,1.6619,1.6019,1.5061,1.5026,1.4504,1.3737,0.0,0.0,0.0,0.0,0.0,0.0,0.0,0.0,0.0,0.0,0.0,0.0,0.0,0.0,0.0,0.0,0.0,0.0,0.0,0.0,0.0,0.0,0.0,0.0,0.0,0.0,0.0,0.0,0.0,0.0,0.0,0.0,0.0,1.2573,1.3576,1.4187,1.3628,1.4028,1.4464,1.4833,1.5225,1.5654,1.6124,1.6527,1.6966,1.7438,1.7832,1.8225,1.8607,1.9092,1.9344,1.9344,1.9374,1.957,1.998,2.042,2.083,2.1229,2.1689,2.1905,2.1905,2.1905,2.1905,2.1905,2.1905,2.1905,2.1739,2.0048,1.9365,1.9364,1.9364,1.9354,1.9344,0.7627,0.7286,0.6981,0.7083,0.687,0.6689,0.6689,0.7037,0.7512,0.8062,0.8595,0.9129,0.9629,1.0268,1.0826,1.1176,1.2221,1.3011,1.3387,1.4259,1.4952,1.5369,1.5515,1.5576,1.5576,1.6103,1.6379,1.6379,1.6919,1.7171,1.7171,1.7327,1.7399,1.7399,1.7399,1.7327,1.7171,1.7171,1.6787,1.6127,1.5743,1.519,1.4663,0.0,0.0,0.0,0.0,0.0,0.0,0.0,0.0,0.0,0.0,0.0,0.0,0.0,0.0,0.0,0.0,0.0,0.0,0.0,0.0,0.0,0.0,0.0,0.0,0.0,0.0,0.0,0.0,0.0,0.0,0.0,1.3616,1.3531,1.3363,1.3908,1.4497,1.4968,1.5071,1.5376,1.6108,1.6592,1.7012,1.7441,1.7854,1.8283,1.8758,1.8885,1.8994,1.9102,1.9843,2.0234,2.0234,2.0869,2.125,2.1348,2.1485,2.1602,2.1709,2.1836,2.1905,2.1905,2.1905,2.1905,2.1905,2.1905,2.1905,2.1857,2.1378,2.0977,2.0684,2.0684,2.0498,2.0283,0.7521,0.7211,0.6936,0.7075,0.6824,0.6599,0.6599,0.687,0.7358,0.8193,0.8575,0.9051,0.9818,1.0602,1.116,1.1374,1.2601,1.3521,1.3907,1.4891,1.5566,1.5791,1.5803,1.5877,1.6047,1.637,1.6597,1.6777,1.73,1.7562,1.7574,1.7864,1.7997,1.7997,1.8048,1.7953,1.7736,1.7736,1.7424,1.6883,1.6343,1.5804,1.5347,1.5464,1.5229,1.4778,1.4255,1.3771,1.327,1.2481,0.0,0.0,0.0,0.0,0.0,0.0,0.0,0.0,0.0,0.0,0.0,0.0,0.0,0.0,0.0,0.0,0.0,0.0,0.0,0.0,0.0,0.0,0.0,0.0,1.4466,1.4505,1.4532,1.4668,1.503,1.5723,1.6061,1.6498,1.7181,1.764,1.8086,1.8516,1.8752,1.918,1.9814,1.9843,2.0009,2.0381,2.0879,2.1133,2.1133,2.2018,2.2346,2.2148,2.2525,2.2583,2.2412,2.2412,2.2412,2.2412,2.2412,2.2412,2.2412,2.2412,2.2412,2.2373,0.0,0.0,0.0,0.0,2.1338,2.1172,0.7329,0.7111,0.6924,0.707,0.6824,0.6599,0.6599,0.6649,0.7079,0.8155,0.8361,0.8776,0.9792,1.0917,1.1538,1.1392,1.2865,1.401,1.4522,1.5339,1.5803,1.5803,1.5803,1.5998,1.642,1.6479,1.6705,1.7102,1.7645,1.7904,1.7891,1.8506,1.8784,1.8811,1.8919,1.8708,1.8276,1.8276,1.7951,1.7399,1.6931,1.6392,1.5865,1.5805,1.559,1.5283,1.4926,1.4562,1.4163,1.355,0.0,0.0,0.0,0.0,0.0,0.0,0.0,0.0,0.0,0.0,0.0,0.0,0.0,0.0,0.0,0.0,0.0,0.0,0.0,0.0,0.0,0.0,0.0,0.0,1.5728,1.5962,1.5994,1.5817,1.585,1.6271,1.6989,1.7653,1.8088,1.8518,1.8937,1.9413,1.9501,1.9882,2.0693,2.0752,0.0,0.0,0.0,2.2015,2.2109,2.2839,2.3031,2.2727,2.3395,2.3492,2.3091,2.3091,2.3091,2.3091,2.3091,2.3091,2.3091,2.3091,2.3091,2.3023,2.2314,2.2052,2.2052,2.2052,2.2052,2.2052,0.7302,0.6997,0.6748,0.7046,0.6824,0.6599,0.6599,0.6966,0.7503,0.8205,0.8674,0.9189,0.983,1.0917,1.1515,1.1336,1.3165,1.4681,1.5485,1.5694,1.5803,1.5803,1.5803,1.6044,1.6548,1.6991,1.7397,1.7807,1.8341,1.8552,1.8459,1.8592,1.8706,1.8798,1.8838,1.8778,1.8683,1.8683,1.8308,1.7708,1.7613,1.7048,1.6229,1.5859,1.5611,1.5448,1.5371,1.503,1.456,1.4339,1.3973,1.3583,1.3314,1.3097,0.0,0.0,0.0,0.0,0.0,0.0,0.0,0.0,0.0,0.0,0.0,0.0,0.0,0.0,0.0,0.0,0.0,0.0,0.0,1.5781,1.6046,1.6595,1.7658,1.7616,1.7539,1.7627,1.7783,1.8193,1.8965,1.9424,1.9844,2.0302,2.0654,2.1064,2.1622,2.1651,2.1729,2.1896,2.2217,2.271,2.3442,2.3218,2.3459,2.4118,2.3527,0.0,2.3091,2.3091,2.3091,2.3091,2.3091,2.3091,2.3091,2.3091,2.3091,2.3081,2.2937,2.2869,2.2869,2.2869,2.2869,2.2869,0.7163,0.6903,0.6702,0.7038,0.6824,0.6599,0.6599,0.6832,0.7203,0.7776,0.8343,0.89,0.9441,1.0761,1.1655,1.1785,1.3668,1.5148,1.5853,1.5847,1.5803,1.5803,1.5803,1.6141,1.6884,1.7158,1.7621,1.8302,1.8507,1.857,1.8504,1.8504,1.8531,1.8597,1.8666,1.8744,1.8798,1.8798,1.8603,1.8278,1.8017,1.7541,1.6926,1.622,1.576,1.5491,1.5424,1.5238,1.4983,1.485,1.4633,1.4402,1.4106,1.3931,1.381,0.0,0.0,0.0,0.0,0.0,0.0,0.0,0.0,0.0,0.0,0.0,0.0,0.0,0.0,1.5585,1.6196,0.0,1.6222,1.7063,1.7302,1.7607,1.817,1.857,1.8768,1.8652,1.8838,1.9219,1.9882,2.0322,2.0762,2.1221,2.1435,2.1748,2.2178,2.2197,2.2505,2.3188,2.3409,2.3701,2.4146,2.4819,2.4935,2.4498,2.4467,2.421,2.3777,2.3309,2.3091,2.3091,2.3091,2.3091,2.3091,2.3091,2.3091,2.3091,2.3091,2.3091,2.3091,2.3091,2.3091,2.3091,0.703,0.6866,0.6748,0.7046,0.6858,0.6646,0.6608,0.6599,0.6795,0.7331,0.7821,0.8374,0.9032,1.0564,1.1903,1.2789,1.4197,1.532,1.5963,1.5869,1.5803,1.5803,1.5803,1.6202,1.7062,1.7181,1.7629,1.8434,1.8444,1.8408,1.834,1.834,1.8367,1.8394,1.8504,1.8625,1.8718,1.8758,1.8718,1.8629,1.8242,1.7817,1.733,1.6568,1.5986,1.5553,1.5335,1.5267,1.5233,1.5131,1.5097,1.505,1.4737,1.462,1.4615,1.4504,1.4371,0.0,0.0,0.0,0.0,0.0,0.0,0.0,0.0,1.5034,1.5979,1.5237,1.5363,1.605,1.7505,1.6984,1.6827,1.8328,1.8563,1.8577,1.8599,1.9332,1.9904,1.9935,1.9995,2.0215,2.0674,2.1103,2.1523,2.1973,2.2032,2.2197,2.2586,2.2798,2.3373,2.4467,2.4659,2.4829,2.502,2.6299,2.6195,2.4765,2.5284,2.5073,2.4198,2.343,2.3091,2.3091,2.3091,2.3091,2.3091,2.3091,2.3091,2.3091,2.3091,2.3091,2.3091,2.3091,2.3091,2.3123,0.703,0.6969,0.6924,0.707,0.6964,0.6807,0.6629,0.6599,0.6795,0.7331,0.7456,0.7914,0.8981,1.0444,1.2287,1.4668,1.464,1.4918,1.5928,1.5869,1.5803,1.5803,1.5803,1.6068,1.6644,1.7123,1.7552,1.7891,1.835,1.8437,1.8125,1.8125,1.822,1.8394,1.8422,1.8435,1.8449,1.8572,1.845,1.8193,1.8311,1.7689,1.6692,1.6601,1.6258,1.5787,1.5292,1.5119,1.5119,1.5108,1.5097,1.5142,1.5398,1.5474,1.5463,1.5459,1.5718,1.5954,1.5707,1.5619,1.5607,1.558,1.566,1.5595,0.0,1.532,1.5778,1.5789,1.6055,1.6493,1.7163,1.7587,1.8047,1.8672,1.8818,1.9112,1.9878,2.0536,2.1255,2.213,2.1219,2.0684,2.1093,2.1553,2.1982,2.2412,2.242,2.2606,2.3003,2.3826,2.4361,2.4498,2.5242,2.6059,2.6887,2.6267,2.5851,2.5663,2.4978,2.4155,2.3244,2.3157,2.3091,2.3091,2.3091,2.3091,2.3091,2.3091,2.3091,2.3091,2.3091,2.3091,2.3091,2.3091,2.3091,2.3135,0.7211,0.7135,0.703,0.7091,0.6985,0.6874,0.6786,0.668,0.6682,0.6903,0.7211,0.7716,0.8537,1.0613,1.2568,1.4123,1.4425,1.4837,1.5608,1.5455,1.5468,1.5791,1.5803,1.6043,1.6595,1.6811,1.7147,1.7562,1.7945,1.8112,1.8045,1.8201,1.8356,1.8504,1.8435,1.8489,1.8624,1.853,1.8262,1.7928,1.7928,1.7394,1.6575,1.6301,1.6193,1.6092,1.536,1.5097,0.0,1.5334,1.539,1.5457,1.5835,1.5902,1.5856,1.5965,1.6383,1.6781,1.6606,1.6527,1.6349,1.5718,1.6033,1.6335,1.5669,1.6608,1.7445,1.6784,1.7483,1.8222,1.828,1.8638,1.9035,1.9382,1.9953,2.0452,2.0691,2.1799,2.2775,2.3191,2.2779,2.2534,2.2706,2.2421,2.2432,2.282,2.3356,2.3736,2.3918,2.4765,2.5505,2.6049,2.6423,2.6805,2.7205,2.7316,2.7133,2.6609,2.6257,2.5579,2.4648,2.4155,2.3626,2.3091,2.3091,2.3091,2.3091,2.3091,2.3091,2.3113,2.3276,2.3499,2.3718,2.3439,2.3319,2.3363,0.7262,0.7247,0.7183,0.7183,0.7054,0.6919,0.6833,0.6736,0.6668,0.6608,0.6982,0.7653,0.8662,1.0608,1.2342,1.3632,1.4056,1.4524,1.5159,1.5075,1.5191,1.5618,1.5741,1.5983,1.6379,1.6511,1.6763,1.7111,1.7463,1.7661,1.7735,1.792,1.807,1.815,1.8056,1.8122,1.8291,1.8096,1.782,1.7533,1.7533,1.709,1.637,1.6134,1.6092,1.6089,1.5439,1.5277,1.5378,1.5591,1.5669,1.5713,1.6099,1.6286,1.6362,1.657,1.7136,1.7619,1.7255,1.7128,1.692,1.6118,1.6514,1.7034,1.6793,1.8016,1.9012,1.8286,1.9004,1.9765,1.9861,1.9949,2.0157,2.0586,2.1215,2.1691,2.1795,2.3096,2.4145,2.4442,2.4492,2.457,2.4719,2.3718,2.3168,2.3454,2.4338,2.4872,2.4872,2.5704,2.6505,2.7185,2.7429,2.7551,2.7551,2.8179,2.8047,2.7205,2.7205,2.6588,2.5411,2.4509,2.3891,2.3474,2.3342,2.3411,2.3563,2.3563,2.3563,2.3607,2.386,2.417,2.4441,2.4189,2.4025,2.3993,0.7083,0.7262,0.7392,0.7392,0.7227,0.6981,0.6663,0.677,0.6824,0.6629,0.6782,0.769,0.973,1.0195,1.1367,1.388,1.3632,1.3727,1.4665,1.49,1.5076,1.5212,1.5592,1.5815,1.5816,1.6331,1.6537,1.6432,1.6954,1.7142,1.7031,1.7043,1.7042,1.7055,1.7042,1.7055,1.7055,1.7055,1.6956,1.6856,1.724,1.681,1.5959,1.628,1.6064,1.5614,1.5524,1.5703,1.5944,1.5824,1.5792,1.5846,1.6194,1.6697,1.7201,1.7401,1.8174,1.8697,1.7593,1.7349,1.7353,1.726,1.7317,1.7637,1.8583,1.931,1.991,2.0406,2.0426,2.0672,2.1639,2.1558,2.1599,2.2393,2.2387,2.2579,2.3479,2.4344,2.5252,2.6295,2.6365,2.6522,2.7055,2.5484,2.4435,2.4456,2.5263,2.5767,2.5767,2.665,2.7165,2.7205,2.8007,2.8451,2.8451,2.849,2.8047,2.7205,2.7205,2.6278,2.452,2.356,2.3612,2.4418,2.3971,2.414,2.4762,2.4762,2.4762,2.4785,2.5047,2.5148,2.5204,2.5455,2.5376,2.5194,0.7266,0.7353,0.7399,0.7399,0.7159,0.6923,0.6816,0.6862,0.6828,0.6629,0.6966,0.0,0.0,0.0,0.0,0.0,1.2163,1.2685,1.3769,1.3619,1.3985,1.5149,1.5243,1.5443,1.578,1.5983,1.6045,1.5999,1.6756,1.7163,1.7211,1.7755,1.807,1.8189,1.8047,1.807,1.8165,1.7809,1.7505,1.7256,1.7128,1.6685,1.6113,1.6224,1.629,1.6326,0.0,1.6087,1.601,1.6109,1.6129,1.6268,1.7003,1.731,1.7608,1.8704,1.9271,1.952,1.9498,1.9253,1.8986,1.8964,1.9235,1.9611,1.9958,2.0769,2.1387,2.1114,2.1807,2.2273,2.1691,2.2205,2.2654,2.2444,2.3023,2.3788,2.4637,2.5613,2.6529,2.7384,2.7154,2.699,2.7182,2.6091,2.5368,2.5368,2.6205,2.6732,2.6732,2.7571,2.8047,2.8047,2.8351,2.849,2.849,2.849,2.8339,2.8059,2.7838,2.7672,2.7511,2.6628,2.6399,2.6692,2.6659,2.6424,2.6057,2.6057,2.5671,2.5087,2.5348,2.5635,2.5892,2.6167,2.6408,2.6526,0.0,0.7388,0.7453,0.7407,0.7163,0.0,0.0,0.0,0.0,0.0,0.0,0.0,0.0,0.0,0.0,0.0,0.0,1.1816,1.2927,1.3015,1.3506,1.4617,1.5016,1.5379,1.5719,1.5948,1.6057,1.6057,1.6784,1.7191,1.728,1.778,1.8094,1.8219,1.8094,1.8106,1.8208,1.7812,1.7712,1.777,1.7163,1.6872,1.6774,1.6489,1.6511,0.0,1.6541,1.6412,1.6338,1.6412,1.6411,1.651,1.7332,1.7924,1.8513,1.951,2.0225,2.0643,2.0388,2.0342,2.0329,2.0128,2.0482,2.0933,2.1147,2.1892,2.2392,2.1963,2.273,2.3255,2.2474,2.3192,2.3787,2.3437,2.4189,2.5056,2.5774,2.6619,2.7423,2.8096,2.7873,2.7664,2.7664,2.7133,2.665,2.6329,2.7153,2.7664,2.7664,2.8199,2.849,2.849,2.849,2.849,2.849,2.8703,2.8923,2.9165,2.8724,2.8789,2.9317,2.8351,2.8084,2.8384,2.7988,2.7599,2.7243,2.6913,2.6395,2.5824,2.6102,2.6359,2.6619,2.6783,2.705,2.7216,0.0,0.0,0.7545,0.0,0.0,0.0,0.0,0.0,0.0,0.0,0.0,0.0,0.0,0.0,0.0,0.0,0.0,0.0,1.2206,1.3027,1.3549,1.3685,1.486,1.5534,1.5584,1.6149,1.6444,1.6444,1.6935,1.7178,1.7191,1.7248,1.7272,1.7272,1.7272,1.7272,1.7261,1.712,1.7559,1.8302,1.739,1.7344,1.7741,1.6983,1.6682,1.6674,1.6536,1.6669,1.6876,1.675,1.6647,1.6676,1.7272,1.8543,1.9823,1.9861,2.1016,2.1916,2.0378,2.0687,2.1332,2.0848,2.1115,2.1638,2.2201,2.264,2.2894,2.2894,2.3217,2.3573,2.3896,2.441,2.4888,2.5209,2.5709,2.6262,2.6832,2.7349,2.7866,2.8438,2.851,2.849,2.849,2.849,2.8159,2.7328,2.8027,2.849,2.849,2.849,2.849,2.849,2.8534,2.8546,2.8546,2.9076,2.9737,3.0474,2.9827,2.967,2.9908,2.8831,2.8823,2.9601,2.8196,2.7945,2.8389,2.7513,2.7081,2.701,2.7262,2.7333,2.7309,2.7309,2.7309,2.7309,0.0,0.0,0.0,0.0,0.0,0.0,0.0,0.0,0.0,0.0,0.0,0.0,0.0,0.0,0.0,0.0,0.0,0.0,1.1848,1.1847,1.238,1.3642,1.4012,1.4563,1.5351,1.5537,1.5601,1.5601,1.6533,1.6981,1.6995,1.779,1.8169,1.8169,1.8169,1.8169,1.8159,1.7965,1.795,1.7987,1.7553,1.7141,1.6764,1.655,1.6487,1.6477,1.6446,1.6633,1.6886,1.6867,1.7164,1.7603,1.8022,1.9033,2.0231,2.0886,2.1369,2.1791,2.2157,2.2163,2.2141,2.2399,2.2561,2.2673,2.273,2.2824,2.2863,2.2769,2.303,2.3307,2.3393,2.4055,2.4601,2.4681,2.515,2.5883,2.6965,2.7119,2.7515,2.8595,2.8578,2.849,2.849,2.849,2.8411,2.8179,2.8371,2.849,2.849,2.849,2.849,2.849,2.8895,2.91,2.91,2.977,3.0594,3.1512,3.1195,3.136,3.1955,3.1662,3.1648,3.1869,3.1705,3.1282,3.0733,3.0486,2.9543,2.8245,2.8315,2.7927,2.7309,2.7309,2.7309,2.7309,0.0,0.0,0.0,0.0,0.0,0.0,0.0,0.0,0.0,0.0,0.0,0.0,0.0,0.0,0.0,0.0,0.0,0.0,0.0,1.1189,1.1743,1.2944,1.3316,1.3896,1.4743,1.5059,1.5341,1.561,1.6422,1.6812,1.6835,1.7437,1.7717,1.7717,1.7717,1.7656,1.7567,1.7454,1.7527,0.0,0.0,1.6748,1.6699,1.6202,1.6006,1.6045,1.6307,1.667,1.7023,1.696,1.751,1.8239,1.8356,1.9371,2.0591,2.1028,2.1482,2.1983,2.2596,2.2694,2.2719,2.3032,2.3108,2.3063,2.2924,2.2848,2.2769,2.2601,2.2858,2.3111,2.3111,2.3871,2.4501,2.4501,2.5138,2.5901,2.6614,2.7028,2.7519,2.8234,2.8425,2.849,2.849,2.849,2.849,2.849,2.849,2.855,2.8637,2.8637,2.8746,2.8976,2.9391,2.9841,3.0302,3.0804,3.1452,3.2264,3.2255,3.248,3.2874,3.2874,3.2874,3.2853,3.2581,3.212,3.1536,3.0678,2.9681,2.8654,2.8245,2.7762,2.7309,2.7309,2.7309,2.7309,0.0,0.0,0.0,0.0,0.0,0.0,0.0,0.0,0.0,0.0,0.7422,0.7229,0.7261,0.7237,0.0,0.0,0.0,0.0,0.0,0.0,1.1254,1.1959,1.2595,1.3248,1.393,1.452,1.5087,1.5598,1.6092,1.6371,1.6447,1.6531,1.6633,1.6738,1.6738,1.6663,1.6529,1.6476,1.6788,1.7253,1.6222,1.6229,1.6751,0.0,1.5378,1.547,1.6111,1.6701,1.7147,1.7013,1.7666,1.8522,1.8438,1.9471,2.0709,2.0794,2.1469,2.2219,2.237,2.2744,2.3108,2.3108,2.3108,2.3063,2.2909,2.2784,2.2632,2.2432,2.258,2.2815,2.2875,2.3604,2.4237,2.4381,2.5252,2.5937,2.6069,2.6952,2.7625,2.7697,2.8166,2.849,2.849,2.849,2.851,2.855,2.855,2.8618,2.8803,2.8864,2.918,2.9788,3.0074,3.0721,3.1751,3.1909,3.2272,3.2766,3.2982,3.3102,3.3102,3.3102,3.3102,3.3059,3.2176,3.1801,3.1647,2.984,2.9014,2.8806,2.7857,2.7418,2.7309,2.7309,2.7309,2.7309,0.0,0.0,0.0,0.0,0.0,0.0,0.0,0.0,0.0,0.0,0.8414,0.7905,0.0,0.0,0.0,0.0,0.0,0.0,0.0,0.0,0.0,1.1305,1.1477,1.2052,1.3179,1.3304,1.3423,1.3528,1.4097,1.4633,1.5145,1.5643,1.6259,1.6944,1.6944,1.7047,1.7191,1.6806,1.6631,1.6537,1.6004,1.5497,1.5038,1.4829,1.4764,0.0,1.575,1.6484,1.7013,1.6825,1.7398,1.8226,1.8414,1.902,1.9886,2.1024,2.1495,2.1832,2.2719,2.3032,2.3108,2.3108,2.3108,2.3032,2.2784,2.2708,2.2601,2.2294,2.1936,2.1813,2.2261,2.2474,2.2899,2.3777,2.4398,2.5095,2.5973,2.664,2.7198,2.7649,2.8166,2.849,2.849,2.849,2.8558,2.8744,2.8744,2.8764,2.8791,2.9217,2.991,3.0904,3.1176,3.1707,3.2509,3.2553,3.271,3.3025,3.3081,3.3102,3.3102,3.3102,3.3102,3.3102,3.2918,3.2853,3.2754,3.1581,3.0643,2.9852,2.8863,2.7987,2.7309,2.7309,2.7309,2.7309,0.0,0.0,0.0,0.0,0.0,0.0,0.0,0.8434,0.8898,0.9522,0.9175,0.8907,0.8976,0.8795,0.8767,0.0,0.0,0.0,0.0,0.0,0.0,1.0216,1.053,1.1109,1.1989,1.232,1.2644,1.2995,0.0,1.3572,1.3867,1.4155,1.4564,1.5016,1.5016,1.5092,1.5197,1.4935,1.4736,1.4565,1.4327,1.4007,1.3699,1.4049,1.456,0.0,1.5506,1.6152,1.6834,1.6817,1.724,1.7869,1.8313,1.9031,1.9945,2.1153,2.1507,2.1732,2.2807,2.3108,2.3108,2.3108,2.3108,2.3032,2.2754,2.2484,2.2197,2.1852,2.1368,2.1052,2.132,2.1596,2.2041,2.2839,2.3621,2.4398,2.5168,2.6207,2.6994,2.7246,2.7998,2.849,2.849,2.849,2.8578,2.8784,2.8902,2.9,2.9106,2.9925,3.0799,3.1693,3.2006,3.2419,3.2896,3.2918,3.2961,3.3102,3.3102,3.3102,3.3102,3.3102,3.3102,3.3102,3.3102,3.3102,3.2982,3.148,3.0599,3.0056,2.8561,2.7702,2.7309,2.7309,2.7309,2.7309,0.0,0.0,0.0,0.0,0.0,0.0,0.0,0.889,0.9503,0.9942,1.0051,1.0072,1.001,0.963,0.9203,0.0,0.0,0.0,0.0,0.0,0.0,0.0,0.0,0.0,1.0886,0.0,0.0,1.2587,1.2587,0.0,0.0,0.0,0.0,0.0,1.3309,1.3334,1.3375,1.3247,1.3121,0.0,0.0,1.2754,1.2865,0.0,0.0,0.0,0.0,1.5929,1.6671,1.6775,1.7104,1.7585,1.8179,1.9016,2.0002,2.1032,2.1407,2.1707,2.2671,2.3007,2.3108,2.3108,2.3108,2.3007,2.2621,2.2201,2.1768,2.1319,2.0788,2.0452,2.0584,2.0851,2.1308,2.2081,2.2911,2.3705,2.4405,2.5691,2.6633,2.6861,2.7745,2.8358,2.8478,2.855,2.8657,2.8843,2.9111,2.9406,2.9747,3.0652,3.1527,3.2294,3.2616,3.2896,3.3102,3.3102,3.3102,3.3102,3.3102,3.3102,3.3102,3.3102,3.3102,3.3102,3.3102,3.2982,3.2646,3.0912,3.0079,2.9715,2.7987,2.7309,2.7309,2.7309,2.7309,2.7309,0.0,0.0,0.0,0.0,0.0,0.0,0.0,0.9434,1.0192,1.1192,1.1334,1.1328,1.1335,1.0331,0.9494,0.0,0.0,0.0,0.0,0.0,0.0,0.0,0.0,0.0,0.0,0.0,0.0,1.1274,1.1274,0.0,0.0,0.0,0.0,0.0,0.0,1.3723,1.3986,1.3623,0.0,0.0,0.0,0.0,0.0,0.0,0.0,0.0,0.0,1.6027,1.6527,1.6532,1.6931,1.7498,1.8052,1.8618,1.9309,2.044,2.1119,2.1633,2.2207,2.2732,2.3108,2.3108,2.3108,2.2907,2.2152,2.1945,2.167,2.0849,2.0249,2.0023,2.0512,2.0237,2.0444,2.1945,2.2285,2.2847,2.4297,2.5042,2.5811,2.6777,2.7421,2.7962,2.8442,2.8677,2.8863,2.9052,2.9475,3.0081,3.0905,3.1226,3.1784,3.262,3.2914,3.3081,3.3102,3.3102,3.3102,3.3102,3.3102,3.3102,3.3102,3.3102,3.3102,3.3102,3.3102,3.2581,3.1647,3.0633,2.9669,2.8747,2.7691,2.7309,2.7309,2.7309,2.7309,2.7309,0.0,0.0,0.0,0.0,0.0,0.0,0.8944,0.9924,1.0821,1.1426,1.1359,1.1267,1.1267,1.0832,1.0236,0.947,0.0,0.0,0.0,0.0,0.0,0.0,0.0,0.0,0.0,0.0,1.0503,1.1097,1.1227,0.0,0.0,0.0,0.0,0.0,0.0,1.2632,1.2703,1.2629,0.0,0.0,0.0,0.0,0.0,0.0,0.0,0.0,0.0,0.0,1.6277,1.6459,1.6661,1.7024,1.7928,1.8355,1.8807,2.0277,2.1081,2.162,2.2144,2.2458,2.2621,2.2621,2.256,2.2305,2.1541,2.0802,2.0153,1.9739,1.8951,1.8422,1.8637,1.8758,1.9143,2.0119,2.1079,2.2161,2.3412,2.459,2.5691,2.6765,2.7385,2.7972,2.8629,2.8744,2.8929,2.9255,2.9592,3.0217,3.1226,3.1358,3.1859,3.2902,3.3047,3.3102,3.3102,3.3102,3.3102,3.3102,3.3102,3.3102,3.3102,3.3102,3.3102,3.3102,3.3102,3.2874,3.2373,3.0845,2.9966,2.9441,2.7893,2.7309,2.7309,2.7309,2.7309,2.7309,0.0,0.0,0.0,0.0,0.0,0.8779,0.8967,1.0137,1.1103,1.1444,1.1342,1.1227,1.1227,1.1227,1.0785,0.9686,0.9603,0.0,0.0,0.0,0.0,0.0,0.0,0.0,0.0,0.0,1.056,1.1198,1.1367,1.1486,0.0,0.0,1.1665,1.1774,0.0,0.0,0.0,0.0,0.0,0.0,0.0,0.0,0.0,0.0,0.0,0.0,0.0,0.0,0.0,0.0,0.0,1.6663,1.7652,1.818,1.8694,2.0037,2.083,2.1344,2.1719,2.1945,2.2071,2.2071,2.1968,2.1638,2.0763,1.9853,1.9075,1.8629,1.7941,1.7399,1.7399,1.7832,1.8374,1.8916,2.0227,2.1584,2.2827,2.4078,2.5354,2.6729,2.7222,2.7811,2.8711,2.891,2.9138,2.9489,2.9689,3.0269,3.1336,3.1406,3.1922,3.3065,3.3102,3.3102,3.3102,3.3102,3.3102,3.3102,3.3102,3.3102,3.3102,3.3102,3.3102,3.3102,3.3102,3.2776,3.2142,3.0756,2.9852,2.9222,2.7833,2.7309,2.7309,2.7309,2.7309,2.7309,0.0,0.0,0.0,0.0,0.0,0.0,0.893,0.9976,1.0897,1.1427,1.1495,1.1495,1.1495,1.1495,1.098,0.9719,0.9603,0.0,0.0,0.0,0.0,0.0,0.0,0.0,0.0,0.0,1.073,1.1399,1.1527,1.1698,1.1885,1.1692,1.1816,1.2195,0.0,0.0,0.0,0.0,0.0,0.0,0.0,0.0,0.0,0.0,0.0,0.0,0.0,0.0,0.0,0.0,0.0,0.0,0.0,1.8141,1.9096,1.966,2.0238,2.0717,2.073,2.1093,2.1507,2.1507,2.1408,2.0994,1.9782,1.9354,1.8856,1.7652,1.7411,1.7399,1.7399,1.7832,1.8374,1.8916,1.9891,2.1169,2.2766,2.3464,2.4583,2.6645,2.6898,2.7413,2.8674,2.9165,2.9509,2.9792,2.9792,3.0269,3.1336,3.1406,3.1922,3.3065,3.3102,3.3102,3.3102,3.3102,3.3102,3.3102,3.3102,3.3102,3.3102,3.3102,3.3102,3.3102,3.3102,3.2011,3.0238,3.0215,2.9084,2.7333,2.7309,2.7309,2.7309,2.7309,2.7309,2.7309,0.0,0.0,0.0,0.0,0.0,0.0,0.0,1.0203,1.1097,1.1444,1.1495,1.1495,1.1495,1.1495,1.0985,0.9719,0.9603,0.0,0.0,0.0,0.0,0.0,0.0,0.0,0.0,1.0045,1.0942,1.2084,1.2357,1.2755,1.3271,1.3336,1.3375,1.3369,1.3439,1.3105,0.0,0.0,0.0,0.0,0.0,0.0,1.1243,0.0,0.0,0.0,0.0,0.0,0.0,0.0,0.0,0.0,0.0,0.0,0.0,1.8883,1.9794,2.0529,2.0395,2.0478,2.0601,2.0601,2.0505,2.0114,1.8998,1.8346,1.7762,1.7003,1.6559,1.6319,1.6319,1.7039,1.7712,1.788,1.9421,2.1036,2.2285,2.3224,2.4623,2.6844,2.7989,2.8776,2.9167,2.9482,2.9702,2.9792,2.9792,3.0269,3.1336,3.1406,3.1922,3.3065,3.3102,3.3102,3.3102,3.3102,3.3102,3.3102,3.3102,3.3102,3.3102,3.3102,3.3102,3.3102,3.3102,3.2754,3.2077,3.0756,2.9852,2.9153,2.7833,2.7309,2.7309,2.7309,2.7309,2.7309,0.0,0.0,0.0,0.0,0.0,0.0,0.0,1.0061,1.0909,1.1426,1.1495,1.1495,1.1495,1.1274,1.0708,0.9686,0.937,0.0,0.0,0.0,0.0,0.0,0.0,0.0,0.988,1.0772,1.1682,1.2591,1.313,1.3594,1.4016,1.4136,1.413,1.4016,1.4136,1.383,0.0,0.0,0.0,0.0,0.0,0.0,1.1232,0.0,0.0,0.0,0.0,0.0,0.0,0.0,0.0,0.0,0.0,0.0,0.0,0.0,1.8846,1.9604,1.984,1.9938,1.9952,1.9911,1.9791,1.9466,1.8591,1.7884,1.7255,1.6715,1.6175,1.5852,1.6067,1.6811,1.7532,1.7941,1.9456,2.1046,2.2321,2.3284,2.473,2.7048,2.855,2.9399,2.9399,2.9631,2.9792,2.9792,2.9792,3.0269,3.1336,3.1406,3.1922,3.3065,3.3102,3.3102,3.3102,3.3102,3.3102,3.3102,3.3102,3.3102,3.3102,3.3102,3.3102,3.3102,3.3102,3.2874,0.0,3.1347,3.052,2.9795,2.8491,2.7927,2.7809,2.762,2.7678,2.7809,0.0,0.0,0.0,0.0,0.0,0.0,0.0,0.9579,1.036,1.1243,1.1358,1.1358,1.1358,1.0813,1.0194,0.9584,0.0,0.0,0.0,0.0,0.0,0.0,0.0,0.0,1.0747,1.1974,1.2752,1.3039,1.3922,1.4375,1.4415,1.4415,1.4415,1.4415,1.4353,1.4234,1.4023,0.0,0.0,0.0,1.1423,1.1285,0.0,0.0,0.0,0.0,0.0,0.0,0.0,0.0,0.0,0.0,0.0,0.0,0.0,0.0,0.0,0.0,0.0,1.9399,1.9489,1.9395,1.9288,1.9049,1.8517,1.7895,0.0,1.6763,1.6259,1.6067,1.6571,1.7099,1.7808,1.8819,1.9901,2.1175,2.2782,2.3737,2.5101,2.7318,2.8683,2.9419,2.9419,2.965,2.9792,2.9792,2.9849,3.0306,3.1336,3.1436,3.1972,3.3065,3.3102,3.3102,3.3102,3.3102,3.3102,3.3102,3.3102,3.3102,3.3102,3.3102,3.3124,3.3124,3.3124,3.2602,3.1735,3.1933,3.1092,2.9635,2.9302,2.8991,2.8724,2.8245,2.8339,2.8631,0.0,0.0,0.0,0.0,0.0,0.0,0.0,0.0,0.0,0.0,1.0054,1.0054,1.0054,0.9899,0.955,0.0,0.0,0.0,0.0,0.0,0.0,0.0,0.0,0.0,1.1355,1.2178,1.3195,1.4431,1.5307,1.5986,1.6486,1.6486,1.6486,1.6471,1.5955,1.5017,1.3751,1.3145,0.0,0.0,1.1375,1.1285,0.0,0.0,0.0,0.0,1.3593,1.4202,0.0,0.0,0.0,0.0,0.0,0.0,0.0,0.0,1.7292,1.7482,1.791,0.0,1.8738,1.9022,1.9078,1.8907,0.0,1.8134,1.7869,1.7327,1.7111,1.7063,1.7183,1.7652,1.8229,1.8891,1.9901,2.1193,2.2897,2.5323,2.729,2.83,2.918,2.9702,2.9702,2.9772,2.9792,2.9792,3.0181,3.0708,3.1348,3.1788,3.234,3.3077,3.3102,3.3102,3.3102,3.3102,3.3102,3.3102,3.3102,3.3102,3.3102,3.3102,3.3176,3.3334,3.3334,3.3206,3.2936,3.2435,3.1899,3.1293,3.0102,2.9612,2.9475,2.8828,2.8642,2.8678,0.0,0.0,0.0,0.0,0.0,0.0,0.0,0.0,0.0,0.0,0.0,0.9603,0.9603,0.9327,0.0,0.0,0.0,0.0,0.0,0.0,0.0,0.0,0.0,1.1114,1.2173,1.3483,1.4597,1.5498,1.6589,1.73,1.7662,1.7662,1.7662,1.7638,1.6962,1.5637,1.3906,1.3549,1.2614,1.1407,1.1532,0.0,0.0,0.0,0.0,0.0,1.3613,1.4097,0.0,1.4929,1.5376,1.5793,0.0,0.0,0.0,0.0,1.6853,1.6931,1.7165,1.7618,1.8139,1.8533,1.8626,1.8614,1.8578,1.8374,1.8121,1.7832,1.7568,1.7472,1.7712,1.8256,1.8885,1.9615,2.0764,2.2259,2.4296,2.636,2.7934,2.8693,2.9383,2.9792,2.9792,2.9792,2.9792,2.9792,3.0306,3.0834,3.1361,3.1913,3.2478,3.3077,3.3102,3.3102,3.3102,3.3102,3.3102,3.3102,3.3197,3.3197,3.3124,3.3304,3.3377,3.342,3.3492,3.3535,3.3513,3.3245,3.2868,3.2382,3.1434,3.1034,3.0878,3.0306,3.0,2.9852,0.0,0.0,0.0,0.0,0.0,0.0,0.0,0.0,0.0,0.0,0.0,0.0,0.0,0.0,0.0,0.0,0.0,0.0,0.0,0.0,0.0,0.0,1.0923,1.2099,1.2998,1.4933,1.6066,1.6355,1.7654,1.8313,1.8361,1.8361,1.8253,1.8015,1.7454,1.6133,1.432,1.4108,1.316,1.1798,1.1797,0.0,0.0,0.0,0.0,0.0,0.0,0.0,0.0,1.5053,1.544,1.5691,1.631,0.0,0.0,0.0,0.0,0.0,1.6672,1.7093,1.7605,1.8015,1.817,1.8351,1.8797,1.8603,1.8326,1.8326,1.8037,1.7917,1.84,1.8985,1.9728,2.0718,2.218,2.3913,2.6032,2.7129,2.804,2.8932,2.949,2.9792,2.9792,2.9792,2.9792,2.9792,3.0382,3.0922,3.1381,3.2001,3.2566,3.3077,3.3133,3.3154,3.3154,3.3124,3.3133,3.3197,3.3334,3.3334,3.3197,3.3535,3.362,3.3526,3.3683,3.3755,3.3789,3.4034,3.3768,3.3138,3.2843,3.2627,3.2423,3.1896,3.1591,3.1405,0.0,0.0,0.0,0.0,0.0,0.0,0.0,0.0,0.0,0.0,0.0,0.0,0.0,0.0,0.0,0.0,0.0,0.0,0.0,0.0,0.0,0.9341,1.0797,1.2236,1.3546,1.4883,1.6053,1.7055,1.8168,1.8853,1.9124,1.9124,1.8508,1.7347,1.7254,1.6373,1.4916,1.4266,1.3503,1.2646,1.2046,0.0,0.0,0.0,0.0,0.0,0.0,0.0,0.0,1.4676,1.4995,1.5198,1.6185,0.0,0.0,0.0,0.0,0.0,1.6308,1.6682,1.7187,1.7593,1.803,1.8381,1.8466,1.8692,1.888,1.888,1.9181,1.9498,1.9693,2.0096,2.0764,2.1919,2.3961,2.5746,2.6735,2.7932,2.8938,2.9591,2.9741,2.9792,2.9792,2.9792,2.9792,2.9792,3.0728,3.1298,3.1406,3.2399,3.3002,3.3102,3.3283,3.3356,3.3356,3.3197,3.3283,3.362,3.3471,3.3471,3.362,3.367,3.381,3.3992,3.4034,3.4034,3.4055,3.4285,3.4189,3.3886,3.345,3.3258,3.315,3.2444,3.2171,3.214,0.0,0.0,0.0,0.0,0.0,0.0,0.0,0.0,0.0,0.0,0.0,0.0,0.0,0.0,0.0,0.0,0.0,0.0,0.0,0.0,0.9667,1.0039,1.1736,1.3082,1.395,1.5832,1.7209,1.8063,1.91,1.9698,1.9842,1.9842,1.9294,1.8323,1.7877,1.6912,1.5554,1.4276,1.3406,1.2814,0.0,0.0,0.0,0.0,0.0,0.0,0.0,0.0,0.0,0.0,1.4906,1.5095,1.616,0.0,0.0,0.0,0.0,0.0,1.6154,1.6637,1.7233,1.7272,1.7898,1.8667,1.9241,1.9519,1.9735,2.0066,2.0322,2.0606,2.096,2.1474,2.2451,2.4303,2.5344,2.6397,2.7832,2.8481,2.9038,2.9729,2.9792,2.9792,2.9792,2.9792,2.9792,2.9792,3.0783,3.1447,3.1602,3.2664,3.3313,3.342,3.3513,3.362,3.3781,3.3547,3.3513,3.3691,3.3747,3.3747,3.3713,3.3966,3.4084,3.4118,3.4222,3.4264,3.4285,3.4356,3.4356,3.4243,3.4021,3.3937,3.3852,3.3159,3.2639,3.2249,0.0,0.0,0.0,0.0,0.0,0.0,0.0,0.0,0.0,0.0,0.0,0.0,0.0,0.0,0.0,0.0,0.0,0.0,0.0,0.9201,0.9904,1.0766,1.2503,1.3667,1.4127,1.6523,1.8067,1.8654,1.9677,2.0211,2.0296,2.0296,1.9933,1.9215,1.8363,1.7342,1.617,1.4362,1.3455,1.3136,0.0,0.0,0.0,0.0,0.0,0.0,0.0,0.0,0.0,0.0,0.0,0.0,0.0,0.0,0.0,1.6414,1.6446,1.6461,1.6279,1.6902,1.7593,1.7609,1.8129,1.8893,1.984,2.0133,2.0415,2.1133,2.1391,2.1652,2.2243,2.3059,2.4323,2.63,2.6586,2.7105,2.8675,2.8937,2.9168,2.9741,2.9792,2.9792,2.9792,2.9792,2.9842,2.998,3.0919,3.1632,3.1955,3.2916,3.3535,3.3691,3.3755,3.3894,3.4097,3.3937,3.386,3.3873,3.4021,3.4013,3.3894,3.4251,3.4314,3.4181,3.4335,3.4397,3.4397,3.4397,3.4397,3.4397,3.4397,3.4293,3.4084,3.3407,3.2728,3.2086,0.0,0.0,0.0,0.0,0.0,0.0,0.0,0.0,0.0,0.0,0.0,0.0,0.0,0.0,0.0,0.0,0.0,0.0,0.0,0.8982,0.984,1.1025,1.2344,1.3311,1.3909,1.6225,1.7697,1.8245,1.9314,2.0004,2.0296,2.0296,1.9875,1.9068,1.8076,1.7342,1.6706,1.4718,1.4006,1.4116,1.3086,0.0,0.0,0.0,0.0,0.0,0.0,0.0,0.0,0.0,0.0,0.0,0.0,0.0,1.6489,1.6414,1.6446,1.6559,1.6848,1.7518,1.8356,1.9207,1.9107,1.8933,1.9504,1.9931,2.0513,2.1617,2.2243,2.2803,2.3524,2.4929,2.6176,2.6845,2.7828,2.8593,2.8856,2.9371,2.9754,2.9792,2.9792,2.9792,2.9792,2.9792,3.0005,3.05,3.1306,3.2006,3.2514,3.3266,3.3691,3.3691,3.3937,3.4076,3.4097,3.4285,3.4356,3.4356,3.4181,3.4202,3.4356,3.4377,3.4397,3.4377,3.4397,3.4397,3.4397,3.4397,3.4397,3.4397,3.4397,3.4021,3.3386,3.2639,3.2071,3.1716,0.0,0.0,0.0,0.0,0.0,0.0,0.0,0.0,0.0,0.0,0.0,0.0,0.0,0.0,0.0,0.0,0.0,0.0,0.0,0.9434,1.0316,1.1778,1.2789,1.3676,1.4442,1.6433,1.7827,1.8576,1.9606,2.0176,2.0296,2.0202,2.0012,1.9679,1.8375,1.758,1.707,1.5059,1.412,1.3905,1.2983,1.2972,0.0,0.0,0.0,0.0,0.0,0.0,0.0,0.0,1.4462,1.4984,1.5527,1.607,1.65,1.6468,1.6479,1.6591,1.7009,1.7661,1.8432,1.9419,2.0082,2.0622,2.1159,2.1652,2.2232,2.3037,2.3633,2.4309,2.5298,2.6516,2.7562,2.81,2.8537,2.8956,2.9396,2.9654,2.9792,2.9792,2.9792,2.9792,2.9792,3.0105,3.0434,3.0761,3.1729,3.251,3.3016,3.3619,3.4,3.4126,3.423,3.4293,3.4293,3.4356,3.4397,3.4397,3.4314,3.4335,3.4397,3.4397,3.4397,3.4397,3.4397,3.4397,3.4397,3.4397,3.4147,3.3742,3.337,3.2811,3.2237,3.246,3.2165,3.163,0.0,0.0,0.0,0.0,0.0,0.0,0.0,0.0,0.0,0.0,0.0,0.0,0.0,0.0,0.0,0.0,0.0,0.0,0.9313,0.9588,1.0545,1.244,1.311,1.3934,1.4995,1.6531,1.7738,1.8612,1.9754,2.0296,2.0296,2.0159,2.0098,1.9993,1.8323,1.7552,1.7359,1.5152,1.4178,1.4046,1.3237,1.31,0.0,0.0,0.0,0.0,0.0,0.0,0.0,0.0,1.4189,1.473,1.5286,1.5829,1.6285,1.645,1.65,1.6641,1.7277,1.7934,1.8732,1.9918,2.0984,2.1945,2.2673,2.3123,2.36,2.4356,2.5084,2.5937,2.706,2.7858,2.853,2.9095,2.9183,2.9321,2.9741,2.9792,2.9792,2.9792,2.9792,2.9792,2.9792,3.034,3.083,3.1153,3.2204,3.3044,3.3535,3.3973,3.4264,3.4397,3.4397,3.4397,3.4397,3.4397,3.4397,3.4397,3.4397,3.4397,3.4397,3.4397,3.4397,3.4397,3.4397,3.4397,3.4397,3.4397,3.4022,3.3402,3.2751,3.2123,3.1601,3.1912,3.1637,3.1087,0.0,0.0,0.0,0.0,0.0,0.0,0.0,0.0,0.7175,0.7376,0.7399,0.0,0.0,0.0,0.0,0.0,0.0,0.0,0.9309,0.9336,1.0407,1.2889,1.3182,1.399,1.5463,1.6421,1.7334,1.8215,1.9616,2.0296,2.0296,2.0159,2.0063,1.9894,1.7826,1.7198,1.752,1.4916,1.4195,1.4746,1.4072,1.3725,1.3598,0.0,0.0,0.0,0.0,0.0,0.0,0.0,1.3596,1.4195,1.473,1.5273,1.5816,1.6348,1.65,1.6717,1.7738,1.8496,1.9358,2.0913,2.1806,2.2608,2.3753,2.4004,2.4318,2.5398,2.6532,2.765,2.8706,2.89,2.9107,2.9691,2.9792,2.9792,2.9792,2.9792,2.9792,2.9792,2.9792,2.9792,2.9804,3.0478,3.1173,3.1759,3.2728,3.3542,3.4071,3.4293,3.4397,3.4397,3.4397,3.4397,3.4397,3.4397,3.4397,3.4397,3.4397,3.4397,3.4397,3.4397,3.4397,3.4397,3.4397,3.4397,3.4397,3.4397,3.4071,3.3513,3.2772,3.2152,3.1602,3.0869,3.0311,3.001,0.0,0.0,0.0,0.0,0.0,0.0,0.0,0.0,0.7364,0.7518,0.7537,0.0,0.0,0.0,0.0,0.0,0.0,0.0,0.9247,0.9437,1.0405,1.2419,1.2965,1.3792,1.498,1.6386,1.7716,1.8978,1.9764,2.0159,2.0159,1.9975,1.9654,1.9161,1.7981,1.7186,1.6627,1.5378,1.4694,1.4437,1.4235,1.3927,1.3598,0.0,0.0,0.0,0.0,0.0,0.0,0.0,0.0,0.0,1.473,1.5273,1.5816,1.6348,1.65,1.6738,1.7843,1.8569,1.9384,2.1024,2.2481,2.369,2.4402,2.4858,2.5548,2.7055,2.7934,2.8518,2.8838,2.9245,2.9591,2.9767,2.9792,2.9792,2.9792,2.9792,2.9792,2.9792,2.9792,2.9942,3.0331,3.1079,3.1812,3.2524,3.3369,3.3978,3.4293,3.4377,3.4397,3.4397,3.4397,3.4397,3.4397,3.4397,3.4397,3.4397,3.4397,3.4397,3.4397,3.4397,3.4397,3.4397,3.4397,3.4397,3.433,3.3423,3.2762,3.2196,3.1574,3.1207,3.1057,3.0918,3.0791,3.0631,0.0,0.0,0.0,0.0,0.0,0.0,0.7099,0.7318,0.7503,0.7597,0.7605,0.7601,0.0,0.0,0.0,0.7569,0.7524,0.8007,0.9218,0.9471,1.034,1.2096,1.276,1.367,1.4931,1.6134,1.7316,1.843,1.9284,1.983,2.0054,1.9647,1.9254,1.8849,1.7678,1.6823,1.6245,1.5444,1.4788,1.4308,1.4246,1.3955,1.3556,0.0,0.0,0.0,0.0,0.0,0.0,0.0,0.0,0.0,1.4654,1.5123,1.5527,1.6285,1.65,1.6749,1.7891,1.8744,1.9673,2.1129,2.2749,2.4318,2.5523,2.6038,2.6678,2.8116,2.8681,2.8982,2.9208,2.9553,2.9792,2.9792,2.9792,2.9792,2.9792,2.9792,2.9792,2.9792,2.9993,3.0283,3.0669,3.163,3.246,3.3032,3.3773,3.4285,3.4397,3.4397,3.4397,3.4397,3.4397,3.4397,3.4397,3.4397,3.4397,3.4397,3.4397,3.4397,3.4397,3.4397,3.4397,3.4384,3.4175,3.4071,3.4011,3.3003,3.2254,3.1708,3.1329,3.108,3.0888,3.0972,3.1005,3.0949,0.0,0.0,0.0,0.0,0.0,0.0,0.7123,0.7395,0.7605,0.7605,0.7605,0.7604,0.0,0.0,0.0,0.751,0.7489,0.7982,0.9128,0.9323,1.0134,1.1776,1.2511,1.3567,1.5031,1.5674,1.6319,1.6998,1.8334,1.9269,1.9799,1.9101,1.8756,1.8602,1.704,1.632,1.6221,1.5276,1.4697,1.44,1.4211,1.3879,1.3484,1.3425,0.0,0.0,0.0,0.0,0.0,0.0,0.0,0.0,1.4472,1.4856,1.5097,1.6132,1.645,1.6749,1.7891,1.8982,2.0075,2.1218,2.2799,2.4657,2.6871,2.7374,2.767,2.8756,2.8982,2.9145,2.9691,2.9792,2.9792,2.9792,2.9792,2.9792,2.9792,2.9792,2.9817,2.9867,3.0326,3.0745,3.1032,3.2209,3.305,3.334,3.4006,3.4397,3.4397,3.4397,3.4397,3.4397,3.4397,3.4397,3.4397,3.4397,3.4397,3.4397,3.4397,3.4397,3.4397,3.4397,3.4371,3.4293,3.3809,3.3535,3.3391,3.2842,3.2261,3.1732,3.1732,3.1425,3.1005,3.1005,3.1005,3.1005,0.0,0.0,0.0,0.0,0.0,0.0,0.731,0.7484,0.7605,0.7605,0.7596,0.7592,0.7602,0.7556,0.0,0.75,0.7455,0.7727,0.8471,0.8549,0.9214,1.0688,1.1977,1.3124,1.4087,1.4739,1.543,1.6168,1.7492,1.821,1.8345,1.808,1.7549,1.6858,1.669,1.6464,1.6189,1.5653,1.5384,1.5269,1.4654,1.4024,1.3425,1.3408,1.3314,0.0,0.0,0.0,0.0,0.0,0.0,0.0,1.4051,1.4563,1.5032,1.568,1.6172,1.6749,1.7891,1.8982,2.0075,2.1218,2.3088,2.5205,2.7431,2.7921,2.8247,2.9377,2.9603,2.9641,2.9786,2.9792,2.9792,2.9792,2.9792,2.9792,2.9792,2.9792,2.9955,3.0382,3.0671,3.1195,3.215,3.2834,3.3403,3.3889,3.4228,3.4397,3.4397,3.4397,3.4397,3.4397,3.4397,3.4397,3.4397,3.4397,3.4397,3.4397,3.4397,3.4397,3.4397,3.4397,3.4162,3.3757,3.3639,3.3064,3.2176,3.2052,3.1673,3.1169,3.1169,3.1091,3.1005,3.1005,3.1005,3.1005,0.0,0.0,0.0,0.0,0.0,0.0,0.0,0.0,0.7601,0.76,0.7596,0.7587,0.7556,0.7522,0.0,0.0,0.7421,0.7663,0.8256,0.8385,0.8923,1.0025,1.0834,1.1764,1.2816,1.3214,1.4078,1.541,1.6089,1.6894,1.7803,1.7401,1.6962,1.6509,1.6634,1.6534,1.6248,1.6222,1.6033,1.5702,1.5197,1.4498,1.3776,1.3741,1.3511,1.3198,1.3198,0.0,0.0,0.0,0.0,0.0,0.0,0.0,1.5007,1.554,1.6082,1.6749,1.7891,1.8794,1.9936,2.2146,2.3766,2.5381,2.7607,2.8109,2.8423,2.9585,2.9792,2.9792,2.9792,2.9792,2.9792,2.9792,2.9792,2.9792,2.9792,2.9792,3.0031,3.0664,3.1093,3.1756,3.2836,3.3398,3.3835,3.4217,3.4335,3.4397,3.4397,3.4397,3.4397,3.4397,3.4397,3.4397,3.4397,3.4397,3.4397,3.4397,3.4397,3.4267,3.4018,3.4018,3.3862,3.3561,3.2979,3.2378,3.1784,3.1516,3.1261,3.1005,3.1005,3.1005,3.1005,3.1005,3.1005,3.1005,0.0,0.0,0.0,0.0,0.0,0.0,0.0,0.0,0.0,0.7602,0.7595,0.7554,0.751,0.7484,0.7455,0.0,0.0,0.0,0.8094,0.8402,0.8864,0.9515,0.9675,1.0282,1.1456,1.1717,1.267,1.4367,1.4539,1.5515,1.719,1.6741,1.6517,1.6471,1.6636,1.6615,1.6484,1.692,1.6729,1.6118,1.5826,1.5153,1.4315,1.426,1.3928,1.3495,1.3495,1.3495,1.347,1.3391,0.0,0.0,0.0,0.0,1.4994,1.5427,1.6007,1.6737,1.7777,1.8656,2.0036,2.3088,2.4327,2.5331,2.7356,2.7971,2.8398,2.9428,2.9729,2.9792,2.9792,2.9792,2.9792,2.9792,2.9792,2.9792,2.9792,2.9906,3.0248,3.0968,3.1647,3.2418,3.3346,3.3866,3.4222,3.4397,3.4397,3.4397,3.4397,3.4397,3.4397,3.4397,3.4397,3.4397,3.4397,3.4397,3.4397,3.4397,3.4306,3.4018,3.3587,3.3378,3.3287,3.3234,3.2228,3.1745,3.1634,3.1182,3.1005,3.1005,3.1005,3.1005,3.1005,3.1005,3.1005,3.1005,0.0,0.0,0.0,0.0,0.0,0.0,0.0,0.0,0.0,0.0,0.7547,0.7516,0.7506,0.7451,0.7403,0.7399,0.7399,0.7403,0.7427,0.0,0.0,0.8899,0.9312,0.973,1.0136,1.1129,1.1831,1.2205,1.3376,1.4357,1.5193,1.5694,1.5765,1.552,1.6344,1.6837,1.7117,1.7693,1.7617,1.7074,1.6686,1.5846,1.4812,1.4802,1.4733,1.467,1.467,1.467,1.4595,1.4135,1.3972,0.0,0.0,0.0,1.4909,1.4994,1.5728,1.6649,1.7313,1.8957,2.093,2.2757,2.4026,2.513,2.6419,2.7437,2.8285,2.8894,2.9453,2.9792,2.9792,2.9792,2.9792,2.9792,2.9792,2.9792,2.9792,3.035,3.0981,3.1599,3.2525,3.3338,3.3941,3.4212,3.4377,3.4397,3.4397,3.4397,3.4397,3.4397,3.4397,3.4397,3.4397,3.4397,3.4397,3.4397,3.4397,3.4384,3.3927,3.3666,3.3548,3.2522,3.2032,3.2019,3.1863,3.1542,3.1091,3.1031,3.1005,3.1005,3.1005,3.1005,3.1005,3.1005,3.1005,3.1005,0.0,0.0,0.0,0.0,0.0,0.0,0.0,0.0,0.0,0.0,0.0,0.8369,0.799,0.7921,0.7772,0.7427,0.7399,0.738,0.7365,0.7801,0.8044,0.8013,0.8426,0.8812,0.9165,1.0144,1.1036,1.1805,1.2768,1.357,1.4259,1.4931,1.5361,1.5632,1.6762,1.7341,1.7512,1.7918,1.8115,1.8049,1.7016,1.6274,1.5766,1.5468,1.519,1.4942,1.4916,1.4906,1.4856,1.4626,1.4551,1.445,1.3878,0.0,0.0,0.0,1.5666,1.6699,1.7601,1.9246,2.1018,2.232,2.3722,2.5093,2.6248,2.7336,2.8242,2.8794,2.939,2.9792,2.9792,2.9792,2.9792,2.9792,2.9792,2.985,2.9953,3.0252,3.0858,3.1997,3.252,3.3187,3.4173,3.4356,3.4397,3.4397,3.4397,3.4397,3.4397,3.4397,3.4397,3.4397,3.4397,3.4397,3.4397,3.4397,3.4331,3.4228,3.3794,3.3475,3.3233,3.2483,3.2009,3.1784,3.1477,3.1341,3.1347,3.1347,3.1445,3.1611,3.1611,3.1611,3.1611,3.1611,3.1611,3.1593,0.0,0.0,0.0,0.0,0.0,0.0,0.0,0.0,0.0,0.0,0.0,0.9109,0.8602,0.0,0.0,0.0,0.7713,0.7543,0.7389,0.7582,0.7627,0.7457,0.779,0.812,0.8417,0.9399,1.0373,1.1316,1.214,1.2888,1.3555,1.4056,1.4736,1.5597,1.6876,1.7541,1.7716,1.8078,1.8379,1.8515,1.7363,1.6767,1.6512,1.614,1.5787,1.5469,1.5381,1.5363,1.5328,1.5158,1.5097,1.5009,1.4475,1.4956,0.0,0.0,0.0,1.6713,1.7715,1.9108,2.0527,2.1619,2.3135,2.4666,2.5804,2.6909,2.7883,2.8555,2.9214,2.9693,2.9851,2.9888,2.9888,2.9934,2.9953,3.0011,3.0152,3.0343,3.0874,3.2037,3.2492,3.3099,3.411,3.4319,3.4397,3.4397,3.4397,3.4397,3.4397,3.4397,3.4397,3.4397,3.4397,3.4397,3.4397,3.4357,3.424,3.4086,3.3661,3.3287,3.2991,3.2525,3.2171,3.1855,3.1457,3.1445,3.174,3.174,3.1855,3.2092,3.2092,3.2092,3.2092,3.2092,3.2092,3.2055,0.0,0.0,0.0,0.0,0.0,0.0,0.0,0.0,0.0,0.0,0.0,0.9283,0.9255,0.9241,0.9241,0.9199,0.8563,0.7922,0.7341,0.7374,0.7469,0.7593,0.7786,0.0,0.7933,0.9221,0.9939,0.9999,1.1236,1.2205,1.2855,1.2885,1.3604,1.4916,1.6174,1.7115,1.7742,1.8331,1.8402,1.8135,1.8056,1.7473,1.6689,1.6805,1.6811,1.6775,1.6651,1.6621,1.6511,1.5862,1.5666,1.5565,1.5032,1.5248,1.568,0.0,0.0,0.0,1.7274,1.8254,1.9371,2.0503,2.1995,2.3484,2.4628,2.5778,2.6889,2.7921,2.8722,2.9409,2.9973,3.0075,3.0152,3.033,3.0368,3.0368,3.0387,3.099,3.1455,3.1539,3.2736,3.3574,3.3626,3.4097,3.4397,3.4397,3.4397,3.4397,3.4397,3.4397,3.4397,3.4397,3.4397,3.4397,3.4397,3.4203,3.4113,3.4093,3.3361,3.3022,3.2978,3.2403,3.2096,3.2078,3.2051,3.2055,3.2073,3.2073,3.2073,3.2092,3.2092,3.2092,3.2092,3.2092,3.2092,3.2092,0.0,0.0,0.0,0.0,0.0,0.0,0.0,0.0,0.0,0.0,0.0,0.0,0.0,0.988,0.9694,0.9208,0.8497,0.7978,0.7756,0.7611,0.7526,0.753,0.7768,0.7901,0.7899,0.8788,0.9473,0.9894,1.0733,1.15,1.2175,1.26,1.3289,1.4214,1.553,1.6682,1.7654,1.7969,1.8222,1.8369,1.7807,1.7438,1.7178,1.6876,1.6857,1.6928,1.6673,1.6633,1.6661,1.6317,1.621,1.612,1.5578,1.5781,1.621,1.621,1.6348,1.6636,1.7236,1.818,1.9171,1.9924,2.1617,2.3208,2.3622,2.5159,2.6634,2.7094,2.7986,2.8944,2.9765,3.0125,3.0311,3.0387,3.0406,3.0444,3.0571,3.0828,3.115,3.1629,3.2143,3.2587,3.2973,3.3215,3.347,3.3849,3.3875,3.4031,3.4384,3.4397,3.4397,3.4397,3.4397,3.4228,3.3888,3.3701,3.3512,3.338,3.3133,3.306,3.3175,3.2707,3.2628,3.2874,3.2874,3.2717,3.2489,3.2489,3.2646,3.2874,3.2874,3.2874,3.2874,3.2874,3.2874,3.2838,0.0,0.0,0.0,0.0,0.0,0.0,0.0,0.0,1.1797,1.1797,0.0,0.0,0.0,0.0,1.0436,0.9546,0.8974,0.8514,0.8164,0.8017,0.7818,0.7544,0.7772,0.7906,0.7899,0.8555,0.9227,0.9894,1.0504,1.1131,1.1805,1.2265,1.2948,1.3848,1.4919,1.6211,1.7606,1.7652,1.8031,1.8567,1.8072,1.7827,1.771,1.746,1.7556,1.7753,1.7351,1.7379,1.7575,1.7305,1.7069,1.6833,1.6456,1.6403,1.65,1.65,1.65,1.6599,1.6986,1.7777,1.8631,1.9346,2.0777,2.218,2.2932,2.4264,2.5615,2.651,2.7357,2.825,2.9331,2.982,3.0157,3.0532,3.0596,3.0653,3.0779,3.0811,3.0979,3.1471,3.168,3.1954,3.2352,3.2581,3.2875,3.326,3.3307,3.3443,3.3809,3.3822,3.3822,3.3822,3.3822,3.3652,3.33,3.323,3.3127,3.301,3.3078,3.3172,3.329,3.3033,3.3051,3.3308,3.3308,3.3153,3.2895,3.2895,3.3051,3.3308,3.3308,3.3308,3.3308,3.3308,3.3308,3.3287,0.0,0.0,0.0,0.0,0.0,0.0,1.2033,0.0,1.2995,1.2995,0.0,0.0,0.0,0.0,0.0,1.0357,1.0116,0.9575,0.8521,0.8568,0.8325,0.7652,0.7816,0.7914,0.7899,0.854,0.9212,0.9894,1.0494,1.1136,1.1805,1.1805,1.2523,1.3821,1.4356,1.5728,1.7584,1.7476,1.7896,1.8643,1.8892,1.8681,1.8269,1.8577,1.8984,1.9324,1.8786,1.8938,1.9297,1.878,1.8218,1.7713,1.7623,1.7084,1.65,1.65,1.65,1.65,0.0,0.0,0.0,1.8694,1.9384,2.035,2.2506,2.3058,2.3771,2.6118,2.679,2.7366,2.8708,2.9111,2.9619,3.077,3.0966,3.0979,3.1005,3.1005,3.1005,3.1005,3.1451,3.1784,3.1784,3.2319,3.2666,3.2659,3.2659,3.2672,3.2685,3.2685,3.2685,3.2685,3.2672,3.2659,3.2659,3.2879,3.2964,3.2983,3.3201,3.3308,3.3308,3.3308,3.3308,3.3308,3.3308,3.3308,3.3308,3.3308,3.3308,3.3308,3.3308,3.3308,3.3308,3.3308,3.3308,3.342,0.0,0.0,0.0,0.0,0.0,1.2186,1.2651,1.2882,1.2995,0.0,0.0,0.0,1.2995,1.2616,1.2094,1.142,1.0839,1.028,0.9731,0.9465,0.9028,0.8354,0.8517,0.8402,0.7914,0.8083,0.8739,0.9894,1.0069,1.0713,1.1805,1.1805,1.2523,1.3827,1.4465,1.575,1.7476,1.7877,1.8488,1.917,1.8934,1.8903,1.8968,1.8724,1.8798,1.8993,1.8711,1.8763,1.8926,1.8675,1.8417,1.8122,1.7614,1.7019,1.65,1.65,1.65,1.65,1.65,0.0,0.0,0.0,0.0,0.0,2.0563,2.1942,2.3374,2.4331,2.5192,2.6212,2.7646,2.7969,2.8399,2.958,3.0098,3.0497,3.0953,3.1005,3.1005,3.1005,3.1117,3.1222,3.1222,3.1365,3.1627,3.2026,3.2052,3.2235,3.2672,3.2685,3.2685,3.2685,3.2274,3.2052,3.2052,3.2257,3.2354,3.2354,3.2993,3.3308,3.3308,3.3308,3.3308,3.3308,3.3308,3.3308,3.3308,3.3308,3.3308,3.3308,3.3308,3.3308,3.3308,3.3308,3.3589,3.3964,0.0,0.0,1.1343,1.1707,1.2343,1.2912,1.3326,1.3586,1.3755,0.0,0.0,0.0,1.3473,1.3235,1.2942,1.2587,1.2107,1.1549,1.0913,1.0646,1.0106,0.9183,0.8993,0.8721,0.8327,0.8038,0.8555,0.9894,0.9894,1.0548,1.1805,1.2095,1.2777,1.3857,1.4998,1.6217,1.7462,1.8589,1.9296,1.9664,1.938,1.9638,2.0184,1.9845,2.0049,2.0486,2.0191,2.0256,2.0449,2.0254,1.9743,1.8996,1.7872,1.7238,1.6835,1.6574,1.65,1.65,1.65,1.6762,1.7074,1.7348,0.0,0.0,1.9648,2.0842,2.2163,2.3438,2.4244,2.5148,2.6544,2.6785,2.718,2.836,2.8813,2.9382,3.0458,3.062,3.0725,3.0979,3.1005,3.1005,3.1005,3.1005,3.1117,3.1438,3.1464,3.1608,3.1967,3.198,3.198,3.198,3.1653,3.1559,3.1717,3.1974,3.2182,3.2363,3.2998,3.3308,3.3308,3.3308,3.3308,3.3308,3.3308,3.3308,3.3308,3.3308,3.3308,3.3308,3.3308,3.3308,3.3336,3.3589,3.3894,3.4273,0.0,0.0,1.2034,1.2189,1.3157,1.3924,1.3987,1.448,1.486,0.0,1.4939,1.4856,1.4463,1.4325,1.4156,1.3906,1.3722,1.3191,1.2192,1.2059,1.1446,1.0164,0.9537,0.9156,0.9006,0.8428,0.8731,0.9994,0.9994,1.0623,1.1805,1.2495,1.3151,1.3874,1.5691,1.6839,1.7504,1.9346,2.0176,2.0222,2.0188,2.0756,2.1622,2.1536,2.2013,2.2714,2.2421,2.2508,2.2715,2.246,2.151,2.0117,1.8478,1.7806,1.7495,1.6798,1.6609,1.6597,1.6523,1.65,1.6624,1.7173,1.736,0.0,1.9221,1.9762,2.06,2.2848,2.3491,2.402,2.5235,2.5527,2.5918,2.7017,2.7251,2.793,2.9748,3.0009,3.0236,3.083,3.0895,3.094,3.0992,3.1005,3.1005,3.1005,3.1005,3.1005,3.1005,3.1005,3.1005,3.1005,3.1005,3.1179,3.1593,3.1928,3.2309,3.2704,3.3104,3.3308,3.3308,3.3308,3.3308,3.3308,3.3308,3.3308,3.3308,3.3308,3.3308,3.3308,3.3308,3.3308,3.3378,3.3978,3.4245,3.4488,1.1719,1.1922,1.2315,1.3354,1.3734,1.4057,1.4555,1.4915,1.5164,1.5263,1.5856,1.631,1.6426,1.6411,1.6219,1.5728,1.5219,1.4729,1.4246,1.372,1.2816,1.1491,1.1301,1.0747,0.9719,0.9584,0.9875,1.0623,1.0623,1.1032,1.1805,1.2495,1.3133,1.3802,1.5787,1.6911,1.7449,1.9486,2.0582,2.1043,2.166,2.2127,2.2473,2.2625,2.2591,2.2517,2.2884,2.2777,2.2449,2.2291,2.173,2.0927,1.9939,1.9378,1.8841,1.7593,1.7301,1.7254,1.6669,1.65,1.6536,1.6649,1.7036,0.0,1.7801,1.8894,2.0027,2.0678,2.1508,2.2392,2.3227,2.3774,2.4391,2.5197,2.5691,2.6788,2.9126,2.9462,2.9653,3.021,3.0288,3.0471,3.0953,3.1005,3.1005,3.1005,3.1005,3.1005,3.1005,3.1005,3.1005,3.1005,3.1005,3.1179,3.1593,3.1928,3.2309,3.2704,3.3104,3.3308,3.3308,3.3308,3.3308,3.3308,3.3308,3.3308,3.3308,3.3308,3.3308,3.3308,3.3308,3.3308,3.3378,3.3978,3.4548,3.51,1.1936,1.2504,1.3157,1.3797,1.4155,1.4443,1.4752,1.5242,1.5547,1.5421,1.61,1.6774,1.7202,1.7253,1.7171,1.698,1.6665,1.6276,1.5778,1.5156,1.4346,1.3337,1.2343,1.1506,1.0862,1.0224,1.0204,1.0798,1.0798,1.1316,1.231,1.2978,1.3818,1.4823,1.6434,1.7407,1.7986,1.9961,2.1114,2.1647,2.2262,2.2782,2.3258,2.3797,2.408,2.4262,2.48,2.4824,2.4444,2.3391,2.2802,2.2294,2.108,2.0258,1.9558,1.8622,1.7988,1.749,1.7068,1.6724,1.65,1.65,1.6724,0.0,0.0,1.8073,1.889,1.9559,2.0399,2.1204,2.1822,2.2454,2.309,2.3789,2.4373,2.5213,2.6527,2.7461,2.822,2.8787,2.886,2.9189,3.0068,2.9845,2.9884,3.0463,3.0804,3.1005,3.1005,3.1005,3.1099,3.1291,3.131,3.1574,3.2146,3.2327,3.2596,3.2998,3.3206,3.3308,3.3308,3.3308,3.3308,3.3308,3.3308,3.3308,3.3308,3.3308,3.3308,3.3308,3.3308,3.3491,3.3842,3.4464,3.51,3.5738,1.2378,1.3199,1.393,1.4043,1.4517,1.4921,1.5049,1.5702,1.6202,1.6284,1.6994,1.7698,1.8256,1.8214,1.8197,1.8265,1.8034,1.7661,1.7122,1.6518,1.5874,1.5201,1.3502,1.2514,1.2379,1.1226,1.0867,1.137,1.1354,1.1886,1.2963,1.3631,1.4579,1.5779,1.7035,1.7954,1.8685,2.0475,2.1629,2.2334,2.29,2.3548,2.4308,2.5273,2.5931,2.6397,2.6849,2.7073,2.6892,2.5069,2.4367,2.3949,2.2328,2.1312,2.055,1.9711,1.8819,1.8033,1.7658,1.72,1.6799,1.6699,1.6674,1.6762,0.0,0.0,0.0,1.8735,1.9456,2.0029,2.045,2.1103,2.1681,2.2061,2.2848,2.3365,2.3301,2.4633,2.5992,2.7014,2.7208,2.7692,2.8727,2.85,2.8753,2.9777,3.0443,3.0861,3.0986,3.1005,3.1179,3.1593,3.1593,3.1946,3.2686,3.2704,3.2895,3.3308,3.3308,3.3308,3.3308,3.3308,3.3308,3.3308,3.3308,3.3308,3.3308,3.3308,3.3308,3.3308,3.3434,3.3768,3.4287,3.5072,3.5681,3.6202,1.3677,1.3804,1.4071,1.4598,1.4951,1.5356,1.5942,1.6466,1.7441,1.9232,2.0172,2.0823,2.1182,2.0803,2.0462,2.0369,1.9277,1.8544,1.8484,1.7848,1.7182,1.651,1.574,1.5072,1.4475,1.3678,1.3305,1.3379,1.3308,1.3365,1.3519,1.4129,1.4794,1.5513,1.6964,1.8197,1.9291,2.0685,2.2073,2.3433,2.454,2.5398,2.6158,2.7496,2.784,2.7594,2.7664,2.8025,2.8283,2.6937,2.6343,2.5873,2.4151,2.3501,2.2921,2.0667,1.999,1.9722,1.8451,1.8066,1.789,1.7412,1.7299,1.7173,1.6712,0.0,1.7458,1.7584,0.0,1.8453,1.8516,0.0,0.0,1.905,2.0431,2.1317,2.0483,2.1158,2.2652,2.5092,2.5865,2.642,2.7029,2.7817,2.8611,2.9326,2.9834,3.0375,3.0968,3.1005,3.1179,3.1593,3.1593,3.1946,3.2686,3.2704,3.2895,3.3308,3.3308,3.3308,3.3308,3.3308,3.3308,3.3308,3.3308,3.3308,3.3308,3.3308,3.3308,3.335,3.388,3.4147,3.4343,3.555,3.6047,3.6202,1.3973,1.4183,1.4499,1.4766,1.534,1.5849,1.6053,1.7179,1.8853,2.1258,2.1622,2.1945,2.2715,2.2604,2.2299,2.1899,2.1345,2.0851,2.0468,1.945,1.8724,1.8454,1.7086,1.5987,1.5281,1.462,1.4073,1.3636,1.361,1.3782,1.4145,1.4771,1.5654,1.6739,1.8147,1.9221,2.0109,2.1839,2.3341,2.4688,2.6327,2.7645,2.8613,2.8536,2.9117,2.9992,3.0396,3.0693,3.0667,2.9029,2.8087,2.7384,2.6002,2.4998,2.404,2.2606,2.1758,2.0962,1.9523,1.8956,1.8627,1.8026,1.7922,1.7893,1.7562,1.7438,1.741,1.741,0.0,0.0,0.0,0.0,0.0,0.0,1.9246,1.9671,1.9007,1.9663,2.087,2.2583,2.3275,2.4056,2.517,2.6584,2.7656,2.8219,2.8737,2.9441,3.0434,3.0453,3.0872,3.1868,3.1891,3.2268,3.3033,3.3051,3.3122,3.3308,3.3308,3.3308,3.3308,3.3308,3.3308,3.3308,3.3308,3.3308,3.3308,3.3308,3.3519,3.3898,3.4534,3.4791,3.4889,3.5761,3.6309,3.6661,1.4411,1.4651,1.4975,1.5223,1.589,1.6567,1.7046,1.8865,2.0856,2.2757,2.3181,2.3607,2.435,2.4286,2.4024,2.3584,2.3023,2.2503,2.2054,2.0915,2.0163,1.9983,1.8401,1.7188,1.644,1.5802,1.5196,1.461,1.4596,1.4803,1.525,1.5741,1.6609,1.7825,1.8983,1.9973,2.0877,2.2672,2.4189,2.553,2.7284,2.904,3.0564,2.9911,3.0661,3.2096,3.2596,3.2772,3.2547,3.0993,2.9881,2.8939,2.7721,2.6439,2.5224,2.4281,2.3298,2.2236,2.0967,2.0295,1.9775,1.8929,1.8788,1.8748,1.829,1.7902,1.7575,1.7424,1.741,0.0,0.0,0.0,1.7889,1.7621,0.0,1.8239,1.7523,1.8206,1.9203,2.0329,2.1198,2.2203,2.3454,2.5105,2.6305,2.6791,2.7612,2.8456,2.9378,2.9799,3.0525,3.1599,3.1942,3.2485,3.329,3.3308,3.3308,3.3308,3.3308,3.3308,3.3308,3.3308,3.3308,3.3308,3.3308,3.3308,3.3308,3.3308,3.3655,3.4259,3.4932,3.5287,3.5513,3.6131,3.6618,3.6998,1.5418,1.5314,1.5449,1.6308,1.6689,1.7574,1.9658,2.2057,2.3672,2.3754,2.545,2.6603,2.6509,2.605,2.5718,2.5703,2.385,2.2755,2.2853,2.2089,2.135,2.0698,1.9974,1.9265,1.8511,1.7783,1.7344,1.7176,1.7117,1.7098,1.7113,1.7142,1.7528,1.821,1.8963,2.0082,2.1464,2.2758,2.4186,2.5699,2.6932,2.9056,3.1526,3.2139,3.2826,3.3439,3.3454,3.3484,3.3362,3.2651,3.1779,3.0735,2.9136,2.7976,2.6887,2.526,2.4339,2.3658,2.2917,2.2324,2.1604,2.0348,2.0042,1.9724,1.8478,1.8191,1.8028,1.7511,1.741,1.7223,1.6636,1.7024,1.6993,0.0,1.6586,0.0,0.0,1.6193,1.7237,1.8697,2.0259,2.1415,2.1922,2.3374,2.4538,2.5141,2.6639,2.7564,2.7662,2.9217,3.0197,3.0457,3.1514,3.2485,3.329,3.3308,3.3308,3.3308,3.3308,3.3308,3.3308,3.3308,3.3308,3.3308,3.3308,3.3308,3.3308,3.3308,3.3655,3.4259,3.4932,3.5555,3.6145,3.6745,3.6984,3.6998,1.5779,1.5995,1.626,1.6459,1.7467,1.9239,2.2216,2.3312,2.4283,2.5609,2.6766,2.765,2.814,2.8415,2.8225,2.7319,2.6518,2.5718,2.487,2.4075,2.333,2.2652,2.2019,2.0918,1.9295,1.9031,1.8387,1.7366,1.734,1.729,1.7206,1.7655,1.801,1.8334,1.9865,2.1137,2.2246,2.3955,2.5816,2.7771,2.9913,3.1601,3.2901,3.3575,3.3964,3.4218,3.4651,3.4831,3.4724,3.4057,3.2985,3.1786,3.0792,2.9626,2.8339,2.6885,2.6304,2.5819,2.4332,2.3603,2.3041,2.2116,2.1696,2.1234,2.0219,1.9775,1.9406,1.8737,1.8308,1.79,1.7398,1.7349,1.7048,0.0,0.0,0.0,0.0,1.574,1.6432,1.7251,1.8416,1.949,2.0366,2.1518,2.2585,2.3513,2.4661,2.5835,2.701,2.7519,2.8536,3.0149,3.0697,3.1465,3.2497,3.3033,3.3308,3.3308,3.3308,3.3308,3.3308,3.3308,3.3308,3.3308,3.3308,3.3308,3.3336,3.3726,3.4277,3.4918,3.5555,3.6174,3.6717,3.6928,3.6998,3.6998,1.6653,1.6924,1.7141,1.7079,1.8856,2.1107,2.3554,2.4659,2.5692,2.6992,2.8203,2.9143,2.9646,3.0097,3.0031,2.9215,2.8586,2.7953,2.7331,2.6097,2.5167,2.4698,2.3845,2.2506,2.0678,2.0401,1.9673,1.847,1.8241,1.8071,1.7993,1.8422,1.8647,1.8769,2.0504,2.1723,2.263,2.4579,2.6507,2.85,3.136,3.3035,3.3934,3.4607,3.4862,3.4922,3.534,3.5504,3.5429,3.5012,3.4059,3.2919,3.2024,3.0945,2.972,2.8404,2.7854,2.7382,2.5945,2.5242,2.4678,2.3739,2.3163,2.2595,2.1754,2.1218,2.072,2.0029,1.9443,1.8931,1.8439,1.7939,1.7305,0.0,0.0,0.0,0.0,1.5395,1.5728,1.6037,1.7114,0.0,0.0,0.0,2.1105,2.2158,2.329,2.4465,2.5635,2.6281,2.7459,2.9237,2.9728,3.0672,3.2092,3.2618,3.3016,3.3308,3.3308,3.3308,3.3308,3.3308,3.3308,3.3308,3.3308,3.3308,3.335,3.395,3.4604,3.5245,3.5864,3.6464,3.6998,3.6998,3.6998,3.6998,1.797,1.8055,1.8146,1.8333,2.0855,2.3119,2.384,2.6151,2.7833,2.7906,2.9715,3.1008,3.1022,3.1069,3.1153,3.1257,3.0005,2.9442,3.0021,2.8145,2.6907,2.6716,2.5438,2.4097,2.2674,2.1966,2.1233,2.045,1.9782,1.9448,1.9395,1.9395,1.9409,1.9512,2.0813,2.1844,2.2719,2.4639,2.6358,2.8079,3.127,3.3335,3.4563,3.5235,3.5534,3.5549,3.5519,3.5504,3.5504,3.5504,3.497,3.4078,3.2832,3.1879,3.0983,2.9719,2.8939,2.8347,2.7755,2.7196,2.6491,2.5241,2.4483,2.3842,2.3073,2.2493,2.1929,2.1324,2.0771,2.0232,1.9653,1.8752,1.7759,0.0,0.0,0.0,1.5234,1.5119,1.5097,0.0,0.0,0.0,0.0,0.0,0.0,2.1006,2.2533,0.0,0.0,2.5515,2.6917,2.7728,2.8672,3.0084,3.1911,3.2042,3.2479,3.3241,3.3241,3.3259,3.3308,3.3308,3.3308,3.3308,3.3308,3.3322,3.3392,3.3992,3.4646,3.5287,3.592,3.6492,3.6998,3.6998,3.6998,3.6998,1.8102,1.8766,1.9945,2.1849,2.3029,2.4219,2.5786,2.7125,2.8319,2.9303,3.0437,3.1197,3.129,3.2098,3.2495,3.2127,3.2028,3.1658,3.0945,3.0196,2.9309,2.8277,2.7335,2.6186,2.4836,2.3656,2.2469,2.1218,2.0546,1.9945,1.9395,1.9395,1.9669,2.0189,2.102,2.2357,2.4075,2.5524,2.7833,3.0658,3.2512,3.3754,3.4563,3.5235,3.5804,3.6194,3.5684,3.5504,3.5504,3.5504,3.497,3.4148,3.3273,3.2467,3.1604,3.0276,2.9779,2.9544,2.8987,2.8416,2.7788,2.7003,2.639,2.5683,2.4542,2.391,2.3355,2.2659,2.209,2.1445,2.056,1.9762,1.8796,1.74,1.6336,1.5677,0.0,0.0,0.0,1.5097,0.0,0.0,0.0,0.0,0.0,0.0,0.0,0.0,2.3726,2.4066,2.5094,2.6923,2.8169,2.9116,2.9732,3.1299,3.2196,3.2408,3.2408,3.2721,3.3308,3.3308,3.3308,3.3308,3.3308,3.3561,3.4006,3.466,3.5316,3.5934,3.652,3.6857,3.6998,3.6998,3.6998,3.6998,1.9767,2.0656,2.2104,2.4118,2.5134,2.601,2.7079,2.8465,2.974,3.0737,3.1628,3.2287,3.2592,3.3314,3.3649,3.3336,3.3531,3.3459,3.297,3.2207,3.14,3.0577,2.9464,2.8126,2.6509,2.5462,2.4085,2.2424,2.1779,2.1094,2.0417,2.0417,2.0619,2.1015,2.1941,2.3171,2.4697,2.7158,2.9646,3.2049,3.3395,3.437,0.0,3.5769,3.6314,3.6711,3.6621,3.6475,3.6342,3.6342,3.5852,3.5083,3.3973,3.3141,3.2307,3.09,3.0484,3.0367,2.981,2.9405,2.9013,2.8438,2.785,2.7183,2.6199,2.5579,2.5036,2.4359,2.3592,2.2866,2.2283,2.1134,1.971,1.7985,1.6658,1.5863,1.59,0.0,0.0,0.0,1.5372,0.0,0.0,0.0,0.0,0.0,0.0,0.0,2.3148,2.3232,2.422,2.636,2.731,2.8138,2.8894,3.0682,3.1746,3.2092,3.2461,3.286,3.3308,3.3308,3.3308,3.3308,3.3589,3.388,3.4273,3.5213,3.5794,3.6174,3.6759,3.6998,3.6998,3.6998,3.6998,3.6998,2.2249,2.3121,2.4316,2.5676,2.7121,2.8127,2.823,2.9922,3.1431,3.2068,3.2874,3.3602,3.4191,3.4448,3.4599,3.4643,3.4676,3.4848,3.5217,3.4013,3.3182,3.2974,3.1489,2.9861,2.8154,2.7288,2.5914,2.3984,2.3381,2.2648,2.1824,2.1824,2.1869,2.1994,2.3112,2.4212,2.5486,2.9129,3.1493,3.2901,3.4101,3.5081,3.5932,3.6522,3.6968,3.7342,3.7919,3.7852,3.7473,3.7473,3.7145,3.6462,3.4998,3.4101,3.3293,3.1823,3.1335,3.1142,3.0472,3.0333,3.022,2.9572,2.9053,2.852,2.7889,2.7314,2.6755,2.6148,2.5182,2.4385,2.4241,2.2578,2.0611,1.8783,1.7453,1.6579,1.641,0.0,0.0,0.0,0.0,0.0,0.0,0.0,0.0,0.0,0.0,0.0,0.0,2.2758,2.3843,2.5931,2.6593,2.7462,2.8625,3.0252,3.136,3.1947,3.2757,3.3206,3.3308,3.3308,3.335,3.3462,3.3964,3.4287,3.4526,3.5648,3.6159,3.6267,3.6801,3.6998,3.6998,3.6998,3.6998,3.6998,2.4346,2.4968,2.5876,2.7322,2.8705,2.9835,3.0491,3.0941,3.1625,3.2835,3.3223,3.3675,3.4368,3.4818,3.514,3.5322,3.5584,3.5645,3.5461,3.4942,3.438,3.3803,3.2368,3.1337,3.0837,2.9132,2.753,2.6075,2.5405,2.4208,2.2523,2.2523,2.2782,2.3281,2.3505,2.5521,2.8845,3.0749,3.2629,3.4345,3.4757,3.5653,3.6792,3.6898,3.7658,3.8664,3.8785,3.8415,3.7895,3.7895,3.7819,3.7578,3.6714,3.5999,3.5239,3.3865,3.3115,3.2524,3.1587,3.1538,3.1463,3.027,3.0136,3.0077,2.9193,2.8534,2.7932,2.7337,2.67,2.5958,2.5031,2.3458,2.1939,2.0768,1.9381,1.8553,1.8898,0.0,0.0,0.0,0.0,1.6335,0.0,0.0,0.0,0.0,0.0,0.0,0.0,2.2402,2.3297,2.5378,2.7476,2.8145,2.7263,3.0335,3.1636,3.1119,3.1942,3.2668,3.3308,3.3308,3.3575,3.4048,3.4147,3.4796,3.5789,3.6,3.6379,3.6857,3.697,3.6998,3.6998,3.6998,3.6998,3.6998,2.6866,2.7167,2.7728,2.9191,3.0329,3.1306,3.2116,3.2627,3.3115,3.3642,3.4172,3.4722,3.5324,3.5692,3.5907,3.5999,3.6183,3.6151,3.5876,3.5721,3.5293,3.4562,3.3743,3.2975,3.2297,3.0847,2.9502,2.8256,2.7522,2.6318,2.4713,2.4713,2.4698,2.4687,2.5801,2.7953,3.0839,3.2322,3.3683,3.4924,3.573,3.6479,3.7183,3.7915,3.8637,3.93,3.9652,3.9575,3.9266,3.911,3.8816,3.8393,3.7657,3.6981,3.6202,3.4858,3.427,3.3793,3.2686,3.2506,3.2375,3.1381,3.1161,3.0965,3.0196,2.9639,2.9113,2.8556,2.7984,2.716,2.5732,2.4154,2.282,2.2096,2.068,1.967,1.9647,0.0,1.7781,0.0,0.0,0.0,0.0,0.0,0.0,0.0,0.0,0.0,0.0,2.2406,2.3261,2.5246,2.6996,2.7785,2.7514,3.0154,3.1489,3.1526,3.2336,3.2931,3.3308,3.3613,3.3922,3.4231,3.4895,3.5536,3.6131,3.6436,3.6745,3.6998,3.6998,3.6998,3.6998,3.6998,3.6998,3.6998,2.9032,2.929,2.9711,3.0941,3.1874,3.2703,3.3366,3.4186,3.4661,3.4497,3.5062,3.5707,3.6197,3.6414,3.6507,3.6507,3.646,3.6383,3.6274,3.6227,3.5919,3.5292,3.497,3.4364,3.3453,3.2508,3.1532,3.048,2.9669,2.8312,2.6453,2.6836,2.6836,2.6576,2.8564,3.0483,3.2338,3.3696,3.4714,3.5566,3.6663,3.7339,3.7804,3.8923,3.9497,3.9784,4.0305,4.0489,4.047,4.0207,3.9754,3.9213,3.8642,3.8019,3.724,3.5911,3.5441,3.5055,3.3779,3.3465,3.3347,3.2517,3.2167,3.1822,3.1051,3.0654,3.0241,2.9593,2.9004,2.8144,2.6701,2.5193,2.402,2.3546,2.2016,2.0784,2.0522,0.0,0.0,0.0,0.0,0.0,1.7967,0.0,0.0,0.0,0.0,0.0,2.2205,2.2401,2.3294,2.5193,2.645,2.731,2.7785,3.0025,3.1397,3.1856,3.2824,3.3378,3.3519,3.3978,3.4343,3.4656,3.5663,3.6174,3.6323,3.6801,3.6998,3.6998,3.6998,3.6998,3.6998,3.6998,3.6998,3.6998,3.0016,3.0941,3.1794,3.2178,3.3226,3.4085,3.4338,3.4967,3.5399,3.5383,3.546,3.5753,3.6399,3.6492,3.6507,3.6507,3.6336,3.6289,3.646,3.6289,3.6165,3.6088,3.5477,3.5049,3.482,3.4122,3.3409,3.271,3.1885,2.9609,2.5998,2.7635,2.8775,2.9477,3.0891,3.2382,3.3848,3.4714,3.5828,3.702,3.7334,3.8182,3.9305,3.9444,3.9874,4.0397,4.0474,4.0489,4.0505,4.0455,4.0424,4.0345,4.0293,3.9881,3.9187,3.7889,3.7168,3.6462,3.4887,3.4734,3.4673,3.3342,3.3215,3.3092,3.1812,3.1494,3.1187,3.0218,2.9588,2.8997,2.8303,2.7199,2.6218,2.5709,2.3859,2.2617,2.2999,2.1431,2.0423,2.0868,0.0,0.0,0.0,1.8725,0.0,0.0,0.0,0.0,0.0,2.2063,2.3117,2.5063,2.6815,2.7397,2.6742,3.0233,3.1673,3.1044,3.2561,3.3603,3.4119,3.4175,3.4825,3.593,3.6061,3.6408,3.6928,3.6984,3.6998,3.6998,3.6998,3.6998,3.6998,3.6998,3.6998,3.6998,3.2498,3.2932,3.3254,3.3456,3.4207,3.4865,3.5076,3.6014,3.6692,3.6692,3.6692,3.6799,3.7076,3.7461,3.7538,3.7138,3.7029,3.6797,3.6351,3.6367,3.6336,3.6211,3.5936,3.5829,3.5891,3.5049,3.4516,3.4317,3.3425,3.1993,3.0061,3.0778,3.1346,3.1773,3.2844,3.383,3.4805,3.6044,3.6889,3.7457,3.8337,3.9014,3.9553,3.9953,4.0276,4.0489,4.0489,4.0489,4.0489,4.0489,4.0489,4.0489,4.0489,4.0124,3.9532,3.8658,3.7999,3.7237,3.5873,3.5625,3.5522,3.459,3.3984,3.3459,3.2914,3.2331,3.1728,3.1116,3.0353,2.9707,2.9463,2.8182,2.7102,2.6904,2.5033,2.3711,2.402,2.2738,0.0,2.2235,0.0,2.1066,0.0,0.0,0.0,0.0,0.0,0.0,0.0,2.254,2.3406,2.4587,2.6342,2.7576,2.8198,3.0307,3.1691,3.2331,3.2493,3.3161,3.4199,3.4113,3.502,3.6632,3.6632,3.6787,3.6998,3.6998,3.6998,3.6998,3.6998,3.6998,3.704,3.74,3.754,3.7616,3.4087,3.4272,3.4394,3.4559,3.5294,3.5922,3.6076,3.7061,3.78,3.78,3.7969,3.8015,3.7815,3.8231,3.8307,3.7846,3.78,3.7459,3.6642,3.6721,3.6645,3.6305,3.6289,3.6352,3.6507,3.5799,3.5492,3.5585,3.4668,3.3577,3.2349,3.2124,3.2591,3.3679,3.4286,3.5049,3.5952,3.7044,3.7738,3.8168,3.9122,3.9614,3.9861,4.032,4.0489,4.0489,4.0489,4.0489,4.0489,4.0489,4.0489,4.0489,4.0489,4.0124,3.9574,3.898,3.8375,3.7672,3.6636,3.6351,3.623,3.5625,3.4896,3.4224,3.3721,3.3051,3.24,3.1858,3.1181,3.0611,3.0304,2.8971,2.7804,2.753,2.587,2.4664,2.4697,2.3849,2.3219,2.3206,2.2898,0.0,2.25,2.1966,0.0,0.0,0.0,0.0,2.2253,2.303,2.3836,2.4707,2.624,2.7711,2.9091,3.0288,3.1484,3.2596,3.2418,3.296,3.4159,3.4654,3.5656,3.6998,3.6998,3.6998,3.6998,3.6998,3.6998,3.7026,3.7209,3.7265,3.733,3.7948,3.8187,3.8257,3.4163,3.4728,3.5248,3.5445,3.6584,3.7477,3.7477,3.8061,3.8476,3.8476,3.9061,3.9214,3.8553,3.8491,3.8491,3.8476,3.8476,3.82,3.7538,3.7492,3.7184,3.6522,3.6507,3.6507,3.6507,3.6492,3.6476,3.6476,3.56,3.3856,3.1294,3.0504,3.1939,3.5171,3.5187,3.6044,3.7477,3.7492,3.8245,3.9476,3.9491,3.9907,4.0489,4.0489,4.0489,4.0489,4.0489,4.0489,4.0489,4.0489,4.0489,4.0489,4.0489,4.0124,3.9574,3.898,3.8375,3.7772,3.7173,3.6998,3.6843,3.6225,3.607,3.5653,3.397,3.3601,3.3294,3.2305,3.2078,3.1773,3.0777,2.9667,2.8555,2.7565,2.6422,2.5566,2.5236,2.478,2.4281,2.3752,2.2805,0.0,2.311,2.2579,0.0,0.0,0.0,2.3029,2.2515,2.3313,2.4407,2.5734,2.6835,2.7784,2.8606,3.0128,3.0914,3.0932,3.2252,3.3271,3.4072,3.6061,3.6984,3.6998,3.6998,3.6998,3.6998,3.6998,3.6998,3.7068,3.7653,3.7892,3.7962,3.8643,3.8902,3.8902,3.6371,3.6584,3.6783,3.6861,3.76,3.8168,3.8168,3.8753,3.9184,3.9184,3.9768,4.0107,3.9891,3.9861,3.9676,3.9214,3.9184,3.8891,3.8231,3.8168,3.7892,3.7215,3.7184,3.6969,3.6507,3.6507,3.6507,3.6507,3.6075,3.5462,3.4636,3.4392,3.5156,3.6767,3.6767,3.729,3.8199,3.8661,3.9107,3.9554,4.0304,4.0716,4.0935,4.1156,4.1554,4.1996,4.1996,4.1808,4.1584,4.1584,4.11,4.0437,4.0071,3.9559,3.9053,3.887,3.8075,3.725,3.7056,3.6998,3.6956,3.6759,3.6393,3.5967,3.5428,3.4432,3.3399,3.2666,3.1841,3.1177,3.0859,2.9726,2.8738,2.8411,2.7399,2.6679,2.6708,2.6141,2.5716,2.5681,2.5271,2.5124,2.549,2.4902,0.0,0.0,2.4108,2.4089,2.3542,2.4265,2.504,2.585,2.7012,2.7982,2.88,2.9663,3.0541,3.1451,3.1915,3.3016,3.4666,3.627,3.6998,3.6998,3.6998,3.6998,3.6998,3.6998,3.7251,3.7625,3.7835,3.8173,3.8657,3.9275,3.9514,3.957,3.8151,3.841,3.8544,3.8309,3.8806,3.9174,3.891,3.9445,3.9876,3.9876,4.0245,4.0489,4.0489,4.0489,4.032,3.9922,3.9876,3.9599,3.8922,3.8876,3.8568,3.7908,3.7877,3.7677,3.7261,3.6999,3.6876,3.6876,3.6506,3.6443,3.6688,3.6688,3.7104,3.7877,3.7877,3.8262,3.8891,3.9322,3.973,4.0161,4.0831,4.1345,4.1716,4.1933,4.2459,4.3077,4.3077,4.2664,4.2102,4.2102,4.1391,4.0403,3.9859,3.9289,3.8745,3.8523,3.7772,3.6998,3.6998,3.6998,3.6998,3.6998,3.6717,3.6309,3.5878,3.4757,3.3563,3.2671,3.1882,3.1145,3.0469,2.9626,2.8897,2.8526,2.7866,2.7404,2.741,2.6993,2.6683,2.6607,2.6496,2.6458,2.6602,2.6219,2.572,0.0,2.5385,2.552,2.539,2.5599,2.5964,2.6557,2.7503,2.8382,2.9189,2.9729,3.0422,3.1254,3.2059,3.3416,3.5245,3.6445,3.6998,3.6998,3.6998,3.7139,3.733,3.733,3.7715,3.8305,3.8524,3.8882,3.9303,3.9922,4.0147,4.0224,3.9545,4.0097,4.0376,3.9752,4.0151,4.0383,3.9805,4.0158,4.0524,4.0558,4.0524,4.0489,4.0489,4.0489,4.0489,4.0489,4.0489,4.0245,3.9614,3.9568,3.9276,3.8599,3.8568,3.8538,3.8491,3.7892,3.7569,3.7569,3.6938,3.6953,3.7569,3.7569,3.7938,3.8568,3.8568,3.8938,3.9568,3.9602,4.0192,4.1104,4.1218,4.1845,4.2748,4.2813,4.3256,4.3841,4.3794,4.3126,4.2233,4.2186,4.146,4.0472,3.9877,3.9307,3.8727,3.8094,3.7467,3.6998,3.6998,3.6998,3.6998,3.6998,3.6998,3.6675,3.547,3.4666,3.3778,3.2386,3.2001,3.142,2.9724,2.9369,2.9023,2.8091,2.7953,2.7825,2.7525,2.7473,2.7283,2.6788,2.6728,2.6728,2.6728,2.6728,2.6773,2.6882,2.6963,2.7191,2.7596,2.7119,2.7114,2.7745,2.8226,2.8887,2.9657,3.017,3.049,3.0638,3.2544,3.4244,3.5729,3.6553,3.694,3.6998,3.704,3.7372,3.7906,3.7948,3.8361,3.9008,3.9584,3.9837,3.9936,4.0491,4.0752,4.0901,4.0927,4.111,4.1209,4.1057,4.1151,4.1387,4.1742,4.1065,4.0681,4.1193,4.0819,4.0489,4.0489,4.0489,4.0489,4.0489,4.0489,4.0428,4.0259,4.0259,3.9968,3.9291,3.9261,3.9014,3.8507,3.8338,3.8245,3.8245,3.8108,3.8123,3.8245,3.8245,3.8614,3.9261,3.9261,3.9645,4.0278,4.0585,4.0864,4.1186,4.2273,4.2856,4.3163,4.3989,4.4716,4.5231,4.4733,4.4209,4.3699,4.3124,4.2223,4.114,3.9977,3.9535,3.9214,3.8192,3.7467,3.6998,3.6998,3.6998,3.6998,3.6998,3.6998,3.6675,3.547,3.4603,3.369,3.2377,3.1119,3.0133,2.971,2.9133,2.8637,2.8391,2.8351,2.8335,2.8263,2.8239,2.8191,2.8071,2.8047,2.8047,2.8047,2.8047,2.7644,2.6671,2.7533,2.7731,2.6834,2.7605,2.8158,2.8298,2.843,2.8803,2.9391,2.9525,3.0323,3.1808,3.2685,3.4022,3.5709,3.591,3.6362,3.704,3.7484,3.7765,3.7934,3.846,3.9022,3.9598,3.9739,4.009,4.0491,4.0645,4.1212,4.1941,4.2312,4.2639,4.28,4.2471,4.2724,4.2975,4.3038,4.2716,4.2362,4.2096,4.1729,4.1244,4.0572,4.0489,4.0489,4.0489,4.0489,4.0489,4.0489,4.0489,4.0353,3.9984,3.9968,3.9799,3.943,3.9107,3.8814,3.8491,3.8491,3.8759,3.9233,3.9036,3.9407,4.0224,4.0036,4.0271,4.0782,4.102,4.1461,4.2127,4.289,4.3681,4.4458,4.5045,4.5484,4.5759,4.5386,4.462,4.3727,4.3326,4.2257,4.0922,3.9927,3.9373,3.8917,3.8018,3.7476,3.7148,3.7148,3.707,3.6998,3.6998,3.6787,3.6261,3.4955,3.4085,3.3049,3.1359,3.031,2.9588,2.9223,2.8784,2.849,2.849,2.849,2.849,2.849,2.849,2.849,2.849,2.849,2.849,2.849,2.849,2.8199,2.7466,2.8104,2.818,2.7454,2.8104,2.849,2.849,2.8751,2.9015,2.9304,2.9785,3.0884,3.2562,3.3255,3.434,3.5709,3.6123,3.6692,3.7428,3.7751,3.8229,3.8791,3.9163,3.9669,4.0217,4.0309,4.0562,4.0887,4.1387,4.1941,4.2539,4.3575,4.4215,4.4581,4.3948,4.4416,4.4667,4.4087,4.4367,4.4151,4.2863,4.26,4.2009,4.0653,4.0489,4.0489,4.0489,4.0489,4.0489,4.0489,4.0489,4.0489,4.0489,4.0489,4.0489,4.0489,3.9937,3.9368,3.8799,3.8799,3.9306,4.0228,3.9896,4.0258,4.1156,4.0816,4.0867,4.1188,4.1239,4.2016,4.3214,4.3376,4.4329,4.5662,4.5759,4.5743,4.5629,4.5516,4.4525,4.3264,4.3152,4.1997,4.0548,3.9927,3.9211,3.8501,3.7877,3.7553,3.738,3.7341,3.7206,3.7037,3.6998,3.6457,3.5579,3.4276,3.329,3.2082,3.0113,2.9607,2.9309,2.8618,2.849,2.849,2.849,2.849,2.849,2.849,2.849,2.849,2.849,2.849,2.849,2.849,2.849,2.849,2.849,2.849,2.8546,2.8631,2.8631,2.8667,2.8751,2.9112,2.9376,2.9532,3.0528,3.1625,3.2821,3.3691,3.4609,3.5575,3.6518,3.7301,3.7946,3.8123,3.8811,3.9851,3.9936,4.0309,4.083,4.0993,4.1064,4.1191,4.2214,4.2706,4.3011,4.4415,4.501,4.5488,4.5387,4.5499,4.5582,4.5409,4.4527,4.3578,4.2727,4.2117,4.1449,4.0584,4.0489,4.0489,4.0489,4.0489,4.0489,4.0489,4.0489,4.0489,4.0489,4.0489,4.0489,4.0489,4.0397,4.029,4.0199,4.0199,4.045,4.0948,4.0881,4.1095,4.1522,4.1456,4.1456,4.1539,4.1818,4.2428,4.3279,4.4186,4.4722,4.5014,4.5581,4.5451,4.4868,4.4253,4.3848,4.3541,4.2911,4.2093,4.1227,4.0502,3.9768,3.9045,3.8319,3.7953,3.7777,3.7605,3.7399,3.7206,3.7037,3.6036,3.4897,3.4162,3.2428,3.073,2.9875,2.9165,2.8657,2.853,2.849,2.849,2.849,2.849,2.849,2.849,2.849,2.849,2.849,2.849,2.849,2.849,2.849,2.849,2.849,2.849,2.8703,2.9148,2.9172,2.9376,2.9854,2.9484,2.9746,3.0648,3.1262,3.1687,3.1913,3.2778,3.3741,3.4815,3.6076,3.7218,3.8201,3.9112,3.971,4.0102,4.0597,4.0993,4.1276,4.1332,4.1354,4.143,4.229,4.3135,4.3998,4.5179,4.5551,4.5942,4.6244,4.6529,4.6753,4.6873,4.637,4.5565,4.4468,4.3388,4.2311,4.1205,4.0737,4.0489,4.0489,4.0489,4.0489,4.0489,4.0489,4.0489,4.0489,4.0489,4.0489,4.0489,4.0489,4.0732,4.1192,4.1192,4.1623,4.238,4.1949,4.1932,4.2237,4.1802,4.1703,4.1883,4.2029,4.2639,4.3508,4.401,4.4447,4.4836,4.5144,4.482,4.4156,4.3816,4.3444,4.3071,4.2699,4.1852,4.0859,4.0502,3.9626,3.8638,3.83,3.8066,3.7853,3.7663,3.7438,3.7102,3.6234,3.5214,3.402,3.2508,3.1086,2.9907,2.9194,2.8756,2.849,2.849,2.849,2.849,2.849,2.849,2.849,2.849,2.849,2.849,2.849,2.849,2.849,2.849,2.8775,2.8931,2.8931,2.9196,2.946,2.9713,2.9725,2.9986,3.0516,3.0299,3.0582,3.1475,3.1728,3.1937,3.2103,3.3802,3.4853,3.5375,3.7277,3.8627,3.9469,3.995,4.0411,4.0814,4.1106,4.1297,4.1417,4.1528,4.1556,4.1723,4.3101,4.3909,4.4498,4.5923,4.6213,4.6568,4.6989,4.7496,4.7874,4.7891,4.7757,4.7144,4.5731,4.4451,4.3205,4.1945,4.1299,4.0956,4.0956,4.0956,4.0956,4.0956,4.1007,4.0921,4.0645,4.0713,4.073,4.0645,4.0713,4.1073,4.1754,4.1852,4.2395,4.3333,4.2816,4.2709,4.2894,4.2269,4.2077,4.2222,4.2222,4.2784,4.3703,4.3703,4.4043,4.4544,4.4544,4.4091,4.3444,4.3444,4.296,4.2333,4.2333,4.1361,4.0139,4.0139,3.9251,3.8202,3.8202,3.7984,3.7757,3.7677,3.7319,3.668,3.556,3.4308,3.2902,3.1154,3.0093,2.9309,2.8697,2.853,2.849,2.849,2.849,2.849,2.849,2.849,2.849,2.849,2.849,2.853,2.8558,2.8678,2.8791,2.8843,2.9078,2.9295,2.9534,2.9678,2.9911,3.0266,3.0329,3.0634,3.1221,3.1146,3.1373,3.1981,3.1994,3.2306,3.2953,3.5012,3.6182,3.6574,3.8755,4.0036,4.057,4.0666,4.0994,4.148,4.148,4.1501,4.1578,4.1737,4.191,4.2272,4.3897,4.4624,4.498,4.6583,4.7293,4.7768,4.7819,4.8411,4.8682,4.7997,4.7321,4.637,4.4967,4.4107,4.3299,4.2525,4.2396,4.2348,4.2348,4.2348,4.2348,4.2348,4.2537,4.2158,4.1088,4.1357,4.1373,4.107,4.1357,4.1555,4.1621,4.2061,4.2474,4.2862,4.3243,4.3365,4.3261,4.32,4.2942,4.2571,4.2571,4.2991,4.3703,4.3703,4.3719,4.3767,4.3767,4.333,4.2683,4.2683,4.2206,4.1575,4.1575,4.0605,3.9376,3.9376,3.8844,3.8202,3.8202,3.7792,3.7417,3.7785,3.6921,3.585,3.5545,3.3462,3.1455,3.1279,3.0,2.885,2.8803,2.8637,2.849,2.849,2.849,2.849,2.849,2.849,2.849,2.849,2.849,2.8558,2.8764,2.9221,2.9618,2.9877,2.9311,2.9322,3.0252,2.9317,2.9338,3.0762,3.101,3.1479,3.2249,3.1877,3.1769,3.1994,3.1994,3.2816,3.4443,3.55,3.6815,3.8372,3.9781,4.0547,4.0797,4.1165,4.1464,4.1681,4.1681,4.1821,4.2051,4.2071,4.2541,4.3284,4.4167,4.498,4.5733,4.7445,4.8073,4.858,4.858,4.8308,4.8029,4.7919,4.6878,4.5777,4.4821,4.3699,4.279,4.2304,4.1661,4.1359,4.1607,4.1623,4.1623,4.1623,4.19,4.1981,4.1851,4.149,4.1323,4.1406,4.1539,4.1981,4.277,4.2955,4.3512,4.4395,4.4013,4.3781,4.3708,4.3142,4.2774,4.2602,4.2602,4.2748,4.3007,4.3007,4.3007,4.3007,4.3007,4.2845,4.2602,4.2602,4.2126,4.1509,4.1509,4.0519,3.9287,3.9287,3.8789,3.8202,3.8202,3.7421,3.6598,3.6751,3.6033,3.4988,3.4013,3.2509,3.106,3.0131,2.9443,2.8993,2.8993,2.8934,2.8835,2.8717,2.8685,2.8657,2.853,2.849,2.849,2.849,2.8238,2.8336,2.902,2.8637,2.8815,3.0125,2.9879,3.0048,3.1067,3.1018,3.1209,3.1808,3.1895,3.208,3.2388,3.2565,3.2724,3.2946,3.2946,3.3503,3.4686,3.6575,3.7822,3.8514,4.0558,4.1544,4.1621,4.1769,4.187,4.1939,4.1939,4.2016,4.2154,4.2662,4.3021,4.3462,4.4759,4.5442,4.5821,4.8191,4.8462,4.8648,4.8648,4.7885,4.7327,4.7515,4.6498,4.5524,4.5072,4.4007,4.3186,4.296,4.2334,4.1965,4.2094,4.211,4.2013,4.1773,4.19,4.2059,4.2285,4.211,4.2077,4.219,4.2301,4.2786,4.3662,4.3791,4.4257,4.4947,4.4443,4.4057,4.3752,4.3112,4.2743,4.2602,4.2602,4.2602,4.2602,4.2602,4.2602,4.2602,4.2602,4.2602,4.2571,4.2333,4.1787,4.1128,4.0892,3.9982,3.8939,3.8939,3.8601,3.8146,3.7867,3.6959,3.6023,3.5723,3.4811,3.3663,3.2694,3.1621,3.0551,2.9562,2.9248,2.9177,2.9177,2.915,2.9052,2.8922,2.8882,2.8843,2.8697,2.8419,2.8215,2.8361,2.8075,2.8103,2.8759,2.8533,2.8907,3.0375,2.9925,3.0075,3.1401,3.1488,3.1759,3.2453,3.2497,3.2614,3.2853,3.3224,3.365,3.413,3.3901,3.4335,3.5439,3.7149,3.8358,3.9155,4.0844,4.1793,4.2092,4.2092,4.2092,4.2113,4.2372,4.2474,4.2561,4.3364,4.3838,4.419,4.5279,4.5859,4.6161,4.8849,4.8394,4.7887,4.7887,4.7276,4.68,4.68,4.616,4.5703,4.5689,4.5154,4.4789,4.4776,4.4899,4.48,4.4338,4.4296,4.3976,4.3239,4.2948,4.2642,4.2316,4.3395,4.3839,4.3512,4.3839,4.4001,4.4016,4.4468,4.4471,4.403,4.4468,4.42,4.3306,4.3306,4.3034,4.2602,4.2602,4.2602,4.2602,4.2602,4.2602,4.2602,4.2602,4.2602,4.2508,4.1754,4.1027,4.0295,3.9555,3.8808,3.8202,3.8202,3.8188,3.8018,3.715,3.6448,3.58,3.493,3.3235,3.1719,3.1861,3.0836,2.9792,2.9792,2.958,2.9399,2.9399,2.9236,2.9091,2.9091,2.9091,2.9091,2.9091,2.8203,2.765,2.8055,2.8045,2.7946,2.7818,2.9168,3.0268,3.0757,2.9297,2.9143,3.1158,3.0147,3.0395,3.2581,3.2723,3.3081,3.3862,3.3909,3.4414,3.5495,3.4763,3.5274,3.7004,3.7004,3.8268,4.0603,4.0603,4.1156,4.2092,4.2092,4.2092,4.2154,4.2975,4.3304,4.3383,4.4186,4.4999,4.5697,4.5715,4.6214,4.6893,4.8191,4.7706,4.7269,4.7269,4.6745,4.6309,4.6309,4.5676,4.4914,4.4133,4.3857,4.353,4.2973,4.2725,4.2786,4.3214,4.3244,4.3053,4.2611,4.2581,4.2639,4.2794,4.3335,4.372,4.3854,4.3941,4.4174,4.4499,4.4638,4.4807,4.4974,4.4793,4.437,4.3783,4.3441,4.3034,4.2602,4.2602,4.2602,4.2602,4.2602,4.2602,4.2602,4.2602,4.2602,4.2508,4.1754,4.1027,4.0295,3.9555,3.8808,3.813,3.7709,3.7578,3.7397,3.6514,3.5733,3.4981,3.4087,3.2686,3.1543,3.1707,3.0766,2.9792,2.9792,2.974,2.9682,2.9682,2.9624,2.9534,2.9353,2.8811,2.8463,2.8651,2.7909,2.7685,2.8792,2.8073,2.7933,2.9259,2.906,2.916,3.0019,2.9829,3.0158,3.1426,3.1811,3.2295,3.2939,3.3336,3.3646,3.3897,3.4628,3.5169,3.5495,3.5276,3.5649,3.6597,3.724,3.8268,3.9637,4.0289,4.1156,4.2092,4.2092,4.2092,4.2154,4.2975,4.3304,4.3442,4.4815,4.5497,4.5769,4.6321,4.6687,4.6893,4.7522,4.7032,4.6592,4.6632,4.6062,4.5609,4.5664,4.5244,4.4686,4.4059,4.4013,4.3883,4.338,4.3183,4.3212,4.3527,4.3276,4.2902,4.2419,4.2637,4.2727,4.2609,4.3388,4.4052,4.4541,4.4541,4.4697,4.4971,4.4971,4.5029,4.5123,4.4818,4.4356,4.3708,4.3426,4.3034,4.2602,4.2602,4.2602,4.2602,4.2602,4.2602,4.2602,4.2602,4.2429,4.2061,4.1328,4.0588,3.9841,3.9103,3.8403,3.7682,3.6755,3.6616,3.6541,3.5358,3.4844,3.4453,3.3581,3.2542,3.1748,3.1866,3.1002,3.0118,3.0118,2.9942,2.9792,2.9792,2.9792,2.9643,2.9145,2.875,2.8446,2.8237,2.7583,2.7434,2.8449,2.7807,2.7647,2.871,2.8538,2.8597,2.9314,2.9521,3.0147,3.1492,3.2164,3.2754,3.3395,3.3721,3.4098,3.4515,3.5157,3.5596,3.5845,3.6227,3.6588,3.6956,3.7533,3.8486,3.9768,4.0332,4.1156,4.2092,4.2092,4.2092,4.2125,4.2679,4.3096,4.3437,4.4502,4.5244,4.5799,4.6285,4.665,4.6893,4.6874,4.6323,4.5883,4.5978,4.5374,4.4899,4.5019,4.494,4.4886,4.4964,4.5069,4.5136,4.5096,4.5207,4.511,4.4735,4.4055,4.3323,4.2553,4.2864,4.2746,4.1972,4.3388,4.4557,4.5276,4.5363,4.5397,4.5397,4.5397,4.5177,4.4763,4.4721,4.4228,4.3366,4.3321,4.3034,4.2602,4.2602,4.2602,4.2602,4.2602,4.2602,4.2602,4.2523,4.2077,4.1394,4.0588,3.9859,3.9178,3.8391,3.7624,3.6793,3.5504,3.5433,3.5506,3.39,3.3888,3.4209,3.3347,3.2692,3.229,3.229,3.1524,3.0706,3.0576,3.0197,2.9848,2.9757,2.97,2.9449,2.8681,2.8725,2.8639,2.7929,2.7271,2.7043,2.755,2.743,2.7241,2.7078,2.7878,2.8477,2.8561,2.8654,2.9475,3.1325,3.1594,3.2313,3.3828,3.3985,3.449,3.547,3.5545,3.5879,3.6523,3.7384,3.7808,3.7808,3.79,3.8854,4.0603,4.0603,4.1156,4.2092,4.2175,4.2172,4.2132,4.24,4.2876,4.3441,4.3707,4.4573,4.5726,4.5775,4.6228,4.6812,4.5998,4.5653,4.5326,4.5261,4.526,4.5278,4.5318,4.5291,4.5154,4.4807,4.479,4.4666,4.4302,4.4288,4.4415,4.468,4.4354,4.3683,4.2558,4.2349,4.2041,4.1545,4.2768,4.3793,4.4522,4.51,4.5397,4.5397,4.5397,4.5357,4.5247,4.4876,4.4398,4.3825,4.3456,4.3034,4.2602,4.2602,4.2602,4.2602,4.2602,4.2602,4.2539,4.1965,4.164,4.1328,3.9999,3.943,3.9119,3.7894,3.6341,3.4812,3.4512,3.4395,3.4139,3.3107,3.3554,3.4209,3.3347,3.3002,3.2901,3.2901,3.2365,3.1543,3.0394,3.0272,3.0201,2.9399,2.8991,2.8814,2.8951,2.7921,2.7244,2.7789,2.7198,2.7066,2.8264,2.7791,2.7563,2.8234,2.8502,2.8362,2.7678,2.8269,2.9199,3.0418,3.157,3.2735,3.384,3.4703,3.5257,3.5495,3.5968,3.6631,3.75,3.7694,3.7808,3.7808,3.8554,3.9483,4.0603,4.0603,4.1156,4.2133,4.2769,4.2718,4.2272,4.3562,4.3897,4.3621,4.4286,4.4752,4.5079,4.5613,4.5905,4.6115,4.5371,4.5279,4.5207,4.518,4.5247,4.5331,4.5397,4.5357,4.5247,4.5056,4.5042,4.4947,4.4697,4.4669,4.4766,4.4998,4.4913,4.426,4.292,4.2668,4.2142,4.1199,4.2095,4.2982,4.3759,4.4505,4.5048,4.5397,4.5397,4.5397,4.5384,4.4917,4.4457,4.3987,4.3515,4.3034,4.2602,4.2602,4.2602,4.2602,4.2602,4.2665,4.2665,4.1916,4.1411,4.0961,3.9839,3.8978,3.8087,3.6392,3.5109,3.4018,3.2955,3.2934,3.3105,3.2269,3.2849,3.3675,3.3219,3.3102,3.3102,3.3102,3.2509,3.1632,3.0606,3.0351,3.0032,2.9011,2.8653,2.8444,2.8228,2.762,2.7191,2.7279,2.7094,2.7194,2.7932,2.7607,2.7489,2.7974,2.8034,2.8021,2.7974,2.8863,2.9829,3.079,3.225,3.3462,3.4229,3.5067,3.5644,3.5931,3.6243,3.664,3.7129,3.8024,3.8464,3.8486,3.9417,4.0381,4.1318,4.1318,4.1798,4.2673,4.2753,4.2771,4.2781,4.2989,4.3073,4.3088,4.3193,4.3652,4.4366,4.5063,4.5743,4.6374,4.4978,4.5127,4.5261,4.5357,4.5287,4.5274,4.5384,4.53,4.5274,4.5384,4.5397,4.5397,4.5397,4.5397,4.5397,4.5397,4.5397,4.4807,4.3414,4.3241,4.2516,4.0981,4.1607,4.2366,4.3172,4.3914,4.4673,4.5476,4.5423,4.5423,4.5463,4.4862,4.4356,4.3987,4.3426,4.2974,4.2602,4.2602,4.2602,4.2602,4.2602,4.2618,4.2571,4.1852,4.1112,4.0401,3.9539,3.8206,3.6613,3.4874,3.4058,3.3412,3.1538,3.1648,3.2322,3.161,3.221,3.3102,3.3102,3.2961,3.2853,3.2853,3.2098,3.1196,3.058,3.0148,2.9586,2.8596,2.8333,2.8082,2.7447,2.7516,2.7477,2.6811,2.7061,2.7309,2.7309,2.7309,2.7309,2.7309,2.7309,2.7678,2.8608,2.9441,3.0396,3.1514,3.2865,3.3945,3.4665,3.5207,3.5782,3.6392,3.657,3.6722,3.6873,3.8585,3.9541,3.9694,4.0475,4.1296,4.2092,4.2092,4.24,4.2892,4.256,4.2648,4.2981,4.2138,4.208,4.2465,4.1911,4.2445,4.3638,4.4578,4.5879,4.7151,4.4991,4.5194,4.5344,4.523,4.53,4.5384,4.5397,4.5384,4.5384,4.5397,4.5397,4.5397,4.5397,4.5397,4.5397,4.5397,4.5397,4.4945,4.3884,4.3431,4.2516,4.0981,4.1607,4.2366,4.3172,4.3914,4.4772,4.5748,4.5511,4.5524,4.5722,4.4608,4.4059,4.3972,4.3081,4.2649,4.2602,4.2602,4.2602,4.2602,4.2602,4.2222,4.1607,4.086,4.0241,3.9581,3.8271,3.6638,3.51,3.4807,3.3459,3.1775,3.1302,3.1461,3.1777,3.148,3.221,3.3102,3.3102,3.2472,3.1801,3.1801,3.1103,3.0124,2.9213,2.9195,2.9143,2.8187,2.7655,2.7469,2.7738,2.7243,2.6879,2.7167,2.7268,2.7309,2.7309,2.7309,2.7309,2.7309,2.7309,2.7678,2.8608,2.8817,2.9647,3.147,3.2228,3.3224,3.462,3.5207,3.5782,3.6392,3.7199,3.8001,3.8796,3.9877,4.0845,4.171,4.185,4.1974,4.2092,4.2092,4.1834,4.1469,4.2701,4.2637,4.176,4.2914,4.3057,4.2573,4.2477,4.2572,4.2957,4.475,4.6595,4.8209,4.5113,4.5278,4.5384,4.5314,4.5371,4.5397,4.5397,4.5397,4.5397,4.5397,4.5397,4.5397,4.5397,4.5397,4.5397,4.5397,4.5014,4.4419,4.3569,4.2896,4.2038,4.0963,4.121,4.1964,4.3172,4.3517,4.4382,4.5799,4.5537,4.5459,4.5546,4.4763,4.4259,4.3972,4.3292,4.2913,4.2775,4.2775,4.2806,4.2836,4.2349,4.2061,4.1803,4.0466,3.9646,3.8965,3.7031,3.5592,3.4516,3.3718,3.2591,3.1386,3.0778,3.1098,3.1655,3.146,3.182,3.2251,3.2251,3.1558,3.0835,3.0835,3.0079,2.9245,2.8794,2.8434,2.8074,2.7655,2.7403,2.7319,2.7541,2.7246,2.7071,2.7278,2.7309,2.7309,2.7309,2.7309,2.7309,2.7309,2.7309,2.7465,2.788,2.8899,2.9897,3.0745,3.2329,3.3516,3.4226,3.4766,3.5406,3.6144,3.6595,3.7215,3.8133,3.906,3.9758,4.0214,4.0732,4.1178,4.1541,4.1541,4.1685,4.19,4.2178,4.2443,4.2703,4.2977,4.2894,4.2602,4.2602,4.3104,4.3945,4.5092,4.6547,4.8048]}]]